Darstellungsparameter: Aktuell verwendete Einstellungen:
Skalierung der Graphiken ... ?
xyx+y,   Skalierungsfaktor:      Skalierung: Modus: x, Faktor: 1
Darstellungszeitraum ... ?
Vom - - bis: - -   Zeitraum: 01.11.2017 - 31.10.2020
Min/Max/Avg-Anzeige ... ?
Zeige MMA aktuell
Zeige MMA Monat
Zeige MMA alles
Zeige --A aktuell
Zeige --A Monat
Zeige --A alles
Keine MMA-Anzeige
MMA:
Average (ber die Originaldaten)
MMA-Basis: 23.02.2003 - 03.08.2020
Quicknavigation für Darstellung... ?
Tage:      1T, 2T, 3T, 5T -1T -2T -3T -5T +1T +2T +3T +5T
Wochen: 1W, 2W, 3W -1W -2W -3W +1W +2W +3W
Monate: 1M, 3M, 6M -1M -3M -6M +1M +3M +6M
Jahre:    1J, 3J, 5J, 10J -1J -3J -5J -10J +1J +3J +5J +10J
Nutze für die Darstellung ... ?
Originaldaten oder ...
Mittelwerte Minima Maxima auf...
Stundenbasis Tagesbasis Wochenbasis
Monatsbasis Jahresbasis      Datenbasis: Mittelwerte auf Stundenbasis
Darstellen als:
Statistik (Auto) Statistik J:M      Darstellung:
Zur Graphik,    zurück zur Übersicht aller Sensoren.
 
Tabellarische Datenbersicht: ?
 
Sensor: Nr:Datum:Temp:Abs-Feuchte:Windchill:Wind:
Aussen-T/F 1 01-11-2017 00:00:00 9.50833 C 7.31 g/m*3 8.69 C 6.84167 km/h
2 01-11-2017 01:00:00 9.33333 C 7.29 g/m*3 8.1 C 8.59167 km/h
3 01-11-2017 02:00:00 9.01667 C 7.19 g/m*3 8.37 C 5.89167 km/h
4 01-11-2017 03:00:00 9 C 7.22 g/m*3 7.82 C 8.075 km/h
5 01-11-2017 04:00:00 8.46667 C 7.22 g/m*3 7.74 C 5.9 km/h
6 01-11-2017 05:00:00 7.51667 C 6.98 g/m*3 7.52 C 3.475 km/h
7 01-11-2017 06:00:00 7.24167 C 6.9 g/m*3 7.24 C 4.95833 km/h
8 01-11-2017 07:00:00 6.85833 C 6.76 g/m*3 6.86 C 4.13333 km/h
9 01-11-2017 08:00:00 6.725 C 6.86 g/m*3 5.78 C 5.775 km/h
10 01-11-2017 09:00:00 7.66667 C 7.05 g/m*3 6.1 C 8.73333 km/h
11 01-11-2017 10:00:00 8.60833 C 7.3 g/m*3 7.27 C 8.475 km/h
12 01-11-2017 11:00:00 9.44167 C 7.59 g/m*3 9.44 C 4.14167 km/h
13 01-11-2017 12:00:00 9.90833 C 7.98 g/m*3 9.91 C 0.13333 km/h
14 01-11-2017 13:00:00 10.63333 C 8.31 g/m*3 10.63 C 1.46667 km/h
15 01-11-2017 14:00:00 11.30833 C 8.5 g/m*3 11.31 C 2.26667 km/h
16 01-11-2017 15:00:00 11.575 C 8.61 g/m*3 11.58 C 1.2 km/h
17 01-11-2017 16:00:00 11.11667 C 8.44 g/m*3 11.12 C 4.93333 km/h
18 01-11-2017 17:00:00 10.05833 C 8.03 g/m*3 10.06 C 3.06667 km/h
19 01-11-2017 18:00:00 8.84167 C 7.54 g/m*3 8.84 C 0.13333 km/h
20 01-11-2017 19:00:00 7.98333 C 7.19 g/m*3 7.98 C 0 km/h
21 01-11-2017 20:00:00 7.58333 C 6.96 g/m*3 7.58 C 0 km/h
22 01-11-2017 21:00:00 7.15833 C 6.95 g/m*3 7.16 C 0 km/h
23 01-11-2017 22:00:00 7.175 C 7.05 g/m*3 7.18 C 0 km/h
24 01-11-2017 23:00:00 6.8 C 6.9 g/m*3 6.8 C 0 km/h
25 02-11-2017 00:00:00 6.68333 C 6.98 g/m*3 6.68 C 0 km/h
Sensor: Nr:Datum:Temp:Abs-Feuchte:Windchill:Wind:
Aussen-T/F 26 02-11-2017 01:00:00 6.96667 C 7.17 g/m*3 6.97 C 0 km/h
27 02-11-2017 02:00:00 7.09167 C 7.17 g/m*3 7.09 C 0 km/h
28 02-11-2017 03:00:00 6.375 C 6.85 g/m*3 6.38 C 0.4 km/h
29 02-11-2017 04:00:00 6.18333 C 6.84 g/m*3 6.18 C 1.6 km/h
30 02-11-2017 05:00:00 5.88333 C 6.73 g/m*3 5.88 C 0.26667 km/h
31 02-11-2017 06:00:00 5.875 C 6.77 g/m*3 5.88 C 0.53333 km/h
32 02-11-2017 07:00:00 6.23333 C 6.87 g/m*3 6.23 C 0.53333 km/h
33 02-11-2017 08:00:00 6.66667 C 7.09 g/m*3 6.67 C 3.20833 km/h
34 02-11-2017 09:00:00 8.25833 C 7.45 g/m*3 7.58 C 5.63333 km/h
35 02-11-2017 10:00:00 9.55833 C 7.77 g/m*3 7.78 C 11.96667 km/h
36 02-11-2017 11:00:00 10.58333 C 8.08 g/m*3 9.91 C 6.98333 km/h
37 02-11-2017 12:00:00 11.38333 C 8.52 g/m*3 11.38 C 5.76667 km/h
38 02-11-2017 13:00:00 12.68333 C 9.03 g/m*3 12.68 C 4.55 km/h
39 02-11-2017 14:00:00 13.675 C 8.91 g/m*3 13.68 C 9.79167 km/h
40 02-11-2017 15:00:00 13.45833 C 8.69 g/m*3 13.46 C 5.49167 km/h
41 02-11-2017 16:00:00 12.48333 C 8.48 g/m*3 12.48 C 6.01667 km/h
42 02-11-2017 17:00:00 11.4 C 8.39 g/m*3 11.4 C 0.4 km/h
43 02-11-2017 18:00:00 10.45 C 8.19 g/m*3 10.45 C 0 km/h
44 02-11-2017 19:00:00 8.925 C 7.55 g/m*3 8.93 C 2.53333 km/h
45 02-11-2017 20:00:00 7.175 C 7.07 g/m*3 7.18 C 0.13333 km/h
46 02-11-2017 21:00:00 6.56667 C 7.02 g/m*3 6.57 C 0 km/h
47 02-11-2017 22:00:00 6.95833 C 7.26 g/m*3 6.96 C 0.13333 km/h
48 02-11-2017 23:00:00 6.41667 C 7.02 g/m*3 6.42 C 0.13333 km/h
49 03-11-2017 00:00:00 6.66667 C 7.2 g/m*3 6.67 C 0.8 km/h
50 03-11-2017 01:00:00 6.41667 C 7.09 g/m*3 6.42 C 0.53333 km/h
Sensor: Nr:Datum:Temp:Abs-Feuchte:Windchill:Wind:
Aussen-T/F 51 03-11-2017 02:00:00 5.7 C 6.76 g/m*3 5.7 C 0 km/h
52 03-11-2017 03:00:00 5.70833 C 6.82 g/m*3 5.71 C 0.53333 km/h
53 03-11-2017 04:00:00 5.44167 C 6.69 g/m*3 5.44 C 1.73333 km/h
54 03-11-2017 05:00:00 5.35833 C 6.68 g/m*3 5.36 C 1.86667 km/h
55 03-11-2017 06:00:00 5.85833 C 6.9 g/m*3 5.86 C 1.6 km/h
56 03-11-2017 07:00:00 6.325 C 7.14 g/m*3 6.33 C 0 km/h
57 03-11-2017 08:00:00 6.84167 C 7.39 g/m*3 6.84 C 0.13333 km/h
58 03-11-2017 09:00:00 7.325 C 7.6 g/m*3 7.33 C 1.33333 km/h
59 03-11-2017 10:00:00 7.85833 C 7.79 g/m*3 7.86 C 1.2 km/h
60 03-11-2017 11:00:00 8.36667 C 7.92 g/m*3 8.37 C 2.93333 km/h
61 03-11-2017 12:00:00 8.81667 C 8.05 g/m*3 8.82 C 1.6 km/h
62 03-11-2017 13:00:00 9.29167 C 8.29 g/m*3 9.29 C 0 km/h
63 03-11-2017 14:00:00 10.74167 C 8.62 g/m*3 10.74 C 0.26667 km/h
64 03-11-2017 15:00:00 11.19167 C 8.73 g/m*3 11.19 C 0 km/h
65 03-11-2017 16:00:00 11.20833 C 8.96 g/m*3 11.21 C 0 km/h
66 03-11-2017 17:00:00 9.3 C 8 g/m*3 9.3 C 0.66667 km/h
67 03-11-2017 18:00:00 7.6 C 7.39 g/m*3 7.6 C 0 km/h
68 03-11-2017 19:00:00 6.65833 C 7.12 g/m*3 6.66 C 0 km/h
69 03-11-2017 20:00:00 6.03333 C 6.87 g/m*3 6.03 C 0.13333 km/h
70 03-11-2017 21:00:00 4.98333 C 6.43 g/m*3 4.98 C 0 km/h
71 03-11-2017 22:00:00 4.35833 C 6.19 g/m*3 4.36 C 0 km/h
72 03-11-2017 23:00:00 4.03333 C 6.1 g/m*3 4.03 C 0 km/h
73 04-11-2017 00:00:00 3.84167 C 6.04 g/m*3 3.84 C 0 km/h
74 04-11-2017 01:00:00 4.1 C 6.14 g/m*3 4.1 C 0 km/h
75 04-11-2017 02:00:00 3.98333 C 6.1 g/m*3 3.98 C 0 km/h
Sensor: Nr:Datum:Temp:Abs-Feuchte:Windchill:Wind:
Aussen-T/F 76 04-11-2017 03:00:00 3.61667 C 5.95 g/m*3 3.62 C 0 km/h
77 04-11-2017 04:00:00 3.95833 C 6.15 g/m*3 3.96 C 0 km/h
78 04-11-2017 05:00:00 4.475 C 6.37 g/m*3 4.47 C 0 km/h
79 04-11-2017 06:00:00 4.76667 C 6.49 g/m*3 4.77 C 0 km/h
80 04-11-2017 07:00:00 5.06667 C 6.62 g/m*3 5.07 C 0 km/h
81 04-11-2017 08:00:00 5.175 C 6.67 g/m*3 5.18 C 0 km/h
82 04-11-2017 09:00:00 5.725 C 6.91 g/m*3 5.73 C 0 km/h
83 04-11-2017 10:00:00 6.60833 C 7.33 g/m*3 6.61 C 0 km/h
84 04-11-2017 11:00:00 7.99167 C 8.01 g/m*3 7.99 C 0 km/h
85 04-11-2017 12:00:00 9.875 C 8.86 g/m*3 9.88 C 0 km/h
86 04-11-2017 13:00:00 11.125 C 9.22 g/m*3 11.13 C 2.4 km/h
87 04-11-2017 14:00:00 13.49167 C 10.18 g/m*3 13.49 C 7.125 km/h
88 04-11-2017 15:00:00 13.91667 C 10.23 g/m*3 13.92 C 2.825 km/h
89 04-11-2017 16:00:00 12.25833 C 9.75 g/m*3 12.26 C 1.6 km/h
90 04-11-2017 17:00:00 11.075 C 9.29 g/m*3 11.08 C 1.73333 km/h
91 04-11-2017 18:00:00 11.06667 C 9.45 g/m*3 11.07 C 1.2 km/h
92 04-11-2017 19:00:00 11.85 C 10.02 g/m*3 11.85 C 1.86667 km/h
93 04-11-2017 20:00:00 11.70833 C 9.99 g/m*3 11.71 C 0.8 km/h
94 04-11-2017 21:00:00 11.84167 C 10.13 g/m*3 11.84 C 2 km/h
95 04-11-2017 22:00:00 11.73333 C 10.06 g/m*3 11.73 C 2 km/h
96 04-11-2017 23:00:00 10.94167 C 9.57 g/m*3 10.94 C 1.73333 km/h
97 05-11-2017 00:00:00 10.66667 C 9.42 g/m*3 10.67 C 0 km/h
98 05-11-2017 01:00:00 10.70833 C 9.5 g/m*3 10.71 C 0.13333 km/h
99 05-11-2017 02:00:00 11.025 C 9.72 g/m*3 11.03 C 0 km/h
100 05-11-2017 03:00:00 11.075 C 9.76 g/m*3 11.08 C 0 km/h
Sensor: Nr:Datum:Temp:Abs-Feuchte:Windchill:Wind:
Aussen-T/F 101 05-11-2017 04:00:00 11.15833 C 9.81 g/m*3 11.16 C 0.26667 km/h
102 05-11-2017 05:00:00 11.29167 C 9.89 g/m*3 11.29 C 0.13333 km/h
103 05-11-2017 06:00:00 11.125 C 9.79 g/m*3 11.13 C 0 km/h
104 05-11-2017 07:00:00 10.55 C 9.42 g/m*3 10.55 C 4.575 km/h
105 05-11-2017 08:00:00 9.4 C 8.68 g/m*3 8.1 C 9.01667 km/h
106 05-11-2017 09:00:00 8.875 C 8.33 g/m*3 8.37 C 5.35833 km/h
107 05-11-2017 10:00:00 8.49167 C 8.12 g/m*3 8.49 C 4.15 km/h
108 05-11-2017 11:00:00 8.30833 C 8.05 g/m*3 8.31 C 2.675 km/h
109 05-11-2017 12:00:00 8.49167 C 7.99 g/m*3 7.65 C 6.3 km/h
110 05-11-2017 13:00:00 9.20833 C 7.91 g/m*3 7.9 C 8.85833 km/h
111 05-11-2017 14:00:00 9.65833 C 7.49 g/m*3 8.83 C 6.975 km/h
112 05-11-2017 15:00:00 9.71667 C 7.38 g/m*3 8.72 C 7.78333 km/h
113 05-11-2017 16:00:00 9.29167 C 7.49 g/m*3 9.29 C 3.34167 km/h
114 05-11-2017 17:00:00 8.48333 C 7.06 g/m*3 7.72 C 6.04167 km/h
115 05-11-2017 18:00:00 7.39167 C 6.95 g/m*3 7.39 C 0.93333 km/h
116 05-11-2017 19:00:00 6.5 C 6.76 g/m*3 6.5 C 0.8 km/h
117 05-11-2017 20:00:00 6.35 C 6.72 g/m*3 6.35 C 0.93333 km/h
118 05-11-2017 21:00:00 5.65 C 6.52 g/m*3 5.65 C 0.66667 km/h
119 05-11-2017 22:00:00 5.29167 C 6.45 g/m*3 5.29 C 0.13333 km/h
120 05-11-2017 23:00:00 4.88333 C 6.32 g/m*3 4.88 C 0.8 km/h
121 06-11-2017 00:00:00 4.175 C 6.04 g/m*3 4.18 C 1.33333 km/h
122 06-11-2017 01:00:00 3.61667 C 5.87 g/m*3 3.62 C 1.46667 km/h
123 06-11-2017 02:00:00 3.40833 C 5.82 g/m*3 3.41 C 0.66667 km/h
124 06-11-2017 03:00:00 3.725 C 5.98 g/m*3 3.73 C 3.46667 km/h
125 06-11-2017 04:00:00 3.86667 C 5.99 g/m*3 3.87 C 3.2 km/h
Sensor: Nr:Datum:Temp:Abs-Feuchte:Windchill:Wind:
Aussen-T/F 126 06-11-2017 05:00:00 4.15 C 6.1 g/m*3 4.15 C 3.6 km/h
127 06-11-2017 06:00:00 4.375 C 6.19 g/m*3 3.24 C 5.35 km/h
128 06-11-2017 07:00:00 4.59167 C 6.28 g/m*3 4.59 C 4.94167 km/h
129 06-11-2017 08:00:00 4.725 C 6.3 g/m*3 4.72 C 3.06667 km/h
130 06-11-2017 09:00:00 5.18333 C 6.48 g/m*3 5.18 C 2.4 km/h
131 06-11-2017 10:00:00 5.73333 C 6.67 g/m*3 5.73 C 1.2 km/h
132 06-11-2017 11:00:00 6.49167 C 6.9 g/m*3 6.49 C 0.93333 km/h
133 06-11-2017 12:00:00 7.33333 C 6.97 g/m*3 7.33 C 1.46667 km/h
134 06-11-2017 13:00:00 7.61667 C 7.04 g/m*3 7.62 C 0.8 km/h
135 06-11-2017 14:00:00 7.725 C 7.07 g/m*3 7.73 C 0 km/h
136 06-11-2017 15:00:00 7.69167 C 7.06 g/m*3 7.69 C 0.66667 km/h
137 06-11-2017 16:00:00 7.6 C 7.23 g/m*3 7.6 C 0 km/h
138 06-11-2017 17:00:00 6.85833 C 7.01 g/m*3 6.86 C 0.26667 km/h
139 06-11-2017 18:00:00 6.46667 C 6.94 g/m*3 6.47 C 0.13333 km/h
140 06-11-2017 19:00:00 5.99167 C 6.76 g/m*3 5.99 C 1.06667 km/h
141 06-11-2017 20:00:00 5.575 C 6.63 g/m*3 5.58 C 0 km/h
142 06-11-2017 21:00:00 5.275 C 6.54 g/m*3 5.28 C 0 km/h
143 06-11-2017 22:00:00 5.40833 C 6.63 g/m*3 5.41 C 0 km/h
144 06-11-2017 23:00:00 4.75833 C 6.33 g/m*3 4.76 C 0.13333 km/h
145 07-11-2017 00:00:00 3.46667 C 5.83 g/m*3 3.47 C 0 km/h
146 07-11-2017 01:00:00 2.73333 C 5.55 g/m*3 2.73 C 0 km/h
147 07-11-2017 02:00:00 2.44167 C 5.49 g/m*3 2.44 C 0 km/h
148 07-11-2017 03:00:00 3.25 C 5.82 g/m*3 3.25 C 0.26667 km/h
149 07-11-2017 04:00:00 3.1 C 5.75 g/m*3 3.1 C 0.13333 km/h
150 07-11-2017 05:00:00 3.1 C 5.78 g/m*3 3.1 C 0.13333 km/h
Sensor: Nr:Datum:Temp:Abs-Feuchte:Windchill:Wind:
Aussen-T/F 151 07-11-2017 06:00:00 3.2 C 5.85 g/m*3 3.2 C 0 km/h
152 07-11-2017 07:00:00 3.3 C 5.88 g/m*3 3.3 C 1.6 km/h
153 07-11-2017 08:00:00 3.225 C 5.86 g/m*3 3.23 C 4.4 km/h
154 07-11-2017 09:00:00 2.71667 C 5.66 g/m*3 2.72 C 2.4 km/h
155 07-11-2017 10:00:00 3.25833 C 5.87 g/m*3 3.26 C 2.8 km/h
156 07-11-2017 11:00:00 4.00833 C 6.17 g/m*3 4.01 C 1.2 km/h
157 07-11-2017 12:00:00 4.64167 C 6.37 g/m*3 4.64 C 2.13333 km/h
158 07-11-2017 13:00:00 5.51667 C 6.59 g/m*3 5.52 C 1.46667 km/h
159 07-11-2017 14:00:00 6.01667 C 6.67 g/m*3 6.02 C 0 km/h
160 07-11-2017 15:00:00 6.24167 C 6.72 g/m*3 6.24 C 0 km/h
161 07-11-2017 16:00:00 6.2 C 6.73 g/m*3 6.2 C 0 km/h
162 07-11-2017 17:00:00 5.94167 C 6.73 g/m*3 5.94 C 0 km/h
163 07-11-2017 18:00:00 5.9 C 6.78 g/m*3 5.9 C 0 km/h
164 07-11-2017 19:00:00 5.86667 C 6.76 g/m*3 5.87 C 0 km/h
165 07-11-2017 20:00:00 5.80833 C 6.81 g/m*3 5.81 C 0 km/h
166 07-11-2017 21:00:00 5.775 C 6.79 g/m*3 5.78 C 0 km/h
167 07-11-2017 22:00:00 5.64167 C 6.73 g/m*3 5.64 C 0 km/h
168 07-11-2017 23:00:00 5.65833 C 6.74 g/m*3 5.66 C 0 km/h
169 08-11-2017 00:00:00 5.70833 C 6.76 g/m*3 5.71 C 0 km/h
170 08-11-2017 01:00:00 5.8 C 6.81 g/m*3 5.8 C 0 km/h
171 08-11-2017 02:00:00 5.83333 C 6.84 g/m*3 5.83 C 0 km/h
172 08-11-2017 03:00:00 5.9 C 6.9 g/m*3 5.9 C 0 km/h
173 08-11-2017 04:00:00 6.01667 C 6.98 g/m*3 6.02 C 0 km/h
174 08-11-2017 05:00:00 6.125 C 7.03 g/m*3 6.13 C 0 km/h
175 08-11-2017 06:00:00 6.1 C 7.01 g/m*3 6.1 C 0 km/h
Sensor: Nr:Datum:Temp:Abs-Feuchte:Windchill:Wind:
Aussen-T/F 176 08-11-2017 07:00:00 6.15 C 7.04 g/m*3 6.15 C 0 km/h
177 08-11-2017 08:00:00 6.25833 C 7.09 g/m*3 6.26 C 0 km/h
178 08-11-2017 09:00:00 6.43333 C 7.24 g/m*3 6.43 C 0 km/h
179 08-11-2017 10:00:00 6.6 C 7.32 g/m*3 6.6 C 0 km/h
180 08-11-2017 11:00:00 6.78333 C 7.41 g/m*3 6.78 C 0 km/h
181 08-11-2017 12:00:00 6.875 C 7.46 g/m*3 6.88 C 0 km/h
182 08-11-2017 13:00:00 7.10833 C 7.57 g/m*3 7.11 C 0.13333 km/h
183 08-11-2017 14:00:00 7.20833 C 7.62 g/m*3 7.21 C 0 km/h
184 08-11-2017 15:00:00 7.28333 C 7.66 g/m*3 7.28 C 0.53333 km/h
185 08-11-2017 16:00:00 7.20833 C 7.62 g/m*3 7.21 C 1.33333 km/h
186 08-11-2017 17:00:00 7.2 C 7.61 g/m*3 7.2 C 0.4 km/h
187 08-11-2017 18:00:00 7.125 C 7.58 g/m*3 7.13 C 0.53333 km/h
188 08-11-2017 19:00:00 7.1 C 7.57 g/m*3 7.1 C 1.6 km/h
189 08-11-2017 20:00:00 7.1 C 7.57 g/m*3 7.1 C 0.53333 km/h
190 08-11-2017 21:00:00 7.1 C 7.57 g/m*3 7.1 C 0.26667 km/h
191 08-11-2017 22:00:00 7.10833 C 7.57 g/m*3 7.11 C 0.26667 km/h
192 08-11-2017 23:00:00 7.2 C 7.61 g/m*3 7.2 C 0 km/h
193 09-11-2017 00:00:00 7.2 C 7.61 g/m*3 7.2 C 0 km/h
194 09-11-2017 01:00:00 7.26667 C 7.65 g/m*3 7.27 C 1.06667 km/h
195 09-11-2017 02:00:00 7.3 C 7.66 g/m*3 7.3 C 0.4 km/h
196 09-11-2017 03:00:00 7.34167 C 7.68 g/m*3 7.34 C 0.26667 km/h
197 09-11-2017 04:00:00 7.4 C 7.71 g/m*3 7.4 C 1.06667 km/h
198 09-11-2017 05:00:00 7.4 C 7.71 g/m*3 7.4 C 1.86667 km/h
199 09-11-2017 06:00:00 7.49167 C 7.76 g/m*3 7.49 C 3.20833 km/h
200 09-11-2017 07:00:00 7.48333 C 7.76 g/m*3 7.48 C 0.93333 km/h
Sensor: Nr:Datum:Temp:Abs-Feuchte:Windchill:Wind:
Aussen-T/F 201 09-11-2017 08:00:00 7.43333 C 7.73 g/m*3 7.43 C 0 km/h
202 09-11-2017 09:00:00 7.66667 C 7.92 g/m*3 7.67 C 0 km/h
203 09-11-2017 10:00:00 8.01667 C 8.09 g/m*3 8.02 C 0 km/h
204 09-11-2017 11:00:00 8.35833 C 8.26 g/m*3 8.36 C 1.2 km/h
205 09-11-2017 12:00:00 8.65 C 8.35 g/m*3 8.65 C 1.33333 km/h
206 09-11-2017 13:00:00 9.06667 C 8.43 g/m*3 9.07 C 0.26667 km/h
207 09-11-2017 14:00:00 9.15833 C 8.38 g/m*3 9.16 C 1.2 km/h
208 09-11-2017 15:00:00 9.21667 C 8.42 g/m*3 9.22 C 0.53333 km/h
209 09-11-2017 16:00:00 8.35833 C 7.74 g/m*3 8.36 C 4.41667 km/h
210 09-11-2017 17:00:00 7.66667 C 7.53 g/m*3 7.67 C 3.2 km/h
211 09-11-2017 18:00:00 6.80833 C 7.23 g/m*3 6.81 C 3.06667 km/h
212 09-11-2017 19:00:00 6.075 C 6.94 g/m*3 6.08 C 1.33333 km/h
213 09-11-2017 20:00:00 6.175 C 7.05 g/m*3 6.18 C 2.53333 km/h
214 09-11-2017 21:00:00 6.38333 C 7.13 g/m*3 6.38 C 4.41667 km/h
215 09-11-2017 22:00:00 6.46667 C 7.01 g/m*3 4.81 C 8.19167 km/h
216 09-11-2017 23:00:00 6.58333 C 6.94 g/m*3 4.48 C 10.34167 km/h
217 10-11-2017 00:00:00 6.51667 C 6.88 g/m*3 4.05 C 12.23333 km/h
218 10-11-2017 01:00:00 6.65833 C 6.93 g/m*3 4.68 C 9.825 km/h
219 10-11-2017 02:00:00 6.56667 C 7.06 g/m*3 4.69 C 9.25 km/h
220 10-11-2017 03:00:00 6.59167 C 7.1 g/m*3 5.06 C 7.79167 km/h
221 10-11-2017 04:00:00 6.83333 C 7.08 g/m*3 4.35 C 12.75 km/h
222 10-11-2017 05:00:00 6.9 C 7.13 g/m*3 3.89 C 16.5 km/h
223 10-11-2017 06:00:00 7.16667 C 7.19 g/m*3 4.38 C 15.3 km/h
224 10-11-2017 07:00:00 7.275 C 7.22 g/m*3 5.09 C 11.55833 km/h
225 10-11-2017 08:00:00 7.45833 C 7.27 g/m*3 4.91 C 14.1 km/h
Sensor: Nr:Datum:Temp:Abs-Feuchte:Windchill:Wind:
Aussen-T/F 226 10-11-2017 09:00:00 7.475 C 7.44 g/m*3 4.78 C 15.16667 km/h
227 10-11-2017 10:00:00 7.46667 C 7.55 g/m*3 5.04 C 13.3 km/h
228 10-11-2017 11:00:00 7.725 C 7.65 g/m*3 5.25 C 13.96667 km/h
229 10-11-2017 12:00:00 7.80833 C 7.59 g/m*3 6.19 C 9.13333 km/h
230 10-11-2017 13:00:00 8.13333 C 7.75 g/m*3 5.77 C 13.83333 km/h
231 10-11-2017 14:00:00 8.675 C 7.96 g/m*3 6.33 C 14.63333 km/h
232 10-11-2017 15:00:00 9.16667 C 8.2 g/m*3 7.1 C 13.43333 km/h
233 10-11-2017 16:00:00 9.30833 C 8.27 g/m*3 8.02 C 8.85833 km/h
234 10-11-2017 17:00:00 9.11667 C 8.28 g/m*3 7.93 C 8.2 km/h
235 10-11-2017 18:00:00 9.125 C 7.53 g/m*3 7.39 C 11.15833 km/h
236 10-11-2017 19:00:00 7.95833 C 6.72 g/m*3 7.07 C 6.175 km/h
237 10-11-2017 20:00:00 7.04167 C 6.5 g/m*3 5.86 C 6.70833 km/h
238 10-11-2017 21:00:00 6.69167 C 6.4 g/m*3 5.35 C 7.11667 km/h
239 10-11-2017 22:00:00 6.21667 C 6.4 g/m*3 6.22 C 3.875 km/h
240 10-11-2017 23:00:00 5.3 C 6.2 g/m*3 5.3 C 4.55 km/h
241 11-11-2017 00:00:00 4.98333 C 6.18 g/m*3 3.69 C 6.03333 km/h
242 11-11-2017 01:00:00 4.85 C 6.18 g/m*3 3.87 C 5.1 km/h
243 11-11-2017 02:00:00 5.05 C 6.3 g/m*3 3.96 C 5.48333 km/h
244 11-11-2017 03:00:00 4.99167 C 6.26 g/m*3 3.41 C 6.98333 km/h
245 11-11-2017 04:00:00 4.85833 C 6.23 g/m*3 3.37 C 6.575 km/h
246 11-11-2017 05:00:00 5.14167 C 6.34 g/m*3 3.83 C 6.16667 km/h
247 11-11-2017 06:00:00 5.50833 C 6.45 g/m*3 3.97 C 7.1 km/h
248 11-11-2017 07:00:00 5.8 C 6.46 g/m*3 3.84 C 8.99167 km/h
249 11-11-2017 08:00:00 6.425 C 6.57 g/m*3 3.41 C 15.7 km/h
250 11-11-2017 09:00:00 6.675 C 6.85 g/m*3 4.51 C 10.74167 km/h
Sensor: Nr:Datum:Temp:Abs-Feuchte:Windchill:Wind:
Aussen-T/F 251 11-11-2017 10:00:00 6.675 C 7.07 g/m*3 4.18 C 12.625 km/h
252 11-11-2017 11:00:00 6.8 C 7.23 g/m*3 6.8 C 2.41667 km/h
253 11-11-2017 12:00:00 7.18333 C 7.45 g/m*3 7.18 C 1.33333 km/h
254 11-11-2017 13:00:00 7.63333 C 7.71 g/m*3 6.95 C 5.35 km/h
255 11-11-2017 14:00:00 8.2 C 8.03 g/m*3 8.2 C 3.61667 km/h
256 11-11-2017 15:00:00 8.56667 C 8.23 g/m*3 8.57 C 2.53333 km/h
257 11-11-2017 16:00:00 8.325 C 8.1 g/m*3 7.82 C 5.1 km/h
258 11-11-2017 17:00:00 7.68333 C 7.78 g/m*3 7.68 C 4.29167 km/h
259 11-11-2017 18:00:00 7.34167 C 7.61 g/m*3 7.34 C 1.86667 km/h
260 11-11-2017 19:00:00 7.25 C 7.56 g/m*3 7.25 C 1.86667 km/h
261 11-11-2017 20:00:00 6.775 C 7.33 g/m*3 6.78 C 0.8 km/h
262 11-11-2017 21:00:00 6.25833 C 7.09 g/m*3 6.26 C 0.66667 km/h
263 11-11-2017 22:00:00 6.275 C 7.13 g/m*3 6.28 C 0.93333 km/h
264 11-11-2017 23:00:00 5.69167 C 6.83 g/m*3 5.69 C 0.53333 km/h
265 12-11-2017 00:00:00 5.24167 C 6.63 g/m*3 5.24 C 0.13333 km/h
266 12-11-2017 01:00:00 4.725 C 6.41 g/m*3 4.72 C 0 km/h
267 12-11-2017 02:00:00 4.44167 C 6.32 g/m*3 4.44 C 1.6 km/h
268 12-11-2017 03:00:00 4.425 C 6.32 g/m*3 4.43 C 1.46667 km/h
269 12-11-2017 04:00:00 3.9 C 6.11 g/m*3 3.9 C 0.66667 km/h
270 12-11-2017 05:00:00 3.84167 C 6.1 g/m*3 3.84 C 1.2 km/h
271 12-11-2017 06:00:00 3.9 C 6.13 g/m*3 3.9 C 2 km/h
272 12-11-2017 07:00:00 4.125 C 6.22 g/m*3 4.13 C 1.33333 km/h
273 12-11-2017 08:00:00 4.34167 C 6.31 g/m*3 4.34 C 0.13333 km/h
274 12-11-2017 09:00:00 4.84167 C 6.52 g/m*3 4.84 C 0.13333 km/h
275 12-11-2017 10:00:00 5.08333 C 6.63 g/m*3 5.08 C 0.26667 km/h
Sensor: Nr:Datum:Temp:Abs-Feuchte:Windchill:Wind:
Aussen-T/F 276 12-11-2017 11:00:00 5.175 C 6.67 g/m*3 5.18 C 0.8 km/h
277 12-11-2017 12:00:00 4.95 C 6.57 g/m*3 4.95 C 0.13333 km/h
278 12-11-2017 13:00:00 4.975 C 6.58 g/m*3 4.97 C 1.46667 km/h
279 12-11-2017 14:00:00 5.25 C 6.7 g/m*3 5.25 C 1.2 km/h
280 12-11-2017 15:00:00 5.34167 C 6.74 g/m*3 5.34 C 0.53333 km/h
281 12-11-2017 16:00:00 4.95 C 6.48 g/m*3 2.9 C 8.70833 km/h
282 12-11-2017 17:00:00 4.40833 C 6.16 g/m*3 4.41 C 3.35 km/h
283 12-11-2017 18:00:00 4.31667 C 6.17 g/m*3 4.32 C 2 km/h
284 12-11-2017 19:00:00 4.5 C 6.3 g/m*3 4.5 C 1.875 km/h
285 12-11-2017 20:00:00 4.7 C 6.35 g/m*3 4.7 C 2.66667 km/h
286 12-11-2017 21:00:00 4.84167 C 6.37 g/m*3 3.77 C 5.35833 km/h
287 12-11-2017 22:00:00 5.01667 C 6.39 g/m*3 3.82 C 5.775 km/h
288 12-11-2017 23:00:00 5.05 C 6.41 g/m*3 5.05 C 4.01667 km/h
289 13-11-2017 00:00:00 5.06667 C 6.48 g/m*3 3.45 C 7.13333 km/h
290 13-11-2017 01:00:00 5.24167 C 6.54 g/m*3 3.24 C 8.725 km/h
291 13-11-2017 02:00:00 5.36667 C 6.54 g/m*3 4.05 C 6.3 km/h
292 13-11-2017 03:00:00 5.4 C 6.55 g/m*3 3.39 C 8.88333 km/h
293 13-11-2017 04:00:00 5.48333 C 6.52 g/m*3 3.68 C 8.06667 km/h
294 13-11-2017 05:00:00 5.475 C 6.52 g/m*3 3.54 C 8.60833 km/h
295 13-11-2017 06:00:00 5.53333 C 6.55 g/m*3 4.46 C 5.63333 km/h
296 13-11-2017 07:00:00 5.6 C 6.57 g/m*3 4.28 C 6.425 km/h
297 13-11-2017 08:00:00 5.69167 C 6.61 g/m*3 4.47 C 6.15833 km/h
298 13-11-2017 09:00:00 5.94167 C 6.72 g/m*3 4.98 C 5.475 km/h
299 13-11-2017 10:00:00 6.475 C 6.92 g/m*3 5.33 C 6.3 km/h
300 13-11-2017 11:00:00 7.03333 C 7.05 g/m*3 5.78 C 6.975 km/h
Sensor: Nr:Datum:Temp:Abs-Feuchte:Windchill:Wind:
Aussen-T/F 301 13-11-2017 12:00:00 7.61667 C 7.11 g/m*3 5.82 C 9.825 km/h
302 13-11-2017 13:00:00 8.125 C 7.11 g/m*3 6.51 C 9.40833 km/h
303 13-11-2017 14:00:00 8.175 C 7.01 g/m*3 7.07 C 7.11667 km/h
304 13-11-2017 15:00:00 7.18333 C 6.84 g/m*3 6.03 C 6.7 km/h
305 13-11-2017 16:00:00 5.38333 C 6.49 g/m*3 5.38 C 2.4 km/h
306 13-11-2017 17:00:00 4.78333 C 6.34 g/m*3 4.78 C 1.73333 km/h
307 13-11-2017 18:00:00 5.04167 C 6.54 g/m*3 5.04 C 0.4 km/h
308 13-11-2017 19:00:00 4.89167 C 6.47 g/m*3 4.89 C 0.13333 km/h
309 13-11-2017 20:00:00 4.19167 C 6.17 g/m*3 4.19 C 2.8 km/h
310 13-11-2017 21:00:00 4.05833 C 6.13 g/m*3 4.06 C 1.33333 km/h
311 13-11-2017 22:00:00 3.25 C 5.8 g/m*3 3.25 C 0.26667 km/h
312 13-11-2017 23:00:00 3.65833 C 6.02 g/m*3 3.66 C 0.26667 km/h
313 14-11-2017 00:00:00 4.16667 C 6.24 g/m*3 4.17 C 0.26667 km/h
314 14-11-2017 01:00:00 4.54167 C 6.39 g/m*3 4.54 C 0.66667 km/h
315 14-11-2017 02:00:00 4.81667 C 6.51 g/m*3 4.82 C 0.8 km/h
316 14-11-2017 03:00:00 5.05 C 6.61 g/m*3 5.05 C 0.8 km/h
317 14-11-2017 04:00:00 5.19167 C 6.68 g/m*3 5.19 C 0 km/h
318 14-11-2017 05:00:00 5.04167 C 6.58 g/m*3 5.04 C 1.06667 km/h
319 14-11-2017 06:00:00 4.39167 C 6.27 g/m*3 4.39 C 0.53333 km/h
320 14-11-2017 07:00:00 3.61667 C 5.95 g/m*3 3.62 C 2.53333 km/h
321 14-11-2017 08:00:00 2.975 C 5.72 g/m*3 1.75 C 5.08333 km/h
322 14-11-2017 09:00:00 3.6 C 5.97 g/m*3 0.87 C 10.5 km/h
323 14-11-2017 10:00:00 3.99167 C 6.07 g/m*3 1.46 C 9.95833 km/h
324 14-11-2017 11:00:00 4.55 C 6.23 g/m*3 2.48 C 8.475 km/h
325 14-11-2017 12:00:00 4.65 C 6.18 g/m*3 1.6 C 13.3 km/h
Sensor: Nr:Datum:Temp:Abs-Feuchte:Windchill:Wind:
Aussen-T/F 326 14-11-2017 13:00:00 5.34167 C 6.32 g/m*3 2.75 C 11.56667 km/h
327 14-11-2017 14:00:00 5.83333 C 6.44 g/m*3 3.84 C 9.14167 km/h
328 14-11-2017 15:00:00 5.84167 C 6.43 g/m*3 4.32 C 7.26667 km/h
329 14-11-2017 16:00:00 5.05833 C 6.21 g/m*3 5.06 C 3.88333 km/h
330 14-11-2017 17:00:00 3.81667 C 5.84 g/m*3 3.82 C 0.8 km/h
331 14-11-2017 18:00:00 3.84167 C 5.96 g/m*3 3.84 C 0.93333 km/h
332 14-11-2017 19:00:00 4.35 C 6.16 g/m*3 2.32 C 8.20833 km/h
333 14-11-2017 20:00:00 5.175 C 6.39 g/m*3 3.43 C 7.65833 km/h
334 14-11-2017 21:00:00 5.35833 C 6.47 g/m*3 5.36 C 0.93333 km/h
335 14-11-2017 22:00:00 5.54167 C 6.55 g/m*3 5.54 C 2.00833 km/h
336 14-11-2017 23:00:00 5.56667 C 6.55 g/m*3 5.57 C 4.55 km/h
337 15-11-2017 00:00:00 5.475 C 6.45 g/m*3 4.44 C 5.49167 km/h
338 15-11-2017 01:00:00 5.4 C 6.42 g/m*3 4.31 C 5.625 km/h
339 15-11-2017 02:00:00 5.4 C 6.42 g/m*3 4.51 C 5.075 km/h
340 15-11-2017 03:00:00 5.38333 C 6.41 g/m*3 5.38 C 4.13333 km/h
341 15-11-2017 04:00:00 5.29167 C 6.43 g/m*3 5.29 C 3.33333 km/h
342 15-11-2017 05:00:00 5.01667 C 6.31 g/m*3 5.02 C 2.675 km/h
343 15-11-2017 06:00:00 4.65833 C 6.23 g/m*3 4.66 C 0 km/h
344 15-11-2017 07:00:00 4.75 C 6.33 g/m*3 4.75 C 0 km/h
345 15-11-2017 08:00:00 5.075 C 6.49 g/m*3 5.08 C 1.2 km/h
346 15-11-2017 09:00:00 5.74167 C 6.68 g/m*3 5.74 C 0.13333 km/h
347 15-11-2017 10:00:00 6.44167 C 6.84 g/m*3 6.44 C 0 km/h
348 15-11-2017 11:00:00 7.38333 C 7.11 g/m*3 7.38 C 0 km/h
349 15-11-2017 12:00:00 8.225 C 7.34 g/m*3 8.23 C 2.26667 km/h
350 15-11-2017 13:00:00 8.65833 C 7.49 g/m*3 8.66 C 1.6 km/h
Sensor: Nr:Datum:Temp:Abs-Feuchte:Windchill:Wind:
Aussen-T/F 351 15-11-2017 14:00:00 9.13333 C 7.68 g/m*3 9.13 C 0.26667 km/h
352 15-11-2017 15:00:00 9.41667 C 7.8 g/m*3 9.42 C 0 km/h
353 15-11-2017 16:00:00 9.2 C 7.96 g/m*3 9.2 C 0 km/h
354 15-11-2017 17:00:00 8.61667 C 7.9 g/m*3 8.62 C 0 km/h
355 15-11-2017 18:00:00 8.3 C 7.84 g/m*3 8.3 C 0.26667 km/h
356 15-11-2017 19:00:00 8.125 C 7.81 g/m*3 8.13 C 0.8 km/h
357 15-11-2017 20:00:00 8.225 C 7.46 g/m*3 8.23 C 3.86667 km/h
358 15-11-2017 21:00:00 8.00833 C 6.86 g/m*3 6.95 C 6.825 km/h
359 15-11-2017 22:00:00 7.45 C 6.46 g/m*3 7.45 C 4.28333 km/h
360 15-11-2017 23:00:00 6.55833 C 6.22 g/m*3 6.56 C 2.40833 km/h
361 16-11-2017 00:00:00 4.55 C 5.87 g/m*3 4.55 C 2.13333 km/h
362 16-11-2017 01:00:00 3.48333 C 5.67 g/m*3 3.48 C 1.2 km/h
363 16-11-2017 02:00:00 2.76667 C 5.49 g/m*3 2.77 C 0 km/h
364 16-11-2017 03:00:00 2.21667 C 5.34 g/m*3 2.22 C 0 km/h
365 16-11-2017 04:00:00 1.825 C 5.22 g/m*3 1.83 C 0 km/h
366 16-11-2017 05:00:00 2.34167 C 5.46 g/m*3 2.34 C 0 km/h
367 16-11-2017 06:00:00 3.18333 C 5.78 g/m*3 3.18 C 0 km/h
368 16-11-2017 07:00:00 3.65833 C 5.97 g/m*3 3.66 C 0 km/h
369 16-11-2017 08:00:00 4 C 6.1 g/m*3 4 C 0.13333 km/h
370 16-11-2017 09:00:00 4.65 C 6.38 g/m*3 4.65 C 1.06667 km/h
371 16-11-2017 10:00:00 5.24167 C 6.51 g/m*3 5.24 C 1.06667 km/h
372 16-11-2017 11:00:00 5.68333 C 6.55 g/m*3 5.68 C 2.93333 km/h
373 16-11-2017 12:00:00 6.16667 C 6.64 g/m*3 6.17 C 3.35 km/h
374 16-11-2017 13:00:00 6.4 C 6.67 g/m*3 6.4 C 2.80833 km/h
375 16-11-2017 14:00:00 6.76667 C 6.74 g/m*3 6.77 C 2.93333 km/h
Sensor: Nr:Datum:Temp:Abs-Feuchte:Windchill:Wind:
Aussen-T/F 376 16-11-2017 15:00:00 6.63333 C 6.72 g/m*3 6.63 C 1.6 km/h
377 16-11-2017 16:00:00 6.54167 C 6.76 g/m*3 6.54 C 1.06667 km/h
378 16-11-2017 17:00:00 5.90833 C 6.56 g/m*3 5.91 C 0 km/h
379 16-11-2017 18:00:00 5.55 C 6.52 g/m*3 5.55 C 0.53333 km/h
380 16-11-2017 19:00:00 5.51667 C 6.58 g/m*3 5.52 C 0 km/h
381 16-11-2017 20:00:00 5.71667 C 6.7 g/m*3 5.72 C 0 km/h
382 16-11-2017 21:00:00 5.86667 C 6.84 g/m*3 5.87 C 0.66667 km/h
383 16-11-2017 22:00:00 5.8 C 6.81 g/m*3 5.8 C 0 km/h
384 16-11-2017 23:00:00 5.74167 C 6.84 g/m*3 5.74 C 0 km/h
385 17-11-2017 00:00:00 5.7 C 6.83 g/m*3 5.7 C 0.13333 km/h
386 17-11-2017 01:00:00 5.7 C 6.83 g/m*3 5.7 C 1.06667 km/h
387 17-11-2017 02:00:00 5.71667 C 6.84 g/m*3 5.72 C 0.4 km/h
388 17-11-2017 03:00:00 5.40833 C 6.7 g/m*3 5.41 C 0.26667 km/h
389 17-11-2017 04:00:00 5.225 C 6.62 g/m*3 5.23 C 0.4 km/h
390 17-11-2017 05:00:00 5.41667 C 6.71 g/m*3 5.42 C 3.21667 km/h
391 17-11-2017 06:00:00 5.58333 C 6.78 g/m*3 5.58 C 1.06667 km/h
392 17-11-2017 07:00:00 5.675 C 6.89 g/m*3 5.68 C 1.2 km/h
393 17-11-2017 08:00:00 5.75 C 6.91 g/m*3 5.75 C 0.53333 km/h
394 17-11-2017 09:00:00 5.975 C 7.02 g/m*3 5.98 C 1.46667 km/h
395 17-11-2017 10:00:00 6.325 C 7.19 g/m*3 6.33 C 2.13333 km/h
396 17-11-2017 11:00:00 7.08333 C 7.56 g/m*3 7.08 C 1.73333 km/h
397 17-11-2017 12:00:00 7.83333 C 7.88 g/m*3 7.83 C 0.93333 km/h
398 17-11-2017 13:00:00 8.25833 C 8.04 g/m*3 8.26 C 2.13333 km/h
399 17-11-2017 14:00:00 8.44167 C 8 g/m*3 8.44 C 1.06667 km/h
400 17-11-2017 15:00:00 8.49167 C 8.02 g/m*3 8.49 C 0.53333 km/h
Sensor: Nr:Datum:Temp:Abs-Feuchte:Windchill:Wind:
Aussen-T/F 401 17-11-2017 16:00:00 7.70833 C 7.6 g/m*3 7.71 C 2.66667 km/h
402 17-11-2017 17:00:00 6.1 C 6.9 g/m*3 6.1 C 4.93333 km/h
403 17-11-2017 18:00:00 5.38333 C 6.64 g/m*3 5.38 C 0.26667 km/h
404 17-11-2017 19:00:00 5.2 C 6.61 g/m*3 5.2 C 0 km/h
405 17-11-2017 20:00:00 5.125 C 6.58 g/m*3 5.13 C 0 km/h
406 17-11-2017 21:00:00 5.21667 C 6.62 g/m*3 5.22 C 1.46667 km/h
407 17-11-2017 22:00:00 4.09167 C 6.08 g/m*3 4.09 C 2.8 km/h
408 17-11-2017 23:00:00 2.83333 C 5.59 g/m*3 2.83 C 0 km/h
409 18-11-2017 00:00:00 2.03333 C 5.31 g/m*3 2.03 C 0.13333 km/h
410 18-11-2017 01:00:00 1.94167 C 5.31 g/m*3 1.94 C 0 km/h
411 18-11-2017 02:00:00 1.94167 C 5.33 g/m*3 1.94 C 1.73333 km/h
412 18-11-2017 03:00:00 1.84167 C 5.31 g/m*3 1.84 C 1.46667 km/h
413 18-11-2017 04:00:00 1.33333 C 5.13 g/m*3 1.33 C 3.2 km/h
414 18-11-2017 05:00:00 1.04167 C 5.05 g/m*3 1.04 C 2.26667 km/h
415 18-11-2017 06:00:00 0.99167 C 5.03 g/m*3 0.99 C 2.4 km/h
416 18-11-2017 07:00:00 0.89167 C 5 g/m*3 0.89 C 1.6 km/h
417 18-11-2017 08:00:00 1.2 C 5.1 g/m*3 -0.9 C 6.7 km/h
418 18-11-2017 09:00:00 1.99167 C 5.39 g/m*3 -0.03 C 6.81667 km/h
419 18-11-2017 10:00:00 3.15833 C 5.8 g/m*3 1.32 C 6.84167 km/h
420 18-11-2017 11:00:00 4.24167 C 6.06 g/m*3 4.24 C 4.54167 km/h
421 18-11-2017 12:00:00 5.1 C 5.97 g/m*3 3 C 9 km/h
422 18-11-2017 13:00:00 5.575 C 5.82 g/m*3 3.25 C 10.475 km/h
423 18-11-2017 14:00:00 5.38333 C 5.83 g/m*3 3.83 C 7.10833 km/h
424 18-11-2017 15:00:00 5.55833 C 5.85 g/m*3 2.45 C 14.9 km/h
425 18-11-2017 16:00:00 5.225 C 5.76 g/m*3 2 C 15.16667 km/h
Sensor: Nr:Datum:Temp:Abs-Feuchte:Windchill:Wind:
Aussen-T/F 426 18-11-2017 17:00:00 5 C 5.84 g/m*3 2.14 C 12.63333 km/h
427 18-11-2017 18:00:00 5.25 C 5.94 g/m*3 2.13 C 14.5 km/h
428 18-11-2017 19:00:00 5.15833 C 6.05 g/m*3 2.11 C 13.95833 km/h
429 18-11-2017 20:00:00 5.09167 C 5.95 g/m*3 2.07 C 13.7 km/h
430 18-11-2017 21:00:00 4.89167 C 5.98 g/m*3 1.92 C 13.16667 km/h
431 18-11-2017 22:00:00 5.11667 C 6.12 g/m*3 1.62 C 16.9 km/h
432 18-11-2017 23:00:00 5.30833 C 6.29 g/m*3 2.56 C 12.36667 km/h
433 19-11-2017 00:00:00 5.525 C 6.43 g/m*3 3.57 C 8.73333 km/h
434 19-11-2017 01:00:00 5.13333 C 6.43 g/m*3 5.13 C 3.06667 km/h
435 19-11-2017 02:00:00 5.09167 C 6.51 g/m*3 5.09 C 3.475 km/h
436 19-11-2017 03:00:00 5.04167 C 6.51 g/m*3 3.35 C 7.375 km/h
437 19-11-2017 04:00:00 4.4 C 6.21 g/m*3 4.4 C 1.46667 km/h
438 19-11-2017 05:00:00 4.58333 C 6.31 g/m*3 4.58 C 4.28333 km/h
439 19-11-2017 06:00:00 4.61667 C 6.28 g/m*3 4.62 C 3.34167 km/h
440 19-11-2017 07:00:00 3.675 C 5.88 g/m*3 3.68 C 2.275 km/h
441 19-11-2017 08:00:00 3.39167 C 5.83 g/m*3 3.39 C 1.86667 km/h
442 19-11-2017 09:00:00 3.93333 C 6.01 g/m*3 2.05 C 7.4 km/h
443 19-11-2017 10:00:00 4.85833 C 6.26 g/m*3 2.95 C 8.075 km/h
444 19-11-2017 11:00:00 5.63333 C 6.6 g/m*3 4.44 C 6.03333 km/h
445 19-11-2017 12:00:00 6.39167 C 6.86 g/m*3 4.63 C 8.58333 km/h
446 19-11-2017 13:00:00 7.58333 C 6.74 g/m*3 5.65 C 10.48333 km/h
447 19-11-2017 14:00:00 7.85 C 6.6 g/m*3 5.78 C 11.56667 km/h
448 19-11-2017 15:00:00 7.65833 C 6.5 g/m*3 5.35 C 12.76667 km/h
449 19-11-2017 16:00:00 7.15833 C 6.35 g/m*3 4.92 C 11.7 km/h
450 19-11-2017 17:00:00 6.76667 C 6.33 g/m*3 4.06 C 14.1 km/h
Sensor: Nr:Datum:Temp:Abs-Feuchte:Windchill:Wind:
Aussen-T/F 451 19-11-2017 18:00:00 6.31667 C 6.28 g/m*3 4.63 C 8.19167 km/h
452 19-11-2017 19:00:00 6.40833 C 6.27 g/m*3 4.49 C 9.29167 km/h
453 19-11-2017 20:00:00 6.275 C 6.23 g/m*3 4.65 C 7.925 km/h
454 19-11-2017 21:00:00 5.75833 C 6.25 g/m*3 4.08 C 7.79167 km/h
455 19-11-2017 22:00:00 5.925 C 6.36 g/m*3 3.58 C 10.9 km/h
456 19-11-2017 23:00:00 5.95833 C 6.33 g/m*3 3.35 C 12.36667 km/h
457 20-11-2017 00:00:00 5.73333 C 6.39 g/m*3 4.13 C 7.5 km/h
458 20-11-2017 01:00:00 5.45 C 6.27 g/m*3 4.14 C 6.30833 km/h
459 20-11-2017 02:00:00 5.21667 C 6.04 g/m*3 3.38 C 8.05 km/h
460 20-11-2017 03:00:00 4.99167 C 5.93 g/m*3 2.84 C 9.15833 km/h
461 20-11-2017 04:00:00 4.55 C 5.86 g/m*3 2.7 C 7.65833 km/h
462 20-11-2017 05:00:00 4.18333 C 5.77 g/m*3 2.73 C 6.16667 km/h
463 20-11-2017 06:00:00 4.08333 C 5.7 g/m*3 2.04 C 8.075 km/h
464 20-11-2017 07:00:00 3.75 C 5.62 g/m*3 2.63 C 5.08333 km/h
465 20-11-2017 08:00:00 3.78333 C 5.63 g/m*3 3.78 C 4.80833 km/h
466 20-11-2017 09:00:00 4.04167 C 5.69 g/m*3 1.41 C 10.475 km/h
467 20-11-2017 10:00:00 4.125 C 5.94 g/m*3 2.85 C 5.61667 km/h
468 20-11-2017 11:00:00 4.54167 C 6.09 g/m*3 4.54 C 1.46667 km/h
469 20-11-2017 12:00:00 4.95 C 6.23 g/m*3 4.95 C 4.29167 km/h
470 20-11-2017 13:00:00 4.94167 C 6.27 g/m*3 2.72 C 9.41667 km/h
471 20-11-2017 14:00:00 4.81667 C 6.32 g/m*3 3.28 C 6.71667 km/h
472 20-11-2017 15:00:00 4.825 C 6.35 g/m*3 2.21 C 11.15833 km/h
473 20-11-2017 16:00:00 4.99167 C 6.45 g/m*3 1.99 C 13.41667 km/h
474 20-11-2017 17:00:00 5.3 C 6.52 g/m*3 1.7 C 17.96667 km/h
475 20-11-2017 18:00:00 5.56667 C 6.67 g/m*3 1.88 C 19.19167 km/h
Sensor: Nr:Datum:Temp:Abs-Feuchte:Windchill:Wind:
Aussen-T/F 476 20-11-2017 19:00:00 6.19167 C 6.91 g/m*3 2.75 C 18.5 km/h
477 20-11-2017 20:00:00 6.725 C 7.15 g/m*3 3.39 C 18.76667 km/h
478 20-11-2017 21:00:00 7.29167 C 7.42 g/m*3 3.99 C 19.70833 km/h
479 20-11-2017 22:00:00 7.79167 C 7.55 g/m*3 4.62 C 19.70833 km/h
480 20-11-2017 23:00:00 8.06667 C 7.65 g/m*3 5.58 C 14.63333 km/h
481 21-11-2017 00:00:00 8.35 C 7.78 g/m*3 5.43 C 18.775 km/h
482 21-11-2017 01:00:00 8.31667 C 7.76 g/m*3 5.78 C 15.43333 km/h
483 21-11-2017 02:00:00 8.74167 C 8.01 g/m*3 6.45 C 14.36667 km/h
484 21-11-2017 03:00:00 9.2 C 8.16 g/m*3 6.89 C 15.3 km/h
485 21-11-2017 04:00:00 9.23333 C 8.23 g/m*3 7.25 C 12.89167 km/h
486 21-11-2017 05:00:00 9.16667 C 8.2 g/m*3 6.7 C 16.49167 km/h
487 21-11-2017 06:00:00 9.16667 C 8.2 g/m*3 6.7 C 16.5 km/h
488 21-11-2017 07:00:00 9.35 C 8.31 g/m*3 7.39 C 12.9 km/h
489 21-11-2017 08:00:00 9.15833 C 8.41 g/m*3 7.12 C 13.16667 km/h
490 21-11-2017 09:00:00 9.31667 C 8.55 g/m*3 7.03 C 15.3 km/h
491 21-11-2017 10:00:00 9.7 C 8.71 g/m*3 7.66 C 14.1 km/h
492 21-11-2017 11:00:00 10.13333 C 8.77 g/m*3 8.11 C 14.76667 km/h
493 21-11-2017 12:00:00 10.60833 C 8.85 g/m*3 8.29 C 18.5 km/h
494 21-11-2017 13:00:00 10.38333 C 8.7 g/m*3 7.86 C 19.975 km/h
495 21-11-2017 14:00:00 10.125 C 8.58 g/m*3 7.56 C 19.7 km/h
496 21-11-2017 15:00:00 10.04167 C 8.31 g/m*3 8.97 C 8.45 km/h
497 21-11-2017 16:00:00 9.71667 C 8.18 g/m*3 8.63 C 8.19167 km/h
498 21-11-2017 17:00:00 9.44167 C 7.93 g/m*3 7.69 C 11.68333 km/h
499 21-11-2017 18:00:00 9.04167 C 7.78 g/m*3 9.04 C 4.95833 km/h
500 21-11-2017 19:00:00 8.64167 C 7.59 g/m*3 8.64 C 4.80833 km/h
Sensor: Nr:Datum:Temp:Abs-Feuchte:Windchill:Wind:
Aussen-T/F 501 21-11-2017 20:00:00 8.43333 C 7.48 g/m*3 7.09 C 8.35 km/h
502 21-11-2017 21:00:00 8.40833 C 7.47 g/m*3 7.28 C 7.39167 km/h
503 21-11-2017 22:00:00 8.5 C 7.49 g/m*3 7.66 C 6.30833 km/h
504 21-11-2017 23:00:00 8.6 C 7.53 g/m*3 7.78 C 6.29167 km/h
505 22-11-2017 00:00:00 8.65833 C 7.55 g/m*3 7.74 C 6.69167 km/h
506 22-11-2017 01:00:00 8.5 C 7.58 g/m*3 8.5 C 1.33333 km/h
507 22-11-2017 02:00:00 8.4 C 7.66 g/m*3 8.4 C 1.46667 km/h
508 22-11-2017 03:00:00 9.00833 C 7.74 g/m*3 7.95 C 7.51667 km/h
509 22-11-2017 04:00:00 9.51667 C 7.79 g/m*3 8.46 C 7.925 km/h
510 22-11-2017 05:00:00 9.6 C 7.8 g/m*3 9.6 C 4.28333 km/h
511 22-11-2017 06:00:00 9.65 C 7.81 g/m*3 8.42 C 8.85 km/h
512 22-11-2017 07:00:00 9.775 C 7.8 g/m*3 7.58 C 15.425 km/h
513 22-11-2017 08:00:00 9.81667 C 7.75 g/m*3 7.89 C 13.43333 km/h
514 22-11-2017 09:00:00 9.8 C 7.7 g/m*3 8.08 C 11.95833 km/h
515 22-11-2017 10:00:00 9.74167 C 7.67 g/m*3 8.13 C 11.15833 km/h
516 22-11-2017 11:00:00 9.70833 C 7.63 g/m*3 8.16 C 10.75833 km/h
517 22-11-2017 12:00:00 10.03333 C 7.74 g/m*3 8.59 C 10.5 km/h
518 22-11-2017 13:00:00 9.80833 C 7.78 g/m*3 9.81 C 4.95 km/h
519 22-11-2017 14:00:00 9.64167 C 7.86 g/m*3 9.64 C 3.6 km/h
520 22-11-2017 15:00:00 9.175 C 7.87 g/m*3 9.18 C 3.86667 km/h
521 22-11-2017 16:00:00 8.41667 C 7.65 g/m*3 8.42 C 4.93333 km/h
522 22-11-2017 17:00:00 7.325 C 7.25 g/m*3 7.33 C 2.8 km/h
523 22-11-2017 18:00:00 5.96667 C 6.75 g/m*3 5.97 C 0 km/h
524 22-11-2017 19:00:00 5.825 C 6.8 g/m*3 5.83 C 0.26667 km/h
525 22-11-2017 20:00:00 5.45833 C 6.61 g/m*3 5.46 C 1.86667 km/h
Sensor: Nr:Datum:Temp:Abs-Feuchte:Windchill:Wind:
Aussen-T/F 526 22-11-2017 21:00:00 5 C 6.44 g/m*3 5 C 0.93333 km/h
527 22-11-2017 22:00:00 4.93333 C 6.43 g/m*3 4.93 C 1.86667 km/h
528 22-11-2017 23:00:00 4.60833 C 6.29 g/m*3 4.61 C 1.33333 km/h
529 23-11-2017 00:00:00 4.59167 C 6.28 g/m*3 4.59 C 0.66667 km/h
530 23-11-2017 01:00:00 4.18333 C 6.09 g/m*3 4.18 C 1.86667 km/h
531 23-11-2017 02:00:00 3.45833 C 5.82 g/m*3 3.46 C 1.06667 km/h
532 23-11-2017 03:00:00 3.075 C 5.71 g/m*3 3.08 C 0 km/h
533 23-11-2017 04:00:00 2.69167 C 5.58 g/m*3 2.69 C 0.26667 km/h
534 23-11-2017 05:00:00 3.175 C 5.8 g/m*3 3.18 C 0.8 km/h
535 23-11-2017 06:00:00 3.825 C 6.09 g/m*3 3.83 C 2.26667 km/h
536 23-11-2017 07:00:00 3.925 C 6.12 g/m*3 3.93 C 2 km/h
537 23-11-2017 08:00:00 4.08333 C 6.2 g/m*3 4.08 C 1.06667 km/h
538 23-11-2017 09:00:00 4.825 C 6.52 g/m*3 4.83 C 3.06667 km/h
539 23-11-2017 10:00:00 7.16667 C 7.66 g/m*3 6.29 C 5.76667 km/h
540 23-11-2017 11:00:00 13.50833 C 9.23 g/m*3 13.51 C 17.16667 km/h
541 23-11-2017 12:00:00 15.01667 C 9.08 g/m*3 15.02 C 19.18333 km/h
542 23-11-2017 13:00:00 14.49167 C 9.12 g/m*3 14.49 C 11.69167 km/h
543 23-11-2017 14:00:00 14.51667 C 9.42 g/m*3 14.52 C 14.10833 km/h
544 23-11-2017 15:00:00 14.73333 C 9.58 g/m*3 14.73 C 11.15833 km/h
545 23-11-2017 16:00:00 14.75833 C 9.43 g/m*3 14.76 C 10.34167 km/h
546 23-11-2017 17:00:00 14.74167 C 9.39 g/m*3 14.74 C 11.01667 km/h
547 23-11-2017 18:00:00 14.85833 C 9.61 g/m*3 14.86 C 13.28333 km/h
548 23-11-2017 19:00:00 13.69167 C 9.86 g/m*3 13.69 C 4.83333 km/h
549 23-11-2017 20:00:00 13.04167 C 10.16 g/m*3 13.04 C 9.13333 km/h
550 23-11-2017 21:00:00 11.74167 C 9.73 g/m*3 11.74 C 2.675 km/h
Sensor: Nr:Datum:Temp:Abs-Feuchte:Windchill:Wind:
Aussen-T/F 551 23-11-2017 22:00:00 11.61667 C 9.88 g/m*3 11.62 C 0.66667 km/h
552 23-11-2017 23:00:00 11.625 C 9.97 g/m*3 11.63 C 1.2 km/h
553 24-11-2017 00:00:00 11.69167 C 9.97 g/m*3 11.69 C 2.675 km/h
554 24-11-2017 01:00:00 11.35833 C 9.73 g/m*3 11.36 C 0.53333 km/h
555 24-11-2017 02:00:00 11.19167 C 9.71 g/m*3 11.19 C 0.8 km/h
556 24-11-2017 03:00:00 11.21667 C 9.72 g/m*3 11.22 C 1.2 km/h
557 24-11-2017 04:00:00 11.13333 C 9.54 g/m*3 11.13 C 2.94167 km/h
558 24-11-2017 05:00:00 11.44167 C 9.49 g/m*3 11.44 C 3.60833 km/h
559 24-11-2017 06:00:00 11.51667 C 9.44 g/m*3 11.52 C 4.28333 km/h
560 24-11-2017 07:00:00 11.86667 C 9.5 g/m*3 11.87 C 7.8 km/h
561 24-11-2017 08:00:00 12.85833 C 9.64 g/m*3 12.86 C 18.5 km/h
562 24-11-2017 09:00:00 13.28333 C 9.56 g/m*3 13.28 C 17.96667 km/h
563 24-11-2017 10:00:00 13.53333 C 9.57 g/m*3 13.53 C 16.775 km/h
564 24-11-2017 11:00:00 13.33333 C 9.7 g/m*3 13.33 C 12.36667 km/h
565 24-11-2017 12:00:00 13.16667 C 9.58 g/m*3 13.17 C 13.7 km/h
566 24-11-2017 13:00:00 9.8 C 8.52 g/m*3 9.8 C 4.15833 km/h
567 24-11-2017 14:00:00 9.30833 C 8.5 g/m*3 9.31 C 0.53333 km/h
568 24-11-2017 15:00:00 9.14167 C 8.45 g/m*3 9.14 C 0.53333 km/h
569 24-11-2017 16:00:00 8.98333 C 8.39 g/m*3 8.98 C 0.13333 km/h
570 24-11-2017 17:00:00 8.49167 C 8.18 g/m*3 8.49 C 1.06667 km/h
571 24-11-2017 18:00:00 8.16667 C 8.02 g/m*3 8.17 C 2.26667 km/h
572 24-11-2017 19:00:00 7.95 C 7.91 g/m*3 7.95 C 0.26667 km/h
573 24-11-2017 20:00:00 7.90833 C 7.89 g/m*3 7.91 C 0 km/h
574 24-11-2017 21:00:00 7.9 C 7.89 g/m*3 7.9 C 0 km/h
575 24-11-2017 22:00:00 7.85833 C 7.92 g/m*3 7.86 C 0 km/h
Sensor: Nr:Datum:Temp:Abs-Feuchte:Windchill:Wind:
Aussen-T/F 576 24-11-2017 23:00:00 7.80833 C 7.92 g/m*3 7.81 C 0 km/h
577 25-11-2017 00:00:00 7.9 C 7.97 g/m*3 7.9 C 0 km/h
578 25-11-2017 01:00:00 7.75 C 7.89 g/m*3 7.75 C 0 km/h
579 25-11-2017 02:00:00 7.38333 C 7.71 g/m*3 7.38 C 1.73333 km/h
580 25-11-2017 03:00:00 7.55 C 7.79 g/m*3 7.55 C 2.41667 km/h
581 25-11-2017 04:00:00 7.4 C 7.71 g/m*3 7.4 C 0 km/h
582 25-11-2017 05:00:00 7.48333 C 7.76 g/m*3 7.48 C 0.8 km/h
583 25-11-2017 06:00:00 7.39167 C 7.68 g/m*3 6.02 C 7.66667 km/h
584 25-11-2017 07:00:00 6.70833 C 7.3 g/m*3 6.71 C 3.88333 km/h
585 25-11-2017 08:00:00 5.99167 C 6.89 g/m*3 5.08 C 5.34167 km/h
586 25-11-2017 09:00:00 5.59167 C 6.71 g/m*3 3.85 C 7.925 km/h
587 25-11-2017 10:00:00 5.44167 C 6.62 g/m*3 3.37 C 9.15833 km/h
588 25-11-2017 11:00:00 5.23333 C 6.45 g/m*3 2.75 C 10.9 km/h
589 25-11-2017 12:00:00 4.95833 C 6.34 g/m*3 3.33 C 7.1 km/h
590 25-11-2017 13:00:00 5.125 C 6.41 g/m*3 3.85 C 6.05833 km/h
591 25-11-2017 14:00:00 4.90833 C 6.35 g/m*3 4.91 C 2.81667 km/h
592 25-11-2017 15:00:00 4.85833 C 6.39 g/m*3 4.86 C 2.53333 km/h
593 25-11-2017 16:00:00 4.50833 C 6.28 g/m*3 4.51 C 1.86667 km/h
594 25-11-2017 17:00:00 4.2 C 6.13 g/m*3 4.2 C 0.53333 km/h
595 25-11-2017 18:00:00 3.29167 C 5.79 g/m*3 3.29 C 0.8 km/h
596 25-11-2017 19:00:00 3.29167 C 5.83 g/m*3 3.29 C 3.06667 km/h
597 25-11-2017 20:00:00 3.475 C 5.85 g/m*3 2.01 C 5.88333 km/h
598 25-11-2017 21:00:00 3.03333 C 5.68 g/m*3 3.03 C 2.26667 km/h
599 25-11-2017 22:00:00 1.875 C 5.25 g/m*3 1.88 C 0.66667 km/h
600 25-11-2017 23:00:00 1.99167 C 5.34 g/m*3 1.99 C 4.14167 km/h
Sensor: Nr:Datum:Temp:Abs-Feuchte:Windchill:Wind:
Aussen-T/F 601 26-11-2017 00:00:00 2.35 C 5.46 g/m*3 0.71 C 5.9 km/h
602 26-11-2017 01:00:00 2.26667 C 5.41 g/m*3 -0.05 C 7.925 km/h
603 26-11-2017 02:00:00 2.53333 C 5.48 g/m*3 -0.28 C 9.95833 km/h
604 26-11-2017 03:00:00 2.61667 C 5.45 g/m*3 0.32 C 8.05833 km/h
605 26-11-2017 04:00:00 2.58333 C 5.39 g/m*3 -0.31 C 10.35833 km/h
606 26-11-2017 05:00:00 2.525 C 5.35 g/m*3 -0.25 C 9.81667 km/h
607 26-11-2017 06:00:00 2.725 C 5.35 g/m*3 0.05 C 9.56667 km/h
608 26-11-2017 07:00:00 2.875 C 5.32 g/m*3 0.04 C 10.33333 km/h
609 26-11-2017 08:00:00 2.93333 C 5.33 g/m*3 0.11 C 10.35833 km/h
610 26-11-2017 09:00:00 3.48333 C 5.46 g/m*3 0.48 C 11.69167 km/h
611 26-11-2017 10:00:00 4.2 C 5.58 g/m*3 1.4 C 11.43333 km/h
612 26-11-2017 11:00:00 4.64167 C 5.71 g/m*3 1.45 C 14.1 km/h
613 26-11-2017 12:00:00 4.95 C 5.77 g/m*3 1.83 C 14.1 km/h
614 26-11-2017 13:00:00 5.325 C 5.76 g/m*3 2.25 C 14.35833 km/h
615 26-11-2017 14:00:00 5.6 C 5.74 g/m*3 3.41 C 9.825 km/h
616 26-11-2017 15:00:00 5.40833 C 5.7 g/m*3 2.78 C 11.825 km/h
617 26-11-2017 16:00:00 5.08333 C 5.73 g/m*3 2.29 C 12.36667 km/h
618 26-11-2017 17:00:00 4.73333 C 5.72 g/m*3 2.41 C 9.675 km/h
619 26-11-2017 18:00:00 4.325 C 5.61 g/m*3 2.12 C 8.86667 km/h
620 26-11-2017 19:00:00 3.85 C 5.58 g/m*3 1.36 C 9.68333 km/h
621 26-11-2017 20:00:00 4.36667 C 5.68 g/m*3 2.45 C 7.78333 km/h
622 26-11-2017 21:00:00 4.10833 C 5.64 g/m*3 2.73 C 5.9 km/h
623 26-11-2017 22:00:00 3.625 C 5.55 g/m*3 3.63 C 4.93333 km/h
624 26-11-2017 23:00:00 3.60833 C 5.62 g/m*3 2.06 C 6.175 km/h
625 27-11-2017 00:00:00 4 C 5.67 g/m*3 2.29 C 6.85 km/h
Sensor: Nr:Datum:Temp:Abs-Feuchte:Windchill:Wind:
Aussen-T/F 626 27-11-2017 01:00:00 3.45 C 5.5 g/m*3 0.95 C 9.40833 km/h
627 27-11-2017 02:00:00 3.925 C 5.35 g/m*3 1.04 C 11.56667 km/h
628 27-11-2017 03:00:00 4.025 C 5.43 g/m*3 0.98 C 12.5 km/h
629 27-11-2017 04:00:00 3.84167 C 5.44 g/m*3 0.68 C 12.9 km/h
630 27-11-2017 05:00:00 3.83333 C 5.38 g/m*3 1.15 C 10.49167 km/h
631 27-11-2017 06:00:00 3.73333 C 5.42 g/m*3 0.6 C 12.63333 km/h
632 27-11-2017 07:00:00 3.80833 C 5.48 g/m*3 0.3 C 14.9 km/h
633 27-11-2017 08:00:00 4.15833 C 5.74 g/m*3 1.79 C 9.40833 km/h
634 27-11-2017 09:00:00 4.78333 C 5.99 g/m*3 1.93 C 12.36667 km/h
635 27-11-2017 10:00:00 5.76667 C 6.27 g/m*3 2.57 C 15.83333 km/h
636 27-11-2017 11:00:00 6.44167 C 6.39 g/m*3 3.13 C 17.96667 km/h
637 27-11-2017 12:00:00 6.75 C 6.51 g/m*3 3.45 C 18.5 km/h
638 27-11-2017 13:00:00 7.06667 C 6.62 g/m*3 3.53 C 21.30833 km/h
639 27-11-2017 14:00:00 7.06667 C 6.69 g/m*3 3.4 C 22.65 km/h
640 27-11-2017 15:00:00 6.85833 C 6.65 g/m*3 2.9 C 25.05833 km/h
641 27-11-2017 16:00:00 6.525 C 6.55 g/m*3 2.41 C 25.74167 km/h
642 27-11-2017 17:00:00 6.575 C 6.54 g/m*3 2.7 C 23.30833 km/h
643 27-11-2017 18:00:00 6.775 C 6.58 g/m*3 2.73 C 25.75 km/h
644 27-11-2017 19:00:00 7.04167 C 6.78 g/m*3 3.22 C 24.11667 km/h
645 27-11-2017 20:00:00 7.10833 C 6.89 g/m*3 3.48 C 22.375 km/h
646 27-11-2017 21:00:00 7.35 C 6.98 g/m*3 4.04 C 19.975 km/h
647 27-11-2017 22:00:00 7.5 C 7.12 g/m*3 4.58 C 16.9 km/h
648 27-11-2017 23:00:00 7.60833 C 7.22 g/m*3 4.78 C 16.36667 km/h
649 28-11-2017 00:00:00 7.94167 C 7.23 g/m*3 5.41 C 14.76667 km/h
650 28-11-2017 01:00:00 7.58333 C 7.28 g/m*3 5.35 C 12.225 km/h
Sensor: Nr:Datum:Temp:Abs-Feuchte:Windchill:Wind:
Aussen-T/F 651 28-11-2017 02:00:00 7.24167 C 7.28 g/m*3 5.19 C 10.75833 km/h
652 28-11-2017 03:00:00 6.89167 C 7.26 g/m*3 6.89 C 3.75 km/h
653 28-11-2017 04:00:00 6.51667 C 7.13 g/m*3 6.52 C 1.6 km/h
654 28-11-2017 05:00:00 5.88333 C 6.86 g/m*3 5.88 C 0.8 km/h
655 28-11-2017 06:00:00 5.43333 C 6.68 g/m*3 5.43 C 1.73333 km/h
656 28-11-2017 07:00:00 5.11667 C 6.57 g/m*3 5.12 C 2.54167 km/h
657 28-11-2017 08:00:00 4.76667 C 6.42 g/m*3 4.77 C 4.54167 km/h
658 28-11-2017 09:00:00 4.58333 C 6.35 g/m*3 3.57 C 5.09167 km/h
659 28-11-2017 10:00:00 4.35833 C 6.19 g/m*3 3.03 C 5.875 km/h
660 28-11-2017 11:00:00 4.40833 C 6.21 g/m*3 2.61 C 7.375 km/h
661 28-11-2017 12:00:00 4.775 C 6.29 g/m*3 3.15 C 6.98333 km/h
662 28-11-2017 13:00:00 5.24167 C 6.43 g/m*3 4.28 C 5.20833 km/h
663 28-11-2017 14:00:00 5.13333 C 6.33 g/m*3 5.13 C 2.53333 km/h
664 28-11-2017 15:00:00 4.13333 C 6.02 g/m*3 4.13 C 2.4 km/h
665 28-11-2017 16:00:00 3.24167 C 5.72 g/m*3 3.24 C 3.06667 km/h
666 28-11-2017 17:00:00 2.44167 C 5.44 g/m*3 2.44 C 1.2 km/h
667 28-11-2017 18:00:00 1.76667 C 5.22 g/m*3 1.77 C 0 km/h
668 28-11-2017 19:00:00 1.075 C 5 g/m*3 1.08 C 0 km/h
669 28-11-2017 20:00:00 0.78333 C 4.91 g/m*3 0.78 C 0 km/h
670 28-11-2017 21:00:00 0.65 C 4.86 g/m*3 0.65 C 0.26667 km/h
671 28-11-2017 22:00:00 0.86667 C 4.97 g/m*3 0.87 C 1.86667 km/h
672 28-11-2017 23:00:00 1.45 C 5.19 g/m*3 1.45 C 1.06667 km/h
673 29-11-2017 00:00:00 1.76667 C 5.31 g/m*3 1.77 C 0 km/h
674 29-11-2017 01:00:00 1.925 C 5.36 g/m*3 1.93 C 0 km/h
675 29-11-2017 02:00:00 2.35833 C 5.52 g/m*3 2.36 C 0 km/h
Sensor: Nr:Datum:Temp:Abs-Feuchte:Windchill:Wind:
Aussen-T/F 676 29-11-2017 03:00:00 2.76667 C 5.68 g/m*3 2.77 C 0 km/h
677 29-11-2017 04:00:00 2.98333 C 5.76 g/m*3 2.98 C 0 km/h
678 29-11-2017 05:00:00 2.89167 C 5.73 g/m*3 2.89 C 0 km/h
679 29-11-2017 06:00:00 3.16667 C 5.83 g/m*3 3.17 C 0.66667 km/h
680 29-11-2017 07:00:00 3.31667 C 5.89 g/m*3 3.32 C 0 km/h
681 29-11-2017 08:00:00 3.325 C 5.89 g/m*3 3.33 C 0.8 km/h
682 29-11-2017 09:00:00 3.25 C 5.86 g/m*3 3.25 C 0.4 km/h
683 29-11-2017 10:00:00 3.7 C 6.04 g/m*3 3.7 C 1.6 km/h
684 29-11-2017 11:00:00 3.88333 C 6.12 g/m*3 3.88 C 2.93333 km/h
685 29-11-2017 12:00:00 4.075 C 6.14 g/m*3 2.7 C 5.89167 km/h
686 29-11-2017 13:00:00 3.98333 C 5.96 g/m*3 3.98 C 4.03333 km/h
687 29-11-2017 14:00:00 4.18333 C 5.67 g/m*3 2.55 C 6.71667 km/h
688 29-11-2017 15:00:00 3.40833 C 5.53 g/m*3 3.41 C 1.2 km/h
689 29-11-2017 16:00:00 3.35 C 5.56 g/m*3 3.35 C 0.66667 km/h
690 29-11-2017 17:00:00 3.125 C 5.61 g/m*3 3.13 C 0 km/h
691 29-11-2017 18:00:00 2.85833 C 5.57 g/m*3 2.86 C 0.13333 km/h
692 29-11-2017 19:00:00 2.7 C 5.54 g/m*3 2.7 C 0 km/h
693 29-11-2017 20:00:00 2.51667 C 5.51 g/m*3 2.52 C 0.13333 km/h
694 29-11-2017 21:00:00 2.65833 C 5.58 g/m*3 2.66 C 0.13333 km/h
695 29-11-2017 22:00:00 2.41667 C 5.49 g/m*3 2.42 C 0 km/h
696 29-11-2017 23:00:00 2.25 C 5.43 g/m*3 2.25 C 0.13333 km/h
697 30-11-2017 00:00:00 2.48333 C 5.57 g/m*3 2.48 C 0.4 km/h
698 30-11-2017 01:00:00 2.475 C 5.54 g/m*3 2.48 C 0.13333 km/h
699 30-11-2017 02:00:00 2.15833 C 5.4 g/m*3 2.16 C 0.26667 km/h
700 30-11-2017 03:00:00 2.14167 C 5.41 g/m*3 2.14 C 0.4 km/h
Sensor: Nr:Datum:Temp:Abs-Feuchte:Windchill:Wind:
Aussen-T/F 701 30-11-2017 04:00:00 2.05 C 5.4 g/m*3 2.05 C 0.13333 km/h
702 30-11-2017 05:00:00 1.19167 C 5.05 g/m*3 1.19 C 0.13333 km/h
703 30-11-2017 06:00:00 0.59167 C 4.84 g/m*3 0.59 C 0.4 km/h
704 30-11-2017 07:00:00 0.55 C 4.86 g/m*3 0.55 C 3.6 km/h
705 30-11-2017 08:00:00 0.85 C 4.98 g/m*3 0.85 C 0.93333 km/h
706 30-11-2017 09:00:00 1.025 C 5.04 g/m*3 1.02 C 0.4 km/h
707 30-11-2017 10:00:00 1.78333 C 5.31 g/m*3 1.78 C 3.74167 km/h
708 30-11-2017 11:00:00 2.74167 C 5.67 g/m*3 2.74 C 4.40833 km/h
709 30-11-2017 12:00:00 3.76667 C 6.03 g/m*3 2.16 C 6.425 km/h
710 30-11-2017 13:00:00 4.45833 C 6.09 g/m*3 3.14 C 5.88333 km/h
711 30-11-2017 14:00:00 4.74167 C 6.03 g/m*3 3.52 C 5.74167 km/h
712 30-11-2017 15:00:00 4.56667 C 5.96 g/m*3 4.57 C 2.94167 km/h
713 30-11-2017 16:00:00 4.03333 C 5.82 g/m*3 2.55 C 6.16667 km/h
714 30-11-2017 17:00:00 3.11667 C 5.62 g/m*3 1.8 C 5.35 km/h
715 30-11-2017 18:00:00 2.61667 C 5.5 g/m*3 2.62 C 2.66667 km/h
716 30-11-2017 19:00:00 2.61667 C 5.56 g/m*3 2.62 C 1.06667 km/h
717 30-11-2017 20:00:00 2.525 C 5.53 g/m*3 2.53 C 0 km/h
718 30-11-2017 21:00:00 2.24167 C 5.42 g/m*3 2.24 C 0.53333 km/h
719 30-11-2017 22:00:00 2.01667 C 5.34 g/m*3 2.02 C 2.26667 km/h
720 30-11-2017 23:00:00 1.86667 C 5.29 g/m*3 1.87 C 2.4 km/h
721 01-12-2017 00:00:00 1.81667 C 5.27 g/m*3 1.82 C 0.13333 km/h
722 01-12-2017 01:00:00 1.8 C 5.26 g/m*3 1.8 C 0 km/h
723 01-12-2017 02:00:00 1.7 C 5.23 g/m*3 1.7 C 0.4 km/h
724 01-12-2017 03:00:00 1.6 C 5.24 g/m*3 1.6 C 0 km/h
725 01-12-2017 04:00:00 1.6 C 5.25 g/m*3 1.6 C 0 km/h
Sensor: Nr:Datum:Temp:Abs-Feuchte:Windchill:Wind:
Aussen-T/F 726 01-12-2017 05:00:00 1.05 C 5.01 g/m*3 1.05 C 0 km/h
727 01-12-2017 06:00:00 0.93333 C 5 g/m*3 0.93 C 0 km/h
728 01-12-2017 07:00:00 0.875 C 4.98 g/m*3 0.88 C 0 km/h
729 01-12-2017 08:00:00 1.125 C 5.08 g/m*3 1.13 C 0 km/h
730 01-12-2017 09:00:00 0.74167 C 4.94 g/m*3 0.74 C 0 km/h
731 01-12-2017 10:00:00 0.65 C 4.92 g/m*3 0.65 C 0 km/h
732 01-12-2017 11:00:00 0.73333 C 4.94 g/m*3 0.73 C 0 km/h
733 01-12-2017 12:00:00 1.1 C 5.07 g/m*3 1.1 C 0.26667 km/h
734 01-12-2017 13:00:00 2.35 C 5.42 g/m*3 0.98 C 5.21667 km/h
735 01-12-2017 14:00:00 2.95 C 5.37 g/m*3 2.95 C 4.40833 km/h
736 01-12-2017 15:00:00 2.65 C 5.31 g/m*3 2.65 C 0.26667 km/h
737 01-12-2017 16:00:00 1.875 C 5.15 g/m*3 1.88 C 0.8 km/h
738 01-12-2017 17:00:00 0.94167 C 4.88 g/m*3 0.94 C 1.2 km/h
739 01-12-2017 18:00:00 0.525 C 4.77 g/m*3 0.53 C 2.93333 km/h
740 01-12-2017 19:00:00 -0.23333 C 4.53 g/m*3 -0.23 C 0.4 km/h
741 01-12-2017 20:00:00 -0.13333 C 4.6 g/m*3 -0.13 C 0 km/h
742 01-12-2017 21:00:00 0.33333 C 4.76 g/m*3 0.33 C 0 km/h
743 01-12-2017 22:00:00 0.45 C 4.8 g/m*3 0.45 C 0 km/h
744 01-12-2017 23:00:00 -0.30833 C 4.55 g/m*3 -0.31 C 0.13333 km/h
745 02-12-2017 00:00:00 -0.51667 C 4.49 g/m*3 -0.52 C 0.53333 km/h
746 02-12-2017 01:00:00 -0.04167 C 4.64 g/m*3 -0.04 C 0 km/h
747 02-12-2017 02:00:00 0.24167 C 4.73 g/m*3 0.24 C 0 km/h
748 02-12-2017 03:00:00 0.6 C 4.89 g/m*3 0.6 C 0.13333 km/h
749 02-12-2017 04:00:00 0.7 C 4.88 g/m*3 0.7 C 0 km/h
750 02-12-2017 05:00:00 0.6 C 4.85 g/m*3 0.6 C 1.06667 km/h
Sensor: Nr:Datum:Temp:Abs-Feuchte:Windchill:Wind:
Aussen-T/F 751 02-12-2017 06:00:00 0.5 C 4.81 g/m*3 0.5 C 0.53333 km/h
752 02-12-2017 07:00:00 0.475 C 4.81 g/m*3 0.48 C 0 km/h
753 02-12-2017 08:00:00 0.45833 C 4.8 g/m*3 0.46 C 0.26667 km/h
754 02-12-2017 09:00:00 0.65 C 4.86 g/m*3 0.65 C 0.4 km/h
755 02-12-2017 10:00:00 0.96667 C 4.92 g/m*3 0.97 C 1.06667 km/h
756 02-12-2017 11:00:00 1.325 C 5.01 g/m*3 1.33 C 0.53333 km/h
757 02-12-2017 12:00:00 1.5 C 5 g/m*3 1.5 C 3.33333 km/h
758 02-12-2017 13:00:00 1.74167 C 5.04 g/m*3 1.74 C 2.4 km/h
759 02-12-2017 14:00:00 1.81667 C 5.1 g/m*3 1.82 C 0.4 km/h
760 02-12-2017 15:00:00 1.9 C 5.12 g/m*3 1.9 C 1.6 km/h
761 02-12-2017 16:00:00 1.76667 C 5.04 g/m*3 1.77 C 3.06667 km/h
762 02-12-2017 17:00:00 1.66667 C 5.03 g/m*3 1.67 C 2.13333 km/h
763 02-12-2017 18:00:00 1.46667 C 4.93 g/m*3 1.47 C 1.06667 km/h
764 02-12-2017 19:00:00 1.31667 C 4.88 g/m*3 1.32 C 0.13333 km/h
765 02-12-2017 20:00:00 1.25 C 4.89 g/m*3 1.25 C 0.53333 km/h
766 02-12-2017 21:00:00 1.2 C 4.89 g/m*3 1.2 C 0 km/h
767 02-12-2017 22:00:00 1.025 C 4.84 g/m*3 1.02 C 0 km/h
768 02-12-2017 23:00:00 0.81667 C 4.77 g/m*3 0.82 C 0.13333 km/h
769 03-12-2017 00:00:00 0.7 C 4.78 g/m*3 0.7 C 0 km/h
770 03-12-2017 01:00:00 0.76667 C 4.8 g/m*3 0.77 C 0 km/h
771 03-12-2017 02:00:00 0.65833 C 4.77 g/m*3 0.66 C 0 km/h
772 03-12-2017 03:00:00 0.28333 C 4.63 g/m*3 0.28 C 0.13333 km/h
773 03-12-2017 04:00:00 0.275 C 4.64 g/m*3 0.28 C 0.66667 km/h
774 03-12-2017 05:00:00 0.325 C 4.61 g/m*3 0.33 C 2.94167 km/h
775 03-12-2017 06:00:00 0.46667 C 4.59 g/m*3 0.47 C 2.80833 km/h
Sensor: Nr:Datum:Temp:Abs-Feuchte:Windchill:Wind:
Aussen-T/F 776 03-12-2017 07:00:00 0.45 C 4.59 g/m*3 0.45 C 4.01667 km/h
777 03-12-2017 08:00:00 0.44167 C 4.6 g/m*3 -1.79 C 6.70833 km/h
778 03-12-2017 09:00:00 0.58333 C 4.67 g/m*3 -0.96 C 5.075 km/h
779 03-12-2017 10:00:00 0.73333 C 4.71 g/m*3 -1.72 C 7.51667 km/h
780 03-12-2017 11:00:00 0.78333 C 4.73 g/m*3 -2.73 C 11.43333 km/h
781 03-12-2017 12:00:00 0.64167 C 4.76 g/m*3 -3.3 C 13.3 km/h
782 03-12-2017 13:00:00 0.44167 C 4.7 g/m*3 -3.26 C 11.95833 km/h
783 03-12-2017 14:00:00 0.5 C 4.71 g/m*3 -2.53 C 9.29167 km/h
784 03-12-2017 15:00:00 0.575 C 4.74 g/m*3 -2.91 C 11.16667 km/h
785 03-12-2017 16:00:00 0.53333 C 4.7 g/m*3 -3.12 C 11.83333 km/h
786 03-12-2017 17:00:00 0.65 C 4.71 g/m*3 -2.16 C 8.6 km/h
787 03-12-2017 18:00:00 0.78333 C 4.76 g/m*3 -2.37 C 9.96667 km/h
788 03-12-2017 19:00:00 0.9 C 4.85 g/m*3 -2.02 C 9.15833 km/h
789 03-12-2017 20:00:00 1.01667 C 4.88 g/m*3 -1.91 C 9.28333 km/h
790 03-12-2017 21:00:00 1.14167 C 4.92 g/m*3 -1.16 C 7.24167 km/h
791 03-12-2017 22:00:00 1.275 C 4.97 g/m*3 -1.22 C 7.91667 km/h
792 03-12-2017 23:00:00 1.31667 C 5.02 g/m*3 -0.52 C 6.03333 km/h
793 04-12-2017 00:00:00 1.48333 C 5.07 g/m*3 -0.76 C 7.23333 km/h
794 04-12-2017 01:00:00 1.63333 C 5.15 g/m*3 -0.54 C 7.11667 km/h
795 04-12-2017 02:00:00 1.775 C 5.2 g/m*3 -0.83 C 8.61667 km/h
796 04-12-2017 03:00:00 1.98333 C 5.27 g/m*3 -0.22 C 7.38333 km/h
797 04-12-2017 04:00:00 2.15833 C 5.34 g/m*3 -0.41 C 8.725 km/h
798 04-12-2017 05:00:00 2.30833 C 5.39 g/m*3 -0.09 C 8.20833 km/h
799 04-12-2017 06:00:00 2.44167 C 5.45 g/m*3 -0.15 C 9.00833 km/h
800 04-12-2017 07:00:00 2.60833 C 5.56 g/m*3 -0.22 C 10.09167 km/h
Sensor: Nr:Datum:Temp:Abs-Feuchte:Windchill:Wind:
Aussen-T/F 801 04-12-2017 08:00:00 2.79167 C 5.63 g/m*3 0.3 C 8.875 km/h
802 04-12-2017 09:00:00 3.18333 C 5.78 g/m*3 0.43 C 10.23333 km/h
803 04-12-2017 10:00:00 3.575 C 5.9 g/m*3 0.93 C 10.1 km/h
804 04-12-2017 11:00:00 3.96667 C 6.03 g/m*3 1.28 C 10.63333 km/h
805 04-12-2017 12:00:00 4.23333 C 6.13 g/m*3 1.49 C 11.16667 km/h
806 04-12-2017 13:00:00 4.25 C 6.2 g/m*3 1.86 C 9.55833 km/h
807 04-12-2017 14:00:00 4.425 C 6.28 g/m*3 2.07 C 9.55 km/h
808 04-12-2017 15:00:00 4.61667 C 6.36 g/m*3 2.66 C 8.075 km/h
809 04-12-2017 16:00:00 4.60833 C 6.36 g/m*3 3 C 6.84167 km/h
810 04-12-2017 17:00:00 4.60833 C 6.36 g/m*3 3.13 C 6.425 km/h
811 04-12-2017 18:00:00 4.48333 C 6.3 g/m*3 2.9 C 6.69167 km/h
812 04-12-2017 19:00:00 4.34167 C 6.23 g/m*3 2.78 C 6.575 km/h
813 04-12-2017 20:00:00 4.2 C 6.18 g/m*3 4.2 C 2.13333 km/h
814 04-12-2017 21:00:00 3.28333 C 5.79 g/m*3 3.28 C 0.93333 km/h
815 04-12-2017 22:00:00 2.75833 C 5.62 g/m*3 2.76 C 2 km/h
816 04-12-2017 23:00:00 3.04167 C 5.77 g/m*3 3.04 C 2.53333 km/h
817 05-12-2017 00:00:00 3.46667 C 5.95 g/m*3 3.47 C 3.46667 km/h
818 05-12-2017 01:00:00 4.425 C 6.34 g/m*3 4.43 C 4.275 km/h
819 05-12-2017 02:00:00 4.50833 C 6.37 g/m*3 4.51 C 0.93333 km/h
820 05-12-2017 03:00:00 4.05 C 6.17 g/m*3 4.05 C 3.34167 km/h
821 05-12-2017 04:00:00 3.55 C 5.96 g/m*3 3.55 C 1.46667 km/h
822 05-12-2017 05:00:00 3.35 C 5.89 g/m*3 2.06 C 5.36667 km/h
823 05-12-2017 06:00:00 3.63333 C 5.96 g/m*3 1.41 C 8.45833 km/h
824 05-12-2017 07:00:00 4.09167 C 6.11 g/m*3 2.24 C 7.375 km/h
825 05-12-2017 08:00:00 4.28333 C 6.12 g/m*3 2.51 C 7.23333 km/h
Sensor: Nr:Datum:Temp:Abs-Feuchte:Windchill:Wind:
Aussen-T/F 826 05-12-2017 09:00:00 4.7 C 6.17 g/m*3 1.92 C 11.83333 km/h
827 05-12-2017 10:00:00 4.81667 C 6.18 g/m*3 1.8 C 13.3 km/h
828 05-12-2017 11:00:00 5.13333 C 6.27 g/m*3 2.66 C 10.76667 km/h
829 05-12-2017 12:00:00 5.425 C 6.34 g/m*3 2.71 C 12.36667 km/h
830 05-12-2017 13:00:00 5.64167 C 6.42 g/m*3 2.64 C 14.36667 km/h
831 05-12-2017 14:00:00 5.69167 C 6.42 g/m*3 3.15 C 11.7 km/h
832 05-12-2017 15:00:00 5.49167 C 6.42 g/m*3 3.5 C 8.88333 km/h
833 05-12-2017 16:00:00 5.325 C 6.39 g/m*3 3.68 C 7.39167 km/h
834 05-12-2017 17:00:00 5.28333 C 6.37 g/m*3 4.38 C 5.075 km/h
835 05-12-2017 18:00:00 5.3 C 6.37 g/m*3 3.44 C 8.19167 km/h
836 05-12-2017 19:00:00 5.25 C 6.34 g/m*3 4.14 C 5.625 km/h
837 05-12-2017 20:00:00 5.21667 C 6.34 g/m*3 5.22 C 4.80833 km/h
838 05-12-2017 21:00:00 5.13333 C 6.34 g/m*3 5.13 C 1.86667 km/h
839 05-12-2017 22:00:00 5.1 C 6.36 g/m*3 5.1 C 3.2 km/h
840 05-12-2017 23:00:00 5.09167 C 6.3 g/m*3 5.09 C 3.06667 km/h
841 06-12-2017 00:00:00 5.05 C 6.27 g/m*3 5.05 C 3.6 km/h
842 06-12-2017 01:00:00 5.025 C 6.26 g/m*3 5.03 C 3.46667 km/h
843 06-12-2017 02:00:00 5.01667 C 6.3 g/m*3 5.02 C 2.13333 km/h
844 06-12-2017 03:00:00 4.90833 C 6.28 g/m*3 4.91 C 0.93333 km/h
845 06-12-2017 04:00:00 5.00833 C 6.32 g/m*3 5.01 C 1.6 km/h
846 06-12-2017 05:00:00 5.1 C 6.36 g/m*3 5.1 C 1.86667 km/h
847 06-12-2017 06:00:00 5.21667 C 6.4 g/m*3 5.22 C 2 km/h
848 06-12-2017 07:00:00 5.33333 C 6.41 g/m*3 5.33 C 2.93333 km/h
849 06-12-2017 08:00:00 5.425 C 6.43 g/m*3 5.43 C 2.14167 km/h
850 06-12-2017 09:00:00 5.74167 C 6.47 g/m*3 4.49 C 6.28333 km/h
Sensor: Nr:Datum:Temp:Abs-Feuchte:Windchill:Wind:
Aussen-T/F 851 06-12-2017 10:00:00 6.19167 C 6.58 g/m*3 5.01 C 6.28333 km/h
852 06-12-2017 11:00:00 6.56667 C 6.68 g/m*3 4.99 C 7.91667 km/h
853 06-12-2017 12:00:00 6.875 C 6.75 g/m*3 4.99 C 9.56667 km/h
854 06-12-2017 13:00:00 7.1 C 6.79 g/m*3 5.4 C 8.88333 km/h
855 06-12-2017 14:00:00 7.14167 C 6.8 g/m*3 5.6 C 8.2 km/h
856 06-12-2017 15:00:00 7.06667 C 6.77 g/m*3 5.42 C 8.60833 km/h
857 06-12-2017 16:00:00 6.83333 C 6.74 g/m*3 6.83 C 4.54167 km/h
858 06-12-2017 17:00:00 6.51667 C 6.71 g/m*3 6.52 C 2.8 km/h
859 06-12-2017 18:00:00 6.24167 C 6.65 g/m*3 6.24 C 2.26667 km/h
860 06-12-2017 19:00:00 6.15833 C 6.61 g/m*3 6.16 C 1.86667 km/h
861 06-12-2017 20:00:00 5.96667 C 6.57 g/m*3 5.97 C 1.06667 km/h
862 06-12-2017 21:00:00 5.8 C 6.42 g/m*3 5.8 C 2.675 km/h
863 06-12-2017 22:00:00 5.7 C 6.28 g/m*3 5.7 C 0.4 km/h
864 06-12-2017 23:00:00 5.56667 C 6.12 g/m*3 5.57 C 0.8 km/h
865 07-12-2017 00:00:00 5.63333 C 5.93 g/m*3 5.63 C 3.60833 km/h
866 07-12-2017 01:00:00 5.70833 C 5.77 g/m*3 4.57 C 5.9 km/h
867 07-12-2017 02:00:00 5.11667 C 5.72 g/m*3 5.12 C 1.6 km/h
868 07-12-2017 03:00:00 3.15833 C 5.31 g/m*3 3.16 C 2.4 km/h
869 07-12-2017 04:00:00 1.66667 C 5 g/m*3 1.67 C 2.53333 km/h
870 07-12-2017 05:00:00 1.68333 C 5.11 g/m*3 1.68 C 3.89167 km/h
871 07-12-2017 06:00:00 2.75833 C 5.24 g/m*3 -0.74 C 13.43333 km/h
872 07-12-2017 07:00:00 2.33333 C 5 g/m*3 -0.65 C 10.5 km/h
873 07-12-2017 08:00:00 2.36667 C 5.01 g/m*3 0.49 C 6.575 km/h
874 07-12-2017 09:00:00 2.675 C 5.03 g/m*3 0.76 C 6.85 km/h
875 07-12-2017 10:00:00 2.975 C 4.96 g/m*3 0.13 C 10.49167 km/h
Sensor: Nr:Datum:Temp:Abs-Feuchte:Windchill:Wind:
Aussen-T/F 876 07-12-2017 11:00:00 2.99167 C 4.88 g/m*3 -0.95 C 16.36667 km/h
877 07-12-2017 12:00:00 3.20833 C 4.95 g/m*3 -0.04 C 12.63333 km/h
878 07-12-2017 13:00:00 4.45833 C 5.33 g/m*3 2.91 C 6.58333 km/h
879 07-12-2017 14:00:00 5.66667 C 5.55 g/m*3 3.77 C 8.60833 km/h
880 07-12-2017 15:00:00 5.86667 C 5.78 g/m*3 4.84 C 5.625 km/h
881 07-12-2017 16:00:00 6.4 C 6.18 g/m*3 5.5 C 5.49167 km/h
882 07-12-2017 17:00:00 6.91667 C 6.49 g/m*3 6.18 C 5.225 km/h
883 07-12-2017 18:00:00 7.14167 C 6.76 g/m*3 6.02 C 6.56667 km/h
884 07-12-2017 19:00:00 7.39167 C 6.93 g/m*3 6.03 C 7.65833 km/h
885 07-12-2017 20:00:00 7.36667 C 7.15 g/m*3 4.54 C 15.975 km/h
886 07-12-2017 21:00:00 7.025 C 7.13 g/m*3 3.49 C 21.19167 km/h
887 07-12-2017 22:00:00 7 C 7.15 g/m*3 3.37 C 22.11667 km/h
888 07-12-2017 23:00:00 7.20833 C 7.25 g/m*3 4.38 C 15.7 km/h
889 08-12-2017 00:00:00 7.33333 C 7.32 g/m*3 5.07 C 12.1 km/h
890 08-12-2017 01:00:00 6.75833 C 7.08 g/m*3 5.19 C 8.05 km/h
891 08-12-2017 02:00:00 5.975 C 6.74 g/m*3 4.71 C 6.43333 km/h
892 08-12-2017 03:00:00 5.59167 C 6.62 g/m*3 4.11 C 6.96667 km/h
893 08-12-2017 04:00:00 4.73333 C 6.2 g/m*3 4.73 C 3.88333 km/h
894 08-12-2017 05:00:00 3.6 C 5.81 g/m*3 3.6 C 2.66667 km/h
895 08-12-2017 06:00:00 2.81667 C 5.57 g/m*3 2.82 C 4.40833 km/h
896 08-12-2017 07:00:00 2.45833 C 5.44 g/m*3 2.46 C 2.8 km/h
897 08-12-2017 08:00:00 2.1 C 5.31 g/m*3 2.1 C 2 km/h
898 08-12-2017 09:00:00 2.16667 C 5.36 g/m*3 0.6 C 5.64167 km/h
899 08-12-2017 10:00:00 3.63333 C 5.63 g/m*3 0.45 C 12.76667 km/h
900 08-12-2017 11:00:00 4.35 C 5.61 g/m*3 1.89 C 9.95 km/h
Sensor: Nr:Datum:Temp:Abs-Feuchte:Windchill:Wind:
Aussen-T/F 901 08-12-2017 12:00:00 4.69167 C 5.57 g/m*3 2.02 C 11.3 km/h
902 08-12-2017 13:00:00 4.6 C 5.2 g/m*3 1.19 C 15.43333 km/h
903 08-12-2017 14:00:00 4.55833 C 4.99 g/m*3 1.22 C 14.9 km/h
904 08-12-2017 15:00:00 4.38333 C 5.1 g/m*3 0.46 C 18.65 km/h
905 08-12-2017 16:00:00 3.74167 C 5.13 g/m*3 0.59 C 12.76667 km/h
906 08-12-2017 17:00:00 2.89167 C 4.84 g/m*3 0.76 C 7.64167 km/h
907 08-12-2017 18:00:00 2.23333 C 4.93 g/m*3 -0.29 C 8.6 km/h
908 08-12-2017 19:00:00 1.775 C 4.91 g/m*3 -0.19 C 6.55833 km/h
909 08-12-2017 20:00:00 0.89167 C 4.66 g/m*3 0.89 C 3.34167 km/h
910 08-12-2017 21:00:00 0.30833 C 4.55 g/m*3 0.31 C 3.48333 km/h
911 08-12-2017 22:00:00 1.19167 C 4.62 g/m*3 -1.91 C 10.08333 km/h
912 08-12-2017 23:00:00 1.7 C 4.68 g/m*3 -1.31 C 10.1 km/h
913 09-12-2017 00:00:00 1.79167 C 4.7 g/m*3 -0.96 C 9.15 km/h
914 09-12-2017 01:00:00 1.80833 C 4.6 g/m*3 -0.63 C 8.05 km/h
915 09-12-2017 02:00:00 2.00833 C 4.5 g/m*3 -0.87 C 9.825 km/h
916 09-12-2017 03:00:00 1.425 C 4.26 g/m*3 -1.73 C 10.5 km/h
917 09-12-2017 04:00:00 1.04167 C 4.17 g/m*3 -2.94 C 13.96667 km/h
918 09-12-2017 05:00:00 0.5 C 4.09 g/m*3 -2.25 C 8.30833 km/h
919 09-12-2017 06:00:00 0.16667 C 4.07 g/m*3 -2.52 C 7.925 km/h
920 09-12-2017 07:00:00 0.05833 C 4.17 g/m*3 -2.77 C 8.33333 km/h
921 09-12-2017 08:00:00 0.21667 C 4.17 g/m*3 -2.51 C 8.075 km/h
922 09-12-2017 09:00:00 0.55 C 4.22 g/m*3 -2.85 C 10.75833 km/h
923 09-12-2017 10:00:00 1.19167 C 4.36 g/m*3 -2.76 C 13.96667 km/h
924 09-12-2017 11:00:00 1.65 C 4.48 g/m*3 -1.88 C 12.36667 km/h
925 09-12-2017 12:00:00 1.34167 C 4.64 g/m*3 -2.39 C 13.03333 km/h
Sensor: Nr:Datum:Temp:Abs-Feuchte:Windchill:Wind:
Aussen-T/F 926 09-12-2017 13:00:00 1.625 C 4.64 g/m*3 -2.47 C 15.3 km/h
927 09-12-2017 14:00:00 2.025 C 4.64 g/m*3 -2.55 C 19.04167 km/h
928 09-12-2017 15:00:00 2.01667 C 4.56 g/m*3 -2.37 C 17.7 km/h
929 09-12-2017 16:00:00 1.78333 C 4.48 g/m*3 -1.27 C 10.35833 km/h
930 09-12-2017 17:00:00 1.575 C 4.4 g/m*3 -2.11 C 13.03333 km/h
931 09-12-2017 18:00:00 1.34167 C 4.28 g/m*3 -2.28 C 12.5 km/h
932 09-12-2017 19:00:00 1.09167 C 4.3 g/m*3 -2.88 C 13.96667 km/h
933 09-12-2017 20:00:00 1.05 C 4.38 g/m*3 -2.28 C 10.9 km/h
934 09-12-2017 21:00:00 1.25 C 4.5 g/m*3 -1.12 C 7.51667 km/h
935 09-12-2017 22:00:00 1.50833 C 4.66 g/m*3 -1.14 C 8.6 km/h
936 09-12-2017 23:00:00 1.6 C 4.74 g/m*3 -1.74 C 11.425 km/h
937 10-12-2017 00:00:00 1.21667 C 4.53 g/m*3 -2.43 C 12.5 km/h
938 10-12-2017 01:00:00 1.35833 C 4.45 g/m*3 -2.63 C 14.36667 km/h
939 10-12-2017 02:00:00 1.55 C 4.48 g/m*3 -2.44 C 14.63333 km/h
940 10-12-2017 03:00:00 1.64167 C 4.56 g/m*3 -1.6 C 11.03333 km/h
941 10-12-2017 04:00:00 1.75833 C 4.61 g/m*3 -2.18 C 14.63333 km/h
942 10-12-2017 05:00:00 1.78333 C 4.61 g/m*3 -1.51 C 11.41667 km/h
943 10-12-2017 06:00:00 1.675 C 4.62 g/m*3 -0.67 C 7.66667 km/h
944 10-12-2017 07:00:00 1.09167 C 4.53 g/m*3 1.09 C 3.60833 km/h
945 10-12-2017 08:00:00 0.93333 C 4.59 g/m*3 0.93 C 3.86667 km/h
946 10-12-2017 09:00:00 1.575 C 4.66 g/m*3 1.58 C 3.20833 km/h
947 10-12-2017 10:00:00 1.65833 C 4.6 g/m*3 1.66 C 4.26667 km/h
948 10-12-2017 11:00:00 0.55 C 4.65 g/m*3 -1.35 C 5.89167 km/h
949 10-12-2017 12:00:00 -0.01667 C 4.53 g/m*3 -2.69 C 7.775 km/h
950 10-12-2017 13:00:00 -0.15 C 4.53 g/m*3 -2.37 C 6.43333 km/h
Sensor: Nr:Datum:Temp:Abs-Feuchte:Windchill:Wind:
Aussen-T/F 951 10-12-2017 14:00:00 0.14167 C 4.65 g/m*3 0.14 C 2.14167 km/h
952 10-12-2017 15:00:00 0.53333 C 4.78 g/m*3 0.53 C 0 km/h
953 10-12-2017 16:00:00 0.65833 C 4.82 g/m*3 0.66 C 0 km/h
954 10-12-2017 17:00:00 1.46667 C 5.16 g/m*3 -0.24 C 5.75833 km/h
955 10-12-2017 18:00:00 5.01667 C 6.33 g/m*3 0.92 C 21.45 km/h
956 10-12-2017 19:00:00 6.81667 C 6.46 g/m*3 2.63 C 27.49167 km/h
957 10-12-2017 20:00:00 7.21667 C 6.59 g/m*3 3.78 C 20.8 km/h
958 10-12-2017 21:00:00 6.46667 C 6.72 g/m*3 3.48 C 15.575 km/h
959 10-12-2017 22:00:00 6.63333 C 6.78 g/m*3 2.94 C 21.71667 km/h
960 10-12-2017 23:00:00 6.24167 C 6.58 g/m*3 3.56 C 13.16667 km/h
961 11-12-2017 00:00:00 5.91667 C 6.51 g/m*3 4.04 C 8.71667 km/h
962 11-12-2017 01:00:00 5 C 6.3 g/m*3 5 C 2.53333 km/h
963 11-12-2017 02:00:00 4.94167 C 6.31 g/m*3 4.94 C 1.46667 km/h
964 11-12-2017 03:00:00 4.85 C 6.32 g/m*3 4.85 C 1.33333 km/h
965 11-12-2017 04:00:00 4.85 C 6.32 g/m*3 4.85 C 0.66667 km/h
966 11-12-2017 05:00:00 4 C 6 g/m*3 4 C 0.93333 km/h
967 11-12-2017 06:00:00 3.76667 C 5.96 g/m*3 3.77 C 0 km/h
968 11-12-2017 07:00:00 3.96667 C 6.09 g/m*3 3.97 C 0 km/h
969 11-12-2017 08:00:00 4.26667 C 6.21 g/m*3 4.27 C 0 km/h
970 11-12-2017 09:00:00 4.64167 C 6.39 g/m*3 4.64 C 0.93333 km/h
971 11-12-2017 10:00:00 4.96667 C 6.58 g/m*3 4.97 C 4.41667 km/h
972 11-12-2017 11:00:00 6 C 7.04 g/m*3 3.87 C 9.94167 km/h
973 11-12-2017 12:00:00 6.95 C 7.49 g/m*3 5.68 C 6.98333 km/h
974 11-12-2017 13:00:00 7.30833 C 7.62 g/m*3 7.31 C 4.425 km/h
975 11-12-2017 14:00:00 7.59167 C 7.76 g/m*3 7.59 C 4.675 km/h
Sensor: Nr:Datum:Temp:Abs-Feuchte:Windchill:Wind:
Aussen-T/F 976 11-12-2017 15:00:00 7.375 C 7.62 g/m*3 7.38 C 2.4 km/h
977 11-12-2017 16:00:00 7.05 C 7.48 g/m*3 7.05 C 2.66667 km/h
978 11-12-2017 17:00:00 7.01667 C 7.48 g/m*3 7.02 C 4.81667 km/h
979 11-12-2017 18:00:00 7.41667 C 7.42 g/m*3 6.57 C 5.76667 km/h
980 11-12-2017 19:00:00 8.04167 C 7.35 g/m*3 7.06 C 6.55833 km/h
981 11-12-2017 20:00:00 7.81667 C 7.19 g/m*3 6.99 C 5.9 km/h
982 11-12-2017 21:00:00 7.25833 C 7.12 g/m*3 5.24 C 10.59167 km/h
983 11-12-2017 22:00:00 6.73333 C 6.75 g/m*3 3.58 C 17.3 km/h
984 11-12-2017 23:00:00 6.78333 C 6.65 g/m*3 4.57 C 11.15833 km/h
985 12-12-2017 00:00:00 6.66667 C 6.48 g/m*3 3.74 C 15.41667 km/h
986 12-12-2017 01:00:00 6.325 C 6.42 g/m*3 3.71 C 12.9 km/h
987 12-12-2017 02:00:00 4.425 C 5.65 g/m*3 0.55 C 18.375 km/h
988 12-12-2017 03:00:00 3.16667 C 5.09 g/m*3 -0.75 C 16.5 km/h
989 12-12-2017 04:00:00 3.00833 C 5.09 g/m*3 -0.67 C 14.76667 km/h
990 12-12-2017 05:00:00 3.13333 C 5.14 g/m*3 -0.21 C 13.03333 km/h
991 12-12-2017 06:00:00 3.35 C 5.17 g/m*3 -0.36 C 15.43333 km/h
992 12-12-2017 07:00:00 3.125 C 5.05 g/m*3 -0.34 C 13.69167 km/h
993 12-12-2017 08:00:00 2.54167 C 4.93 g/m*3 0.12 C 8.46667 km/h
994 12-12-2017 09:00:00 3.03333 C 5.13 g/m*3 -0.5 C 13.96667 km/h
995 12-12-2017 10:00:00 3.75 C 5.26 g/m*3 0.2 C 15.03333 km/h
996 12-12-2017 11:00:00 4.45 C 5.43 g/m*3 1.24 C 13.96667 km/h
997 12-12-2017 12:00:00 4.55 C 5.58 g/m*3 1.88 C 11.15833 km/h
998 12-12-2017 13:00:00 4.6 C 5.59 g/m*3 1.51 C 13.425 km/h
999 12-12-2017 14:00:00 4.85833 C 5.66 g/m*3 2.36 C 10.625 km/h
1000 12-12-2017 15:00:00 4.38333 C 5.48 g/m*3 1.85 C 10.34167 km/h
Sensor: Nr:Datum:Temp:Abs-Feuchte:Windchill:Wind:
Aussen-T/F 1001 12-12-2017 16:00:00 4.175 C 5.23 g/m*3 1.42 C 11.15833 km/h
1002 12-12-2017 17:00:00 3.63333 C 5.11 g/m*3 1.07 C 9.80833 km/h
1003 12-12-2017 18:00:00 3.49167 C 5.13 g/m*3 0.44 C 11.94167 km/h
1004 12-12-2017 19:00:00 3.225 C 5.05 g/m*3 1.27 C 7.25 km/h
1005 12-12-2017 20:00:00 3.00833 C 5.05 g/m*3 3.01 C 4.55 km/h
1006 12-12-2017 21:00:00 2.9 C 5.06 g/m*3 2.9 C 1.46667 km/h
1007 12-12-2017 22:00:00 2 C 4.9 g/m*3 2 C 3.33333 km/h
1008 12-12-2017 23:00:00 1.55 C 4.87 g/m*3 1.55 C 4.4 km/h
1009 13-12-2017 00:00:00 2.36667 C 4.98 g/m*3 0.45 C 6.7 km/h
1010 13-12-2017 01:00:00 2.8 C 5.05 g/m*3 2.8 C 1.73333 km/h
1011 13-12-2017 02:00:00 2.33333 C 5.03 g/m*3 2.33 C 1.2 km/h
1012 13-12-2017 03:00:00 1.91667 C 5.01 g/m*3 0.02 C 6.43333 km/h
1013 13-12-2017 04:00:00 3.125 C 5.18 g/m*3 3.13 C 4.40833 km/h
1014 13-12-2017 05:00:00 2.71667 C 5.07 g/m*3 2.72 C 3.20833 km/h
1015 13-12-2017 06:00:00 2.56667 C 5.2 g/m*3 2.57 C 1.86667 km/h
1016 13-12-2017 07:00:00 3.29167 C 5.31 g/m*3 2.05 C 5.23333 km/h
1017 13-12-2017 08:00:00 3.925 C 5.36 g/m*3 3.93 C 4.54167 km/h
1018 13-12-2017 09:00:00 4.50833 C 5.46 g/m*3 3.24 C 5.76667 km/h
1019 13-12-2017 10:00:00 4.73333 C 5.54 g/m*3 3.4 C 6.04167 km/h
1020 13-12-2017 11:00:00 4.8 C 5.61 g/m*3 3.22 C 6.85 km/h
1021 13-12-2017 12:00:00 4.84167 C 5.94 g/m*3 3.16 C 7.23333 km/h
1022 13-12-2017 13:00:00 4.425 C 5.91 g/m*3 2.2 C 9 km/h
1023 13-12-2017 14:00:00 3.525 C 5.71 g/m*3 3.53 C 4.95833 km/h
1024 13-12-2017 15:00:00 3.225 C 5.67 g/m*3 3.23 C 4.26667 km/h
1025 13-12-2017 16:00:00 3.2 C 5.68 g/m*3 3.2 C 4.14167 km/h
Sensor: Nr:Datum:Temp:Abs-Feuchte:Windchill:Wind:
Aussen-T/F 1026 13-12-2017 17:00:00 3.325 C 5.77 g/m*3 3.33 C 4.825 km/h
1027 13-12-2017 18:00:00 3.925 C 6.01 g/m*3 3.93 C 2.8 km/h
1028 13-12-2017 19:00:00 4.4 C 6.2 g/m*3 4.4 C 3.33333 km/h
1029 13-12-2017 20:00:00 5.30833 C 6.5 g/m*3 3.16 C 9.4 km/h
1030 13-12-2017 21:00:00 5.46667 C 6.41 g/m*3 4 C 6.84167 km/h
1031 13-12-2017 22:00:00 5.31667 C 6.35 g/m*3 3.71 C 7.24167 km/h
1032 13-12-2017 23:00:00 5.54167 C 6.53 g/m*3 1.95 C 18.36667 km/h
1033 14-12-2017 00:00:00 5 C 6.4 g/m*3 3.16 C 7.91667 km/h
1034 14-12-2017 01:00:00 4.69167 C 6.32 g/m*3 3.45 C 5.76667 km/h
1035 14-12-2017 02:00:00 4.8 C 6.31 g/m*3 2.43 C 9.93333 km/h
1036 14-12-2017 03:00:00 4.75833 C 6.17 g/m*3 2.98 C 7.525 km/h
1037 14-12-2017 04:00:00 4.8 C 6.18 g/m*3 1.48 C 15.16667 km/h
1038 14-12-2017 05:00:00 4.375 C 5.66 g/m*3 0.31 C 19.70833 km/h
1039 14-12-2017 06:00:00 4.38333 C 5.33 g/m*3 -0.28 C 25.06667 km/h
1040 14-12-2017 07:00:00 4.35833 C 5.1 g/m*3 0.21 C 20.375 km/h
1041 14-12-2017 08:00:00 4.24167 C 5.22 g/m*3 1.51 C 11.14167 km/h
1042 14-12-2017 09:00:00 4.84167 C 5.63 g/m*3 1.29 C 16.75833 km/h
1043 14-12-2017 10:00:00 5.30833 C 5.91 g/m*3 1.68 C 18.23333 km/h
1044 14-12-2017 11:00:00 5.16667 C 6.06 g/m*3 1.95 C 15.025 km/h
1045 14-12-2017 12:00:00 5.60833 C 6.11 g/m*3 1.64 C 21.70833 km/h
1046 14-12-2017 13:00:00 5.14167 C 6.16 g/m*3 1.8 C 15.83333 km/h
1047 14-12-2017 14:00:00 4.61667 C 6.1 g/m*3 1.58 C 13.16667 km/h
1048 14-12-2017 15:00:00 4.36667 C 6.04 g/m*3 1.82 C 10.35 km/h
1049 14-12-2017 16:00:00 4.26667 C 6.04 g/m*3 4.27 C 3.075 km/h
1050 14-12-2017 17:00:00 4.13333 C 6.05 g/m*3 4.13 C 4.94167 km/h
Sensor: Nr:Datum:Temp:Abs-Feuchte:Windchill:Wind:
Aussen-T/F 1051 14-12-2017 18:00:00 4.33333 C 6.06 g/m*3 4.33 C 3.875 km/h
1052 14-12-2017 19:00:00 4.34167 C 6.04 g/m*3 4.34 C 3.48333 km/h
1053 14-12-2017 20:00:00 3.825 C 5.81 g/m*3 3.83 C 1.86667 km/h
1054 14-12-2017 21:00:00 4.225 C 6.02 g/m*3 4.22 C 0.66667 km/h
1055 14-12-2017 22:00:00 4.3 C 6.1 g/m*3 4.3 C 0.13333 km/h
1056 14-12-2017 23:00:00 4.18333 C 6.07 g/m*3 4.18 C 1.46667 km/h
1057 15-12-2017 00:00:00 3.65833 C 5.89 g/m*3 3.66 C 0.4 km/h
1058 15-12-2017 01:00:00 3.48333 C 5.88 g/m*3 3.48 C 0 km/h
1059 15-12-2017 02:00:00 3.49167 C 5.9 g/m*3 3.49 C 0.66667 km/h
1060 15-12-2017 03:00:00 3.43333 C 5.88 g/m*3 1.32 C 7.925 km/h
1061 15-12-2017 04:00:00 3.03333 C 5.69 g/m*3 0.39 C 9.675 km/h
1062 15-12-2017 05:00:00 1.90833 C 5.23 g/m*3 1.91 C 2.26667 km/h
1063 15-12-2017 06:00:00 1.5 C 5.14 g/m*3 1.5 C 2.8 km/h
1064 15-12-2017 07:00:00 2.075 C 5.36 g/m*3 2.08 C 0.13333 km/h
1065 15-12-2017 08:00:00 2.36667 C 5.48 g/m*3 2.37 C 0.26667 km/h
1066 15-12-2017 09:00:00 3.11667 C 5.78 g/m*3 3.12 C 1.33333 km/h
1067 15-12-2017 10:00:00 3 C 5.71 g/m*3 3 C 0.66667 km/h
1068 15-12-2017 11:00:00 3.00833 C 5.71 g/m*3 3.01 C 1.33333 km/h
1069 15-12-2017 12:00:00 3.20833 C 5.79 g/m*3 3.21 C 1.46667 km/h
1070 15-12-2017 13:00:00 3.68333 C 5.97 g/m*3 3.68 C 3.475 km/h
1071 15-12-2017 14:00:00 4 C 6.05 g/m*3 2.47 C 6.29167 km/h
1072 15-12-2017 15:00:00 4.04167 C 5.99 g/m*3 2.06 C 7.8 km/h
1073 15-12-2017 16:00:00 3.3 C 5.65 g/m*3 3.3 C 3.075 km/h
1074 15-12-2017 17:00:00 2.79167 C 5.58 g/m*3 2.79 C 0 km/h
1075 15-12-2017 18:00:00 2.73333 C 5.58 g/m*3 2.73 C 0 km/h
Sensor: Nr:Datum:Temp:Abs-Feuchte:Windchill:Wind:
Aussen-T/F 1076 15-12-2017 19:00:00 2.35833 C 5.46 g/m*3 2.36 C 0 km/h
1077 15-12-2017 20:00:00 2.675 C 5.58 g/m*3 2.68 C 0 km/h
1078 15-12-2017 21:00:00 2.875 C 5.66 g/m*3 2.88 C 0 km/h
1079 15-12-2017 22:00:00 2.95 C 5.69 g/m*3 2.95 C 0 km/h
1080 15-12-2017 23:00:00 2.975 C 5.72 g/m*3 2.98 C 0 km/h
1081 16-12-2017 00:00:00 2.96667 C 5.75 g/m*3 2.97 C 0 km/h
1082 16-12-2017 01:00:00 2.85 C 5.71 g/m*3 2.85 C 0 km/h
1083 16-12-2017 02:00:00 2.38333 C 5.51 g/m*3 2.38 C 0 km/h
1084 16-12-2017 03:00:00 2.075 C 5.41 g/m*3 2.08 C 0.53333 km/h
1085 16-12-2017 04:00:00 2.36667 C 5.53 g/m*3 2.37 C 0.93333 km/h
1086 16-12-2017 05:00:00 2.475 C 5.57 g/m*3 2.48 C 0 km/h
1087 16-12-2017 06:00:00 2.54167 C 5.59 g/m*3 2.54 C 0 km/h
1088 16-12-2017 07:00:00 2.55833 C 5.6 g/m*3 2.56 C 0 km/h
1089 16-12-2017 08:00:00 2.61667 C 5.62 g/m*3 2.62 C 0 km/h
1090 16-12-2017 09:00:00 2.86667 C 5.72 g/m*3 2.87 C 0 km/h
1091 16-12-2017 10:00:00 3.18333 C 5.84 g/m*3 3.18 C 3.06667 km/h
1092 16-12-2017 11:00:00 3.58333 C 6 g/m*3 3.58 C 0.53333 km/h
1093 16-12-2017 12:00:00 3.85 C 6.11 g/m*3 3.85 C 1.6 km/h
1094 16-12-2017 13:00:00 4.16667 C 6.18 g/m*3 4.17 C 1.46667 km/h
1095 16-12-2017 14:00:00 4.26667 C 6.2 g/m*3 4.27 C 3.73333 km/h
1096 16-12-2017 15:00:00 3.83333 C 5.93 g/m*3 3.83 C 3.61667 km/h
1097 16-12-2017 16:00:00 3.23333 C 5.68 g/m*3 3.23 C 1.73333 km/h
1098 16-12-2017 17:00:00 3.19167 C 5.7 g/m*3 3.19 C 2.93333 km/h
1099 16-12-2017 18:00:00 3.19167 C 5.66 g/m*3 3.19 C 3.2 km/h
1100 16-12-2017 19:00:00 3.09167 C 5.62 g/m*3 3.09 C 3.20833 km/h
Sensor: Nr:Datum:Temp:Abs-Feuchte:Windchill:Wind:
Aussen-T/F 1101 16-12-2017 20:00:00 2.94167 C 5.61 g/m*3 2.94 C 0.53333 km/h
1102 16-12-2017 21:00:00 2.9 C 5.62 g/m*3 2.9 C 2 km/h
1103 16-12-2017 22:00:00 2.95833 C 5.63 g/m*3 2.96 C 1.06667 km/h
1104 16-12-2017 23:00:00 2.90833 C 5.61 g/m*3 2.91 C 2.4 km/h
1105 17-12-2017 00:00:00 2.85 C 5.59 g/m*3 2.85 C 3.73333 km/h
1106 17-12-2017 01:00:00 2.84167 C 5.59 g/m*3 2.84 C 2.26667 km/h
1107 17-12-2017 02:00:00 2.875 C 5.6 g/m*3 2.88 C 1.6 km/h
1108 17-12-2017 03:00:00 2.91667 C 5.59 g/m*3 1.17 C 6.44167 km/h
1109 17-12-2017 04:00:00 3 C 5.54 g/m*3 3 C 4.95833 km/h
1110 17-12-2017 05:00:00 2.9 C 5.41 g/m*3 1.35 C 5.89167 km/h
1111 17-12-2017 06:00:00 2.81667 C 5.34 g/m*3 1.36 C 5.61667 km/h
1112 17-12-2017 07:00:00 2.73333 C 5.28 g/m*3 1.05 C 6.18333 km/h
1113 17-12-2017 08:00:00 2.54167 C 5.22 g/m*3 2.54 C 3.6 km/h
1114 17-12-2017 09:00:00 2.5 C 5.3 g/m*3 2.5 C 2.8 km/h
1115 17-12-2017 10:00:00 2.60833 C 5.42 g/m*3 1.17 C 5.475 km/h
1116 17-12-2017 11:00:00 3.04167 C 5.57 g/m*3 1.23 C 6.7 km/h
1117 17-12-2017 12:00:00 3.73333 C 5.76 g/m*3 3.73 C 2.8 km/h
1118 17-12-2017 13:00:00 4.04167 C 5.82 g/m*3 4.04 C 1.46667 km/h
1119 17-12-2017 14:00:00 4.275 C 5.88 g/m*3 4.28 C 0 km/h
1120 17-12-2017 15:00:00 4.31667 C 5.9 g/m*3 4.32 C 0 km/h
1121 17-12-2017 16:00:00 3.90833 C 5.71 g/m*3 3.91 C 2.26667 km/h
1122 17-12-2017 17:00:00 3.56667 C 5.53 g/m*3 3.57 C 2.66667 km/h
1123 17-12-2017 18:00:00 3.06667 C 5.45 g/m*3 3.07 C 2.53333 km/h
1124 17-12-2017 19:00:00 2.5 C 5.33 g/m*3 2.5 C 2.4 km/h
1125 17-12-2017 20:00:00 2.35 C 5.3 g/m*3 2.35 C 2.8 km/h
Sensor: Nr:Datum:Temp:Abs-Feuchte:Windchill:Wind:
Aussen-T/F 1126 17-12-2017 21:00:00 2.43333 C 5.27 g/m*3 2.43 C 4.69167 km/h
1127 17-12-2017 22:00:00 2.65 C 5.3 g/m*3 -0.13 C 9.93333 km/h
1128 17-12-2017 23:00:00 2.78333 C 5.24 g/m*3 0.64 C 7.64167 km/h
1129 18-12-2017 00:00:00 2.85 C 5.15 g/m*3 0.37 C 8.875 km/h
1130 18-12-2017 01:00:00 2.775 C 5.08 g/m*3 0.18 C 9.26667 km/h
1131 18-12-2017 02:00:00 1.78333 C 5 g/m*3 1.78 C 3.60833 km/h
1132 18-12-2017 03:00:00 1.125 C 4.94 g/m*3 1.13 C 0.13333 km/h
1133 18-12-2017 04:00:00 1.01667 C 4.94 g/m*3 1.02 C 0.26667 km/h
1134 18-12-2017 05:00:00 0.91667 C 4.95 g/m*3 0.92 C 0 km/h
1135 18-12-2017 06:00:00 0.9 C 4.95 g/m*3 0.9 C 0 km/h
1136 18-12-2017 07:00:00 0.9 C 4.95 g/m*3 0.9 C 0 km/h
1137 18-12-2017 08:00:00 0.91667 C 4.95 g/m*3 0.92 C 0.13333 km/h
1138 18-12-2017 09:00:00 1.01667 C 4.99 g/m*3 1.02 C 0 km/h
1139 18-12-2017 10:00:00 1.225 C 5.09 g/m*3 1.23 C 0 km/h
1140 18-12-2017 11:00:00 1.73333 C 5.29 g/m*3 1.73 C 0 km/h
1141 18-12-2017 12:00:00 2.175 C 5.45 g/m*3 2.17 C 0.8 km/h
1142 18-12-2017 13:00:00 2.425 C 5.52 g/m*3 2.42 C 0.13333 km/h
1143 18-12-2017 14:00:00 2.075 C 5.38 g/m*3 2.08 C 0.4 km/h
1144 18-12-2017 15:00:00 2.175 C 5.44 g/m*3 2.17 C 0.8 km/h
1145 18-12-2017 16:00:00 1.88333 C 5.32 g/m*3 1.88 C 0.13333 km/h
1146 18-12-2017 17:00:00 1.74167 C 5.29 g/m*3 1.74 C 0.13333 km/h
1147 18-12-2017 18:00:00 1.7 C 5.28 g/m*3 1.7 C 0 km/h
1148 18-12-2017 19:00:00 1.7 C 5.28 g/m*3 1.7 C 0 km/h
1149 18-12-2017 20:00:00 1.7 C 5.28 g/m*3 1.7 C 0 km/h
1150 18-12-2017 21:00:00 1.74167 C 5.3 g/m*3 1.74 C 0 km/h
Sensor: Nr:Datum:Temp:Abs-Feuchte:Windchill:Wind:
Aussen-T/F 1151 18-12-2017 22:00:00 1.79167 C 5.31 g/m*3 1.79 C 0 km/h
1152 18-12-2017 23:00:00 1.8 C 5.32 g/m*3 1.8 C 0 km/h
1153 19-12-2017 00:00:00 1.8 C 5.32 g/m*3 1.8 C 0 km/h
1154 19-12-2017 01:00:00 1.84167 C 5.33 g/m*3 1.84 C 0 km/h
1155 19-12-2017 02:00:00 1.9 C 5.35 g/m*3 1.9 C 0 km/h
1156 19-12-2017 03:00:00 1.9 C 5.35 g/m*3 1.9 C 0 km/h
1157 19-12-2017 04:00:00 2.03333 C 5.4 g/m*3 2.03 C 0 km/h
1158 19-12-2017 05:00:00 2.16667 C 5.45 g/m*3 2.17 C 0.13333 km/h
1159 19-12-2017 06:00:00 2.23333 C 5.48 g/m*3 2.23 C 0 km/h
1160 19-12-2017 07:00:00 2.29167 C 5.5 g/m*3 2.29 C 0 km/h
1161 19-12-2017 08:00:00 2.35 C 5.52 g/m*3 2.35 C 0 km/h
1162 19-12-2017 09:00:00 2.79167 C 5.7 g/m*3 2.79 C 0 km/h
1163 19-12-2017 10:00:00 3.175 C 5.88 g/m*3 3.18 C 0.8 km/h
1164 19-12-2017 11:00:00 3.35 C 5.93 g/m*3 3.35 C 2 km/h
1165 19-12-2017 12:00:00 3.75 C 6.09 g/m*3 3.75 C 2.93333 km/h
1166 19-12-2017 13:00:00 4.08333 C 6.22 g/m*3 4.08 C 3.73333 km/h
1167 19-12-2017 14:00:00 4.525 C 6.4 g/m*3 4.53 C 2.13333 km/h
1168 19-12-2017 15:00:00 4.65833 C 6.44 g/m*3 4.66 C 0.13333 km/h
1169 19-12-2017 16:00:00 4.59167 C 6.42 g/m*3 4.59 C 0.13333 km/h
1170 19-12-2017 17:00:00 4.36667 C 6.32 g/m*3 4.37 C 0 km/h
1171 19-12-2017 18:00:00 4.35833 C 6.32 g/m*3 4.36 C 0 km/h
1172 19-12-2017 19:00:00 4.325 C 6.3 g/m*3 4.33 C 1.2 km/h
1173 19-12-2017 20:00:00 4.33333 C 6.31 g/m*3 4.33 C 0.8 km/h
1174 19-12-2017 21:00:00 4.45833 C 6.36 g/m*3 4.46 C 0.13333 km/h
1175 19-12-2017 22:00:00 4.575 C 6.41 g/m*3 4.58 C 1.06667 km/h
Sensor: Nr:Datum:Temp:Abs-Feuchte:Windchill:Wind:
Aussen-T/F 1176 19-12-2017 23:00:00 4.675 C 6.49 g/m*3 4.68 C 3.33333 km/h
1177 20-12-2017 00:00:00 4.7 C 6.48 g/m*3 4.7 C 3.46667 km/h
1178 20-12-2017 01:00:00 4.7 C 6.46 g/m*3 4.7 C 1.2 km/h
1179 20-12-2017 02:00:00 4.7 C 6.46 g/m*3 4.7 C 0.53333 km/h
1180 20-12-2017 03:00:00 4.71667 C 6.47 g/m*3 4.72 C 0.8 km/h
1181 20-12-2017 04:00:00 4.8 C 6.5 g/m*3 4.8 C 2.8 km/h
1182 20-12-2017 05:00:00 4.8 C 6.5 g/m*3 4.8 C 0.93333 km/h
1183 20-12-2017 06:00:00 4.8 C 6.5 g/m*3 4.8 C 0 km/h
1184 20-12-2017 07:00:00 4.8 C 6.54 g/m*3 4.8 C 0 km/h
1185 20-12-2017 08:00:00 4.86667 C 6.53 g/m*3 4.87 C 0.53333 km/h
1186 20-12-2017 09:00:00 5.04167 C 6.65 g/m*3 5.04 C 0.53333 km/h
1187 20-12-2017 10:00:00 5.30833 C 6.8 g/m*3 5.31 C 1.2 km/h
1188 20-12-2017 11:00:00 5.69167 C 6.97 g/m*3 5.69 C 3.33333 km/h
1189 20-12-2017 12:00:00 5.98333 C 7.11 g/m*3 5.98 C 2.4 km/h
1190 20-12-2017 13:00:00 6.35 C 7.28 g/m*3 6.35 C 2.8 km/h
1191 20-12-2017 14:00:00 6.475 C 7.34 g/m*3 6.48 C 1.6 km/h
1192 20-12-2017 15:00:00 6.59167 C 7.39 g/m*3 6.59 C 0.66667 km/h
1193 20-12-2017 16:00:00 6.50833 C 7.35 g/m*3 6.51 C 0 km/h
1194 20-12-2017 17:00:00 6.34167 C 7.27 g/m*3 6.34 C 0 km/h
1195 20-12-2017 18:00:00 6.3 C 7.25 g/m*3 6.3 C 0.13333 km/h
1196 20-12-2017 19:00:00 6.36667 C 7.29 g/m*3 6.37 C 0.53333 km/h
1197 20-12-2017 20:00:00 6.4 C 7.3 g/m*3 6.4 C 0.26667 km/h
1198 20-12-2017 21:00:00 6.43333 C 7.32 g/m*3 6.43 C 0.26667 km/h
1199 20-12-2017 22:00:00 6.50833 C 7.35 g/m*3 6.51 C 0.8 km/h
1200 20-12-2017 23:00:00 6.56667 C 7.38 g/m*3 6.57 C 2.4 km/h
Sensor: Nr:Datum:Temp:Abs-Feuchte:Windchill:Wind:
Aussen-T/F 1201 21-12-2017 00:00:00 6.61667 C 7.41 g/m*3 6.62 C 1.6 km/h
1202 21-12-2017 01:00:00 6.7 C 7.45 g/m*3 6.7 C 2.93333 km/h
1203 21-12-2017 02:00:00 6.80833 C 7.5 g/m*3 6.81 C 3.61667 km/h
1204 21-12-2017 03:00:00 6.84167 C 7.52 g/m*3 6.84 C 2.93333 km/h
1205 21-12-2017 04:00:00 6.8 C 7.5 g/m*3 6.8 C 4 km/h
1206 21-12-2017 05:00:00 6.775 C 7.48 g/m*3 6.78 C 1.86667 km/h
1207 21-12-2017 06:00:00 6.7 C 7.45 g/m*3 6.7 C 0.4 km/h
1208 21-12-2017 07:00:00 6.725 C 7.46 g/m*3 6.73 C 3.60833 km/h
1209 21-12-2017 08:00:00 6.83333 C 7.51 g/m*3 6.13 C 5.09167 km/h
1210 21-12-2017 09:00:00 7.05 C 7.62 g/m*3 7.05 C 4.69167 km/h
1211 21-12-2017 10:00:00 7.3 C 7.74 g/m*3 7.3 C 4.13333 km/h
1212 21-12-2017 11:00:00 7.64167 C 7.92 g/m*3 7.64 C 4 km/h
1213 21-12-2017 12:00:00 7.84167 C 7.99 g/m*3 7.84 C 3.6 km/h
1214 21-12-2017 13:00:00 8.11667 C 8.1 g/m*3 7.55 C 5.21667 km/h
1215 21-12-2017 14:00:00 8.31667 C 8.18 g/m*3 8.32 C 4.00833 km/h
1216 21-12-2017 15:00:00 8.475 C 8.27 g/m*3 8.48 C 2.66667 km/h
1217 21-12-2017 16:00:00 8.35 C 8.2 g/m*3 8.35 C 2.80833 km/h
1218 21-12-2017 17:00:00 8.33333 C 8.19 g/m*3 8.33 C 4 km/h
1219 21-12-2017 18:00:00 8.29167 C 8.17 g/m*3 8.29 C 2.26667 km/h
1220 21-12-2017 19:00:00 8.2 C 8.12 g/m*3 8.2 C 0.66667 km/h
1221 21-12-2017 20:00:00 8.11667 C 8.08 g/m*3 8.12 C 3.33333 km/h
1222 21-12-2017 21:00:00 7.975 C 8.01 g/m*3 7.98 C 4.14167 km/h
1223 21-12-2017 22:00:00 7.76667 C 7.9 g/m*3 7.77 C 2.94167 km/h
1224 21-12-2017 23:00:00 7.825 C 7.96 g/m*3 7.83 C 4 km/h
1225 22-12-2017 00:00:00 7.525 C 7.8 g/m*3 7.53 C 2.26667 km/h
Sensor: Nr:Datum:Temp:Abs-Feuchte:Windchill:Wind:
Aussen-T/F 1226 22-12-2017 01:00:00 7.86667 C 7.99 g/m*3 7.87 C 1.33333 km/h
1227 22-12-2017 02:00:00 8.125 C 8.17 g/m*3 8.13 C 1.2 km/h
1228 22-12-2017 03:00:00 8.21667 C 8.2 g/m*3 8.22 C 0 km/h
1229 22-12-2017 04:00:00 8.05 C 8.13 g/m*3 8.05 C 0 km/h
1230 22-12-2017 05:00:00 8.14167 C 8.18 g/m*3 8.14 C 2.675 km/h
1231 22-12-2017 06:00:00 8.39167 C 8.31 g/m*3 8.39 C 4.26667 km/h
1232 22-12-2017 07:00:00 8.375 C 8.3 g/m*3 8.38 C 2.93333 km/h
1233 22-12-2017 08:00:00 8.31667 C 8.27 g/m*3 8.32 C 0.66667 km/h
1234 22-12-2017 09:00:00 8.65833 C 8.45 g/m*3 8.66 C 2.53333 km/h
1235 22-12-2017 10:00:00 8.975 C 8.63 g/m*3 8.98 C 3.6 km/h
1236 22-12-2017 11:00:00 9.24167 C 8.77 g/m*3 9.24 C 3.08333 km/h
1237 22-12-2017 12:00:00 9.35833 C 8.84 g/m*3 9.36 C 1.46667 km/h
1238 22-12-2017 13:00:00 9.60833 C 8.98 g/m*3 9.61 C 0.66667 km/h
1239 22-12-2017 14:00:00 9.79167 C 9.09 g/m*3 9.79 C 0.13333 km/h
1240 22-12-2017 15:00:00 9.7 C 9.03 g/m*3 9.7 C 0.53333 km/h
1241 22-12-2017 16:00:00 9.6 C 8.98 g/m*3 9.6 C 0.53333 km/h
1242 22-12-2017 17:00:00 9.40833 C 8.87 g/m*3 9.41 C 0.53333 km/h
1243 22-12-2017 18:00:00 9.36667 C 8.84 g/m*3 9.37 C 0.66667 km/h
1244 22-12-2017 19:00:00 9.275 C 8.79 g/m*3 9.28 C 1.2 km/h
1245 22-12-2017 20:00:00 9.10833 C 8.69 g/m*3 9.11 C 0.26667 km/h
1246 22-12-2017 21:00:00 8.91667 C 8.59 g/m*3 8.92 C 0 km/h
1247 22-12-2017 22:00:00 8.875 C 8.53 g/m*3 8.88 C 0 km/h
1248 22-12-2017 23:00:00 8.60833 C 8.38 g/m*3 8.61 C 0 km/h
1249 23-12-2017 00:00:00 8.4 C 8.29 g/m*3 8.4 C 0 km/h
1250 23-12-2017 01:00:00 8.31667 C 8.27 g/m*3 8.32 C 0.66667 km/h
Sensor: Nr:Datum:Temp:Abs-Feuchte:Windchill:Wind:
Aussen-T/F 1251 23-12-2017 02:00:00 8.41667 C 8.32 g/m*3 8.42 C 2.275 km/h
1252 23-12-2017 03:00:00 8.29167 C 8.26 g/m*3 8.29 C 0.4 km/h
1253 23-12-2017 04:00:00 8.2 C 8.21 g/m*3 8.2 C 1.46667 km/h
1254 23-12-2017 05:00:00 8.2 C 8.14 g/m*3 8.2 C 0.13333 km/h
1255 23-12-2017 06:00:00 8.125 C 8.08 g/m*3 8.13 C 1.86667 km/h
1256 23-12-2017 07:00:00 8.1 C 8.07 g/m*3 8.1 C 1.2 km/h
1257 23-12-2017 08:00:00 8.1 C 8.07 g/m*3 8.1 C 1.33333 km/h
1258 23-12-2017 09:00:00 8.14167 C 8.09 g/m*3 8.14 C 2.675 km/h
1259 23-12-2017 10:00:00 8.33333 C 8.14 g/m*3 8.33 C 2.93333 km/h
1260 23-12-2017 11:00:00 8.68333 C 8.16 g/m*3 8.68 C 4.80833 km/h
1261 23-12-2017 12:00:00 9.15 C 8.14 g/m*3 8.37 C 6.45 km/h
1262 23-12-2017 13:00:00 9.64167 C 8.27 g/m*3 8.78 C 7.11667 km/h
1263 23-12-2017 14:00:00 9.74167 C 8.33 g/m*3 9.32 C 5.49167 km/h
1264 23-12-2017 15:00:00 9.7 C 8.37 g/m*3 9.35 C 5.21667 km/h
1265 23-12-2017 16:00:00 9.48333 C 8.29 g/m*3 9.48 C 4.00833 km/h
1266 23-12-2017 17:00:00 9.19167 C 8.12 g/m*3 9.19 C 4.54167 km/h
1267 23-12-2017 18:00:00 9.1 C 8.07 g/m*3 9.1 C 4.40833 km/h
1268 23-12-2017 19:00:00 9.08333 C 8.08 g/m*3 9.08 C 3.20833 km/h
1269 23-12-2017 20:00:00 8.95 C 7.96 g/m*3 8.49 C 5.225 km/h
1270 23-12-2017 21:00:00 8.94167 C 7.88 g/m*3 8.49 C 5.20833 km/h
1271 23-12-2017 22:00:00 9.075 C 7.88 g/m*3 8.36 C 6.16667 km/h
1272 23-12-2017 23:00:00 8.96667 C 7.83 g/m*3 7.81 C 7.93333 km/h
1273 24-12-2017 00:00:00 9 C 7.76 g/m*3 7.15 C 11.7 km/h
1274 24-12-2017 01:00:00 8.925 C 7.77 g/m*3 7.17 C 11.01667 km/h
1275 24-12-2017 02:00:00 8.80833 C 7.76 g/m*3 7.53 C 8.35 km/h
Sensor: Nr:Datum:Temp:Abs-Feuchte:Windchill:Wind:
Aussen-T/F 1276 24-12-2017 03:00:00 8.8 C 7.8 g/m*3 7.26 C 9.66667 km/h
1277 24-12-2017 04:00:00 8.8 C 7.81 g/m*3 7.42 C 8.86667 km/h
1278 24-12-2017 05:00:00 8.88333 C 7.83 g/m*3 6.89 C 12.49167 km/h
1279 24-12-2017 06:00:00 8.9 C 7.85 g/m*3 7.56 C 8.725 km/h
1280 24-12-2017 07:00:00 8.9 C 7.84 g/m*3 7.21 C 10.625 km/h
1281 24-12-2017 08:00:00 8.9 C 7.87 g/m*3 7.45 C 9.275 km/h
1282 24-12-2017 09:00:00 8.9 C 7.88 g/m*3 7.67 C 8.2 km/h
1283 24-12-2017 10:00:00 9.05833 C 7.88 g/m*3 7.62 C 9.4 km/h
1284 24-12-2017 11:00:00 9.19167 C 7.89 g/m*3 7.51 C 10.88333 km/h
1285 24-12-2017 12:00:00 9.20833 C 7.88 g/m*3 7.26 C 12.625 km/h
1286 24-12-2017 13:00:00 9.25833 C 7.89 g/m*3 7.64 C 10.625 km/h
1287 24-12-2017 14:00:00 9.30833 C 7.87 g/m*3 7.5 C 11.825 km/h
1288 24-12-2017 15:00:00 9.38333 C 7.82 g/m*3 7.66 C 11.425 km/h
1289 24-12-2017 16:00:00 9.16667 C 7.77 g/m*3 8.08 C 7.78333 km/h
1290 24-12-2017 17:00:00 8.95833 C 7.77 g/m*3 8.02 C 6.975 km/h
1291 24-12-2017 18:00:00 8.8 C 7.75 g/m*3 6.89 C 11.83333 km/h
1292 24-12-2017 19:00:00 8.74167 C 7.72 g/m*3 7.07 C 10.35 km/h
1293 24-12-2017 20:00:00 8.7 C 7.7 g/m*3 7.19 C 9.4 km/h
1294 24-12-2017 21:00:00 8.66667 C 7.67 g/m*3 7.65 C 7.11667 km/h
1295 24-12-2017 22:00:00 8.53333 C 7.49 g/m*3 6.82 C 10.33333 km/h
1296 24-12-2017 23:00:00 8.35833 C 7.36 g/m*3 6.36 C 11.81667 km/h
1297 25-12-2017 00:00:00 8.26667 C 7.35 g/m*3 6.29 C 11.56667 km/h
1298 25-12-2017 01:00:00 8.18333 C 7.31 g/m*3 6.23 C 11.28333 km/h
1299 25-12-2017 02:00:00 8.00833 C 7.3 g/m*3 8.01 C 4.81667 km/h
1300 25-12-2017 03:00:00 7.9 C 7.3 g/m*3 6.66 C 7.50833 km/h
Sensor: Nr:Datum:Temp:Abs-Feuchte:Windchill:Wind:
Aussen-T/F 1301 25-12-2017 04:00:00 7.875 C 7.28 g/m*3 6.76 C 6.96667 km/h
1302 25-12-2017 05:00:00 7.71667 C 7.19 g/m*3 6.65 C 6.69167 km/h
1303 25-12-2017 06:00:00 7.65 C 7.11 g/m*3 6.05 C 8.875 km/h
1304 25-12-2017 07:00:00 7.4 C 6.94 g/m*3 5.51 C 10.075 km/h
1305 25-12-2017 08:00:00 7.21667 C 6.87 g/m*3 6.43 C 5.50833 km/h
1306 25-12-2017 09:00:00 7.05 C 6.8 g/m*3 5.66 C 7.525 km/h
1307 25-12-2017 10:00:00 7 C 6.68 g/m*3 5.22 C 9.14167 km/h
1308 25-12-2017 11:00:00 7.125 C 6.59 g/m*3 5.47 C 8.71667 km/h
1309 25-12-2017 12:00:00 7.34167 C 6.56 g/m*3 5.93 C 7.79167 km/h
1310 25-12-2017 13:00:00 7.36667 C 6.46 g/m*3 5.87 C 8.20833 km/h
1311 25-12-2017 14:00:00 7.35 C 6.48 g/m*3 6.5 C 5.75833 km/h
1312 25-12-2017 15:00:00 6.91667 C 6.4 g/m*3 6.92 C 2.8 km/h
1313 25-12-2017 16:00:00 6.51667 C 6.34 g/m*3 6.52 C 2.26667 km/h
1314 25-12-2017 17:00:00 6.125 C 6.28 g/m*3 5.27 C 5.23333 km/h
1315 25-12-2017 18:00:00 5.65 C 5.97 g/m*3 4.46 C 6.04167 km/h
1316 25-12-2017 19:00:00 5.26667 C 5.77 g/m*3 4.35 C 5.1 km/h
1317 25-12-2017 20:00:00 4.73333 C 5.57 g/m*3 3.69 C 5.225 km/h
1318 25-12-2017 21:00:00 4.575 C 5.63 g/m*3 2.92 C 6.975 km/h
1319 25-12-2017 22:00:00 4.675 C 5.72 g/m*3 2.81 C 7.8 km/h
1320 25-12-2017 23:00:00 4.74167 C 5.74 g/m*3 3.75 C 5.09167 km/h
1321 26-12-2017 00:00:00 4.525 C 5.69 g/m*3 4.53 C 2.80833 km/h
1322 26-12-2017 01:00:00 3.09167 C 5.34 g/m*3 3.09 C 1.6 km/h
1323 26-12-2017 02:00:00 2.1 C 5.18 g/m*3 2.1 C 4 km/h
1324 26-12-2017 03:00:00 1.58333 C 5.07 g/m*3 1.58 C 0.53333 km/h
1325 26-12-2017 04:00:00 1.40833 C 5.07 g/m*3 1.41 C 0.93333 km/h
Sensor: Nr:Datum:Temp:Abs-Feuchte:Windchill:Wind:
Aussen-T/F 1326 26-12-2017 05:00:00 1.10833 C 4.98 g/m*3 1.11 C 0.8 km/h
1327 26-12-2017 06:00:00 0.9 C 4.93 g/m*3 0.9 C 0.26667 km/h
1328 26-12-2017 07:00:00 1.09167 C 5.02 g/m*3 1.09 C 1.06667 km/h
1329 26-12-2017 08:00:00 4.41667 C 6.38 g/m*3 3.38 C 5.1 km/h
1330 26-12-2017 09:00:00 6.575 C 7.32 g/m*3 6.58 C 1.06667 km/h
1331 26-12-2017 10:00:00 7.4 C 7.71 g/m*3 6.04 C 7.64167 km/h
1332 26-12-2017 11:00:00 7.43333 C 7.61 g/m*3 5.42 C 10.75 km/h
1333 26-12-2017 12:00:00 6.525 C 6.99 g/m*3 4.85 C 8.33333 km/h
1334 26-12-2017 13:00:00 6.675 C 6.83 g/m*3 3.95 C 14.1 km/h
1335 26-12-2017 14:00:00 6.79167 C 6.66 g/m*3 4.17 C 13.56667 km/h
1336 26-12-2017 15:00:00 6.74167 C 6.34 g/m*3 4.28 C 12.49167 km/h
1337 26-12-2017 16:00:00 5.95 C 6.16 g/m*3 4.01 C 8.99167 km/h
1338 26-12-2017 17:00:00 6.00833 C 6.14 g/m*3 4.34 C 7.93333 km/h
1339 26-12-2017 18:00:00 5.66667 C 6.07 g/m*3 4.39 C 6.31667 km/h
1340 26-12-2017 19:00:00 5.44167 C 6.1 g/m*3 5.44 C 3.35 km/h
1341 26-12-2017 20:00:00 5.475 C 6.13 g/m*3 5.48 C 3.06667 km/h
1342 26-12-2017 21:00:00 5.4 C 6.16 g/m*3 5.4 C 2 km/h
1343 26-12-2017 22:00:00 5.13333 C 6 g/m*3 5.13 C 2.66667 km/h
1344 26-12-2017 23:00:00 4.95 C 5.93 g/m*3 4.95 C 3.06667 km/h
1345 27-12-2017 00:00:00 5.23333 C 6.02 g/m*3 5.23 C 2.93333 km/h
1346 27-12-2017 01:00:00 5 C 5.94 g/m*3 5 C 3.20833 km/h
1347 27-12-2017 02:00:00 4.85 C 5.83 g/m*3 4.85 C 4.00833 km/h
1348 27-12-2017 03:00:00 5 C 5.7 g/m*3 3.58 C 6.43333 km/h
1349 27-12-2017 04:00:00 4.53333 C 5.57 g/m*3 4.53 C 3.20833 km/h
1350 27-12-2017 05:00:00 4.19167 C 5.7 g/m*3 4.19 C 1.6 km/h
Sensor: Nr:Datum:Temp:Abs-Feuchte:Windchill:Wind:
Aussen-T/F 1351 27-12-2017 06:00:00 4.21667 C 5.92 g/m*3 4.22 C 2.13333 km/h
1352 27-12-2017 07:00:00 3.90833 C 5.95 g/m*3 3.91 C 0.66667 km/h
1353 27-12-2017 08:00:00 3.925 C 6.01 g/m*3 3.93 C 0.66667 km/h
1354 27-12-2017 09:00:00 4.3 C 6.23 g/m*3 4.3 C 1.46667 km/h
1355 27-12-2017 10:00:00 4.91667 C 6.49 g/m*3 4.92 C 0.53333 km/h
1356 27-12-2017 11:00:00 5.64167 C 6.81 g/m*3 5.64 C 0.8 km/h
1357 27-12-2017 12:00:00 6.325 C 7.11 g/m*3 6.33 C 2.275 km/h
1358 27-12-2017 13:00:00 6.85 C 7.17 g/m*3 6.85 C 2.80833 km/h
1359 27-12-2017 14:00:00 7.1 C 7.26 g/m*3 7.1 C 0.4 km/h
1360 27-12-2017 15:00:00 6.88333 C 7.22 g/m*3 6.88 C 0.13333 km/h
1361 27-12-2017 16:00:00 6.36667 C 7.06 g/m*3 6.37 C 1.875 km/h
1362 27-12-2017 17:00:00 5.7 C 6.76 g/m*3 5.7 C 0.66667 km/h
1363 27-12-2017 18:00:00 4.50833 C 6.25 g/m*3 4.51 C 0.66667 km/h
1364 27-12-2017 19:00:00 4.15833 C 6.16 g/m*3 4.16 C 0.66667 km/h
1365 27-12-2017 20:00:00 4.725 C 6.47 g/m*3 4.72 C 0.66667 km/h
1366 27-12-2017 21:00:00 4.86667 C 6.5 g/m*3 4.87 C 3.86667 km/h
1367 27-12-2017 22:00:00 5.05833 C 6.55 g/m*3 3.69 C 6.30833 km/h
1368 27-12-2017 23:00:00 5.1 C 6.53 g/m*3 3.79 C 6.15833 km/h
1369 28-12-2017 00:00:00 4.75833 C 6.35 g/m*3 3.3 C 6.43333 km/h
1370 28-12-2017 01:00:00 4.56667 C 6.28 g/m*3 4.57 C 3.48333 km/h
1371 28-12-2017 02:00:00 4.15833 C 6.01 g/m*3 0.73 C 14.89167 km/h
1372 28-12-2017 03:00:00 3.88333 C 5.89 g/m*3 1.47 C 9.39167 km/h
1373 28-12-2017 04:00:00 3.825 C 5.9 g/m*3 2.14 C 6.70833 km/h
1374 28-12-2017 05:00:00 3.68333 C 5.85 g/m*3 3.68 C 4.68333 km/h
1375 28-12-2017 06:00:00 3.75833 C 5.73 g/m*3 2.06 C 6.7 km/h
Sensor: Nr:Datum:Temp:Abs-Feuchte:Windchill:Wind:
Aussen-T/F 1376 28-12-2017 07:00:00 3.65 C 5.71 g/m*3 3.65 C 3.2 km/h
1377 28-12-2017 08:00:00 3.4 C 5.67 g/m*3 3.4 C 3.60833 km/h
1378 28-12-2017 09:00:00 3.35 C 5.68 g/m*3 1.63 C 6.58333 km/h
1379 28-12-2017 10:00:00 3.25 C 5.56 g/m*3 1.38 C 6.98333 km/h
1380 28-12-2017 11:00:00 3.66667 C 5.63 g/m*3 3.67 C 3.46667 km/h
1381 28-12-2017 12:00:00 4.21667 C 5.68 g/m*3 2.67 C 6.45 km/h
1382 28-12-2017 13:00:00 4.21667 C 5.14 g/m*3 0.8 C 14.9 km/h
1383 28-12-2017 14:00:00 3.74167 C 4.81 g/m*3 0.87 C 11.29167 km/h
1384 28-12-2017 15:00:00 3.18333 C 4.72 g/m*3 0.38 C 10.49167 km/h
1385 28-12-2017 16:00:00 2.31667 C 4.61 g/m*3 -0.18 C 8.59167 km/h
1386 28-12-2017 17:00:00 1.35833 C 4.56 g/m*3 1.36 C 3.75 km/h
1387 28-12-2017 18:00:00 1.1 C 4.66 g/m*3 1.1 C 2.68333 km/h
1388 28-12-2017 19:00:00 2.25 C 4.73 g/m*3 -0.45 C 9.28333 km/h
1389 28-12-2017 20:00:00 2.41667 C 4.75 g/m*3 -1.16 C 13.43333 km/h
1390 28-12-2017 21:00:00 2.36667 C 4.79 g/m*3 -0.66 C 10.75 km/h
1391 28-12-2017 22:00:00 2.375 C 4.86 g/m*3 -0.68 C 10.89167 km/h
1392 28-12-2017 23:00:00 2.46667 C 4.9 g/m*3 -1.07 C 13.3 km/h
1393 29-12-2017 00:00:00 2.15833 C 4.85 g/m*3 -1.12 C 11.7 km/h
1394 29-12-2017 01:00:00 1.94167 C 4.83 g/m*3 -1.05 C 10.225 km/h
1395 29-12-2017 02:00:00 1.93333 C 4.83 g/m*3 -1.19 C 10.75833 km/h
1396 29-12-2017 03:00:00 1.71667 C 4.75 g/m*3 -0.93 C 8.71667 km/h
1397 29-12-2017 04:00:00 1.625 C 4.72 g/m*3 -1.58 C 10.875 km/h
1398 29-12-2017 05:00:00 1.825 C 4.78 g/m*3 -1.35 C 10.9 km/h
1399 29-12-2017 06:00:00 1.79167 C 4.77 g/m*3 0.03 C 6.025 km/h
1400 29-12-2017 07:00:00 1.175 C 4.76 g/m*3 1.18 C 1.2 km/h
Sensor: Nr:Datum:Temp:Abs-Feuchte:Windchill:Wind:
Aussen-T/F 1401 29-12-2017 08:00:00 1.225 C 4.76 g/m*3 1.23 C 2.66667 km/h
1402 29-12-2017 09:00:00 2.23333 C 4.93 g/m*3 0.25 C 6.84167 km/h
1403 29-12-2017 10:00:00 3.10833 C 4.98 g/m*3 3.11 C 3.33333 km/h
1404 29-12-2017 11:00:00 3.75 C 5.01 g/m*3 2.47 C 5.49167 km/h
1405 29-12-2017 12:00:00 4.04167 C 5.06 g/m*3 2.11 C 7.65 km/h
1406 29-12-2017 13:00:00 4.14167 C 5.05 g/m*3 4.14 C 4.80833 km/h
1407 29-12-2017 14:00:00 3.725 C 5.05 g/m*3 2.2 C 6.16667 km/h
1408 29-12-2017 15:00:00 3.525 C 5.12 g/m*3 1.79 C 6.7 km/h
1409 29-12-2017 16:00:00 3.05833 C 5.27 g/m*3 1.04 C 7.375 km/h
1410 29-12-2017 17:00:00 1.85 C 5.09 g/m*3 1.85 C 2.53333 km/h
1411 29-12-2017 18:00:00 1.75 C 5.17 g/m*3 1.75 C 0.93333 km/h
1412 29-12-2017 19:00:00 1.93333 C 5.26 g/m*3 1.93 C 2.13333 km/h
1413 29-12-2017 20:00:00 2 C 5.28 g/m*3 2 C 0.66667 km/h
1414 29-12-2017 21:00:00 2.125 C 5.36 g/m*3 2.13 C 4.54167 km/h
1415 29-12-2017 22:00:00 2.83333 C 5.64 g/m*3 0.81 C 7.25 km/h
1416 29-12-2017 23:00:00 2.6 C 5.56 g/m*3 1.05 C 5.76667 km/h
1417 30-12-2017 00:00:00 2.325 C 5.45 g/m*3 2.33 C 4.00833 km/h
1418 30-12-2017 01:00:00 2.55 C 5.54 g/m*3 0.05 C 8.73333 km/h
1419 30-12-2017 02:00:00 3.125 C 5.73 g/m*3 1.07 C 7.51667 km/h
1420 30-12-2017 03:00:00 3.15 C 5.7 g/m*3 1.49 C 6.29167 km/h
1421 30-12-2017 04:00:00 3.475 C 5.83 g/m*3 3.48 C 2.53333 km/h
1422 30-12-2017 05:00:00 3.75833 C 5.96 g/m*3 3.76 C 0.53333 km/h
1423 30-12-2017 06:00:00 3.81667 C 6 g/m*3 3.82 C 1.46667 km/h
1424 30-12-2017 07:00:00 4.075 C 6.13 g/m*3 4.08 C 1.46667 km/h
1425 30-12-2017 08:00:00 4.06667 C 6.13 g/m*3 4.07 C 0.4 km/h
Sensor: Nr:Datum:Temp:Abs-Feuchte:Windchill:Wind:
Aussen-T/F 1426 30-12-2017 09:00:00 4.50833 C 6.32 g/m*3 4.51 C 4.13333 km/h
1427 30-12-2017 10:00:00 5.46667 C 6.73 g/m*3 5.47 C 3.06667 km/h
1428 30-12-2017 11:00:00 7.00833 C 7.38 g/m*3 5.72 C 7.10833 km/h
1429 30-12-2017 12:00:00 7.975 C 7.82 g/m*3 6.91 C 6.84167 km/h
1430 30-12-2017 13:00:00 9.93333 C 8.67 g/m*3 7.57 C 17.3 km/h
1431 30-12-2017 14:00:00 11.23333 C 9.07 g/m*3 11.23 C 15.3 km/h
1432 30-12-2017 15:00:00 11.825 C 9.08 g/m*3 11.83 C 16.5 km/h
1433 30-12-2017 16:00:00 11.88333 C 8.85 g/m*3 11.88 C 17.16667 km/h
1434 30-12-2017 17:00:00 11.975 C 8.84 g/m*3 11.98 C 15.16667 km/h
1435 30-12-2017 18:00:00 12.23333 C 8.89 g/m*3 12.23 C 14.36667 km/h
1436 30-12-2017 19:00:00 12.60833 C 9.15 g/m*3 12.61 C 15.16667 km/h
1437 30-12-2017 20:00:00 12.65833 C 9.28 g/m*3 12.66 C 11.95833 km/h
1438 30-12-2017 21:00:00 12.30833 C 9.17 g/m*3 12.31 C 11.01667 km/h
1439 30-12-2017 22:00:00 12.31667 C 9.23 g/m*3 12.32 C 13.56667 km/h
1440 30-12-2017 23:00:00 12.25 C 9.08 g/m*3 12.25 C 16.65 km/h
1441 31-12-2017 00:00:00 11.875 C 9.09 g/m*3 11.88 C 11.825 km/h
1442 31-12-2017 01:00:00 11.03333 C 9.17 g/m*3 11.03 C 7.78333 km/h
1443 31-12-2017 02:00:00 10.46667 C 9.11 g/m*3 10.47 C 2.675 km/h
1444 31-12-2017 03:00:00 11.26667 C 9.75 g/m*3 11.27 C 15.68333 km/h
1445 31-12-2017 04:00:00 12.45833 C 10.16 g/m*3 12.46 C 22.91667 km/h
1446 31-12-2017 05:00:00 12.90833 C 9.9 g/m*3 12.91 C 27.73333 km/h
1447 31-12-2017 06:00:00 12.83333 C 9.64 g/m*3 12.83 C 23.05833 km/h
1448 31-12-2017 07:00:00 12.89167 C 9.48 g/m*3 12.89 C 24.39167 km/h
1449 31-12-2017 08:00:00 12.7 C 9.31 g/m*3 12.7 C 19.85 km/h
1450 31-12-2017 09:00:00 12.6 C 9.24 g/m*3 12.6 C 16.5 km/h
Sensor: Nr:Datum:Temp:Abs-Feuchte:Windchill:Wind:
Aussen-T/F 1451 31-12-2017 10:00:00 13.18333 C 9.42 g/m*3 13.18 C 19.975 km/h
1452 31-12-2017 11:00:00 13.08333 C 9.6 g/m*3 13.08 C 15.03333 km/h
1453 31-12-2017 12:00:00 13.35 C 9.76 g/m*3 13.35 C 17.03333 km/h
1454 31-12-2017 13:00:00 13.3 C 9.59 g/m*3 13.3 C 14.76667 km/h
1455 31-12-2017 14:00:00 13.6 C 9.3 g/m*3 13.6 C 13.03333 km/h
1456 31-12-2017 15:00:00 13.8 C 9.08 g/m*3 13.8 C 9.40833 km/h
1457 31-12-2017 16:00:00 13.78333 C 8.96 g/m*3 13.78 C 7.65 km/h
1458 31-12-2017 17:00:00 13.54167 C 8.98 g/m*3 13.54 C 6.30833 km/h
1459 31-12-2017 18:00:00 13.01667 C 8.95 g/m*3 13.02 C 4.825 km/h
1460 31-12-2017 19:00:00 12.78333 C 8.69 g/m*3 12.78 C 5.76667 km/h
1461 31-12-2017 20:00:00 12.76667 C 8.47 g/m*3 12.77 C 7.11667 km/h
1462 31-12-2017 21:00:00 13.21667 C 8.38 g/m*3 13.22 C 12.74167 km/h
1463 31-12-2017 22:00:00 13.43333 C 8.43 g/m*3 13.43 C 22.50833 km/h
1464 31-12-2017 23:00:00 12 C 8.36 g/m*3 12 C 23.35 km/h
1465 01-01-2018 00:00:00 11.24167 C 8.12 g/m*3 11.24 C 21.05 km/h
1466 01-01-2018 01:00:00 10.76667 C 7.63 g/m*3 8.04 C 23.60833 km/h
1467 01-01-2018 02:00:00 10.36667 C 7.1 g/m*3 7.56 C 23.19167 km/h
1468 01-01-2018 03:00:00 9.85 C 6.72 g/m*3 6.86 C 23.59167 km/h
1469 01-01-2018 04:00:00 8.85833 C 6.65 g/m*3 5.75 C 21.85 km/h
1470 01-01-2018 05:00:00 7.75833 C 6.72 g/m*3 4.38 C 21.58333 km/h
1471 01-01-2018 06:00:00 7.18333 C 6.57 g/m*3 3.9 C 19.31667 km/h
1472 01-01-2018 07:00:00 7.61667 C 6.59 g/m*3 4.68 C 17.3 km/h
1473 01-01-2018 08:00:00 7.45833 C 6.59 g/m*3 4.83 C 14.63333 km/h
1474 01-01-2018 09:00:00 7.275 C 6.61 g/m*3 5.04 C 11.81667 km/h
1475 01-01-2018 10:00:00 7.275 C 6.57 g/m*3 4.35 C 16.51667 km/h
Sensor: Nr:Datum:Temp:Abs-Feuchte:Windchill:Wind:
Aussen-T/F 1476 01-01-2018 11:00:00 7.28333 C 6.48 g/m*3 4 C 19.575 km/h
1477 01-01-2018 12:00:00 7.38333 C 6.46 g/m*3 4.59 C 15.7 km/h
1478 01-01-2018 13:00:00 8.51667 C 6.52 g/m*3 6.27 C 13.68333 km/h
1479 01-01-2018 14:00:00 8.725 C 6.6 g/m*3 8.73 C 4.275 km/h
1480 01-01-2018 15:00:00 8.31667 C 6.79 g/m*3 8.32 C 3.75 km/h
1481 01-01-2018 16:00:00 6.96667 C 6.93 g/m*3 6.97 C 4.00833 km/h
1482 01-01-2018 17:00:00 6.05833 C 6.81 g/m*3 6.06 C 2.275 km/h
1483 01-01-2018 18:00:00 5.73333 C 6.75 g/m*3 5.73 C 1.06667 km/h
1484 01-01-2018 19:00:00 5.51667 C 6.69 g/m*3 5.52 C 1.33333 km/h
1485 01-01-2018 20:00:00 5.80833 C 6.88 g/m*3 5.81 C 3.875 km/h
1486 01-01-2018 21:00:00 6.36667 C 7.09 g/m*3 4.12 C 10.89167 km/h
1487 01-01-2018 22:00:00 6.45833 C 7.01 g/m*3 4.58 C 9.13333 km/h
1488 01-01-2018 23:00:00 6.36667 C 6.67 g/m*3 3.53 C 14.36667 km/h
1489 02-01-2018 00:00:00 6.28333 C 6.46 g/m*3 3.25 C 15.56667 km/h
1490 02-01-2018 01:00:00 6.1 C 6.36 g/m*3 3.37 C 13.3 km/h
1491 02-01-2018 02:00:00 6.15 C 6.4 g/m*3 4.04 C 9.94167 km/h
1492 02-01-2018 03:00:00 5.86667 C 6.34 g/m*3 3.57 C 10.61667 km/h
1493 02-01-2018 04:00:00 5.6 C 6.4 g/m*3 3.83 C 8.05 km/h
1494 02-01-2018 05:00:00 5.30833 C 6.47 g/m*3 3.89 C 6.58333 km/h
1495 02-01-2018 06:00:00 5.76667 C 6.59 g/m*3 3.01 C 13.03333 km/h
1496 02-01-2018 07:00:00 5.83333 C 6.59 g/m*3 3.93 C 8.74167 km/h
1497 02-01-2018 08:00:00 5.89167 C 6.47 g/m*3 3.91 C 9.14167 km/h
1498 02-01-2018 09:00:00 6.05 C 6.46 g/m*3 4.46 C 7.64167 km/h
1499 02-01-2018 10:00:00 6.20833 C 6.46 g/m*3 4.68 C 7.51667 km/h
1500 02-01-2018 11:00:00 6.675 C 6.44 g/m*3 4.7 C 9.80833 km/h
Sensor: Nr:Datum:Temp:Abs-Feuchte:Windchill:Wind:
Aussen-T/F 1501 02-01-2018 12:00:00 6.88333 C 6.65 g/m*3 5.12 C 9 km/h
1502 02-01-2018 13:00:00 7.08333 C 6.54 g/m*3 5.29 C 9.28333 km/h
1503 02-01-2018 14:00:00 7.38333 C 6.49 g/m*3 5.59 C 9.55833 km/h
1504 02-01-2018 15:00:00 7.25 C 6.36 g/m*3 5.08 C 11.425 km/h
1505 02-01-2018 16:00:00 6.25 C 6 g/m*3 4.73 C 7.50833 km/h
1506 02-01-2018 17:00:00 5.61667 C 6.07 g/m*3 5.62 C 2.675 km/h
1507 02-01-2018 18:00:00 5.925 C 6.28 g/m*3 5.93 C 1.86667 km/h
1508 02-01-2018 19:00:00 6.5 C 6.54 g/m*3 6.5 C 2.26667 km/h
1509 02-01-2018 20:00:00 6.4 C 6.74 g/m*3 6.4 C 2.13333 km/h
1510 02-01-2018 21:00:00 5.85 C 6.73 g/m*3 5.85 C 1.86667 km/h
1511 02-01-2018 22:00:00 5.9 C 6.83 g/m*3 5.9 C 2.4 km/h
1512 02-01-2018 23:00:00 6.28333 C 7.02 g/m*3 6.28 C 2 km/h
1513 03-01-2018 00:00:00 6.70833 C 7.22 g/m*3 6.71 C 2 km/h
1514 03-01-2018 01:00:00 7.2 C 7.46 g/m*3 7.2 C 0.13333 km/h
1515 03-01-2018 02:00:00 8.1 C 7.87 g/m*3 6.67 C 8.45833 km/h
1516 03-01-2018 03:00:00 9.45 C 8.45 g/m*3 7.96 C 10.08333 km/h
1517 03-01-2018 04:00:00 10.125 C 8.79 g/m*3 8.72 C 10.34167 km/h
1518 03-01-2018 05:00:00 10.99167 C 9.4 g/m*3 9.07 C 15.56667 km/h
1519 03-01-2018 06:00:00 10.7 C 8.81 g/m*3 7.78 C 25.875 km/h
1520 03-01-2018 07:00:00 9.76667 C 7.87 g/m*3 7.2 C 18.76667 km/h
1521 03-01-2018 08:00:00 9.41667 C 7.31 g/m*3 7.19 C 15.03333 km/h
1522 03-01-2018 09:00:00 9.275 C 6.95 g/m*3 6.4 C 20.65 km/h
1523 03-01-2018 10:00:00 8.4 C 6.54 g/m*3 4.8 C 26.00833 km/h
1524 03-01-2018 11:00:00 6.49167 C 6.52 g/m*3 3.55 C 15.28333 km/h
1525 03-01-2018 12:00:00 8.45833 C 6.44 g/m*3 5.13 C 23.075 km/h
Sensor: Nr:Datum:Temp:Abs-Feuchte:Windchill:Wind:
Aussen-T/F 1526 03-01-2018 13:00:00 8.68333 C 6.62 g/m*3 5.46 C 22.63333 km/h
1527 03-01-2018 14:00:00 8.65833 C 6.79 g/m*3 5.46 C 22.25 km/h
1528 03-01-2018 15:00:00 7.95 C 6.92 g/m*3 5.06 C 17.575 km/h
1529 03-01-2018 16:00:00 7.98333 C 6.71 g/m*3 4.78 C 20.51667 km/h
1530 03-01-2018 17:00:00 7.36667 C 6.65 g/m*3 4.82 C 13.95833 km/h
1531 03-01-2018 18:00:00 7.50833 C 6.71 g/m*3 5.05 C 13.56667 km/h
1532 03-01-2018 19:00:00 8.01667 C 6.67 g/m*3 5.43 C 15.3 km/h
1533 03-01-2018 20:00:00 7.91667 C 6.62 g/m*3 5.34 C 15.03333 km/h
1534 03-01-2018 21:00:00 7.84167 C 6.54 g/m*3 5.34 C 14.36667 km/h
1535 03-01-2018 22:00:00 7.61667 C 6.43 g/m*3 4.81 C 16.24167 km/h
1536 03-01-2018 23:00:00 7.05 C 6.43 g/m*3 4.47 C 13.7 km/h
1537 04-01-2018 00:00:00 6.85833 C 6.5 g/m*3 4.15 C 14.23333 km/h
1538 04-01-2018 01:00:00 6.90833 C 6.51 g/m*3 4.82 C 10.625 km/h
1539 04-01-2018 02:00:00 6.86667 C 6.61 g/m*3 4.33 C 13.16667 km/h
1540 04-01-2018 03:00:00 6.875 C 6.67 g/m*3 4.65 C 11.3 km/h
1541 04-01-2018 04:00:00 7.075 C 6.7 g/m*3 5.15 C 9.95833 km/h
1542 04-01-2018 05:00:00 7.20833 C 6.85 g/m*3 5.26 C 10.2 km/h
1543 04-01-2018 06:00:00 6.38333 C 6.92 g/m*3 5.44 C 5.61667 km/h
1544 04-01-2018 07:00:00 6.15833 C 6.89 g/m*3 4.84 C 6.71667 km/h
1545 04-01-2018 08:00:00 6.21667 C 6.92 g/m*3 6.22 C 2.54167 km/h
1546 04-01-2018 09:00:00 6.71667 C 7.16 g/m*3 5.82 C 5.61667 km/h
1547 04-01-2018 10:00:00 7.18333 C 7.4 g/m*3 7.18 C 1.475 km/h
1548 04-01-2018 11:00:00 7.35 C 7.53 g/m*3 7.35 C 0 km/h
1549 04-01-2018 12:00:00 7.58333 C 7.69 g/m*3 7.58 C 0.13333 km/h
1550 04-01-2018 13:00:00 7.78333 C 7.83 g/m*3 7.78 C 0.26667 km/h
Sensor: Nr:Datum:Temp:Abs-Feuchte:Windchill:Wind:
Aussen-T/F 1551 04-01-2018 14:00:00 8.11667 C 8.02 g/m*3 8.12 C 1.2 km/h
1552 04-01-2018 15:00:00 9.58333 C 8.88 g/m*3 7.72 C 12.61667 km/h
1553 04-01-2018 16:00:00 10.93333 C 9.5 g/m*3 9.26 C 13.425 km/h
1554 04-01-2018 17:00:00 11 C 9.43 g/m*3 9.81 C 10.08333 km/h
1555 04-01-2018 18:00:00 10.525 C 9.08 g/m*3 10.53 C 4 km/h
1556 04-01-2018 19:00:00 10.25 C 9.05 g/m*3 10.25 C 3.86667 km/h
1557 04-01-2018 20:00:00 10.39167 C 8.11 g/m*3 8.36 C 15.3 km/h
1558 04-01-2018 21:00:00 10.23333 C 7.71 g/m*3 8.26 C 14.49167 km/h
1559 04-01-2018 22:00:00 10.23333 C 6.93 g/m*3 7.5 C 21.85 km/h
1560 04-01-2018 23:00:00 9.51667 C 6.64 g/m*3 6.92 C 18.5 km/h
1561 05-01-2018 00:00:00 8.68333 C 6.5 g/m*3 6.15 C 16.1 km/h
1562 05-01-2018 01:00:00 8.275 C 6.47 g/m*3 5.7 C 15.7 km/h
1563 05-01-2018 02:00:00 8.15 C 6.55 g/m*3 6.17 C 11.41667 km/h
1564 05-01-2018 03:00:00 7.75833 C 6.59 g/m*3 5.69 C 11.43333 km/h
1565 05-01-2018 04:00:00 8.26667 C 6.88 g/m*3 6.96 C 8.05833 km/h
1566 05-01-2018 05:00:00 9.075 C 7.53 g/m*3 6.95 C 13.7 km/h
1567 05-01-2018 06:00:00 9.4 C 7.99 g/m*3 7.42 C 13.16667 km/h
1568 05-01-2018 07:00:00 9.275 C 8.22 g/m*3 7.95 C 9 km/h
1569 05-01-2018 08:00:00 8.78333 C 8.19 g/m*3 7.45 C 8.59167 km/h
1570 05-01-2018 09:00:00 8.48333 C 8.1 g/m*3 8.48 C 1.88333 km/h
1571 05-01-2018 10:00:00 8.325 C 8.02 g/m*3 8.32 C 3.475 km/h
1572 05-01-2018 11:00:00 8.8 C 8.26 g/m*3 8.8 C 2.13333 km/h
1573 05-01-2018 12:00:00 8.925 C 8.16 g/m*3 8.93 C 2.13333 km/h
1574 05-01-2018 13:00:00 9.04167 C 8.04 g/m*3 9.04 C 3.46667 km/h
1575 05-01-2018 14:00:00 9.06667 C 8.05 g/m*3 9.07 C 0.4 km/h
Sensor: Nr:Datum:Temp:Abs-Feuchte:Windchill:Wind:
Aussen-T/F 1576 05-01-2018 15:00:00 8.88333 C 8.02 g/m*3 8.88 C 1.6 km/h
1577 05-01-2018 16:00:00 8.25 C 7.7 g/m*3 8.25 C 1.33333 km/h
1578 05-01-2018 17:00:00 7.53333 C 7.43 g/m*3 7.53 C 3.075 km/h
1579 05-01-2018 18:00:00 7.06667 C 7.28 g/m*3 7.07 C 2.93333 km/h
1580 05-01-2018 19:00:00 7.33333 C 7.46 g/m*3 7.33 C 2.4 km/h
1581 05-01-2018 20:00:00 7.78333 C 7.63 g/m*3 7.78 C 2.275 km/h
1582 05-01-2018 21:00:00 8.05833 C 7.74 g/m*3 8.06 C 4.68333 km/h
1583 05-01-2018 22:00:00 7.6 C 7.55 g/m*3 6.91 C 5.35 km/h
1584 05-01-2018 23:00:00 6.925 C 7.32 g/m*3 6.93 C 0.4 km/h
1585 06-01-2018 00:00:00 6.875 C 7.37 g/m*3 6.88 C 0 km/h
1586 06-01-2018 01:00:00 6.325 C 7.12 g/m*3 6.33 C 0 km/h
1587 06-01-2018 02:00:00 5.6 C 6.79 g/m*3 5.6 C 0 km/h
1588 06-01-2018 03:00:00 5.29167 C 6.67 g/m*3 5.29 C 0 km/h
1589 06-01-2018 04:00:00 4.94167 C 6.51 g/m*3 4.94 C 0 km/h
1590 06-01-2018 05:00:00 5.18333 C 6.65 g/m*3 5.18 C 0 km/h
1591 06-01-2018 06:00:00 5.26667 C 6.71 g/m*3 5.27 C 0 km/h
1592 06-01-2018 07:00:00 5.14167 C 6.65 g/m*3 5.14 C 0 km/h
1593 06-01-2018 08:00:00 5.18333 C 6.67 g/m*3 5.18 C 0 km/h
1594 06-01-2018 09:00:00 5.63333 C 6.87 g/m*3 5.63 C 0.26667 km/h
1595 06-01-2018 10:00:00 5.95 C 7.02 g/m*3 5.95 C 0.26667 km/h
1596 06-01-2018 11:00:00 6.525 C 7.29 g/m*3 6.53 C 1.86667 km/h
1597 06-01-2018 12:00:00 6.73333 C 7.39 g/m*3 6.73 C 0.53333 km/h
1598 06-01-2018 13:00:00 7 C 7.52 g/m*3 7 C 0.53333 km/h
1599 06-01-2018 14:00:00 7.2 C 7.61 g/m*3 7.2 C 0 km/h
1600 06-01-2018 15:00:00 7.4 C 7.71 g/m*3 7.4 C 0 km/h
Sensor: Nr:Datum:Temp:Abs-Feuchte:Windchill:Wind:
Aussen-T/F 1601 06-01-2018 16:00:00 7.24167 C 7.64 g/m*3 7.24 C 0 km/h
1602 06-01-2018 17:00:00 7 C 7.52 g/m*3 7 C 0 km/h
1603 06-01-2018 18:00:00 6.81667 C 7.43 g/m*3 6.82 C 0.13333 km/h
1604 06-01-2018 19:00:00 6.71667 C 7.38 g/m*3 6.72 C 0 km/h
1605 06-01-2018 20:00:00 6.38333 C 7.22 g/m*3 6.38 C 0 km/h
1606 06-01-2018 21:00:00 6.36667 C 7.21 g/m*3 6.37 C 0 km/h
1607 06-01-2018 22:00:00 6.38333 C 7.22 g/m*3 6.38 C 0 km/h
1608 06-01-2018 23:00:00 6.16667 C 7.12 g/m*3 6.17 C 0 km/h
1609 07-01-2018 00:00:00 5.91667 C 7 g/m*3 5.92 C 0 km/h
1610 07-01-2018 01:00:00 5.775 C 6.94 g/m*3 5.78 C 0 km/h
1611 07-01-2018 02:00:00 5.675 C 6.89 g/m*3 5.68 C 0.13333 km/h
1612 07-01-2018 03:00:00 5.6 C 6.86 g/m*3 5.6 C 2.53333 km/h
1613 07-01-2018 04:00:00 5.575 C 6.85 g/m*3 5.58 C 0.8 km/h
1614 07-01-2018 05:00:00 5.425 C 6.78 g/m*3 5.43 C 1.73333 km/h
1615 07-01-2018 06:00:00 5.325 C 6.73 g/m*3 5.33 C 1.73333 km/h
1616 07-01-2018 07:00:00 5.2 C 6.68 g/m*3 5.2 C 3.73333 km/h
1617 07-01-2018 08:00:00 5.175 C 6.64 g/m*3 5.18 C 4.80833 km/h
1618 07-01-2018 09:00:00 5.21667 C 6.51 g/m*3 3.24 C 8.6 km/h
1619 07-01-2018 10:00:00 5.23333 C 6.33 g/m*3 3.47 C 7.78333 km/h
1620 07-01-2018 11:00:00 5.15 C 6.21 g/m*3 2.91 C 9.68333 km/h
1621 07-01-2018 12:00:00 5.11667 C 6.15 g/m*3 3.36 C 7.675 km/h
1622 07-01-2018 13:00:00 5.29167 C 6.1 g/m*3 2.85 C 10.75 km/h
1623 07-01-2018 14:00:00 5.21667 C 6.05 g/m*3 2.85 C 10.33333 km/h
1624 07-01-2018 15:00:00 5.20833 C 6.01 g/m*3 2.98 C 9.675 km/h
1625 07-01-2018 16:00:00 5.00833 C 5.94 g/m*3 2.68 C 9.95833 km/h
Sensor: Nr:Datum:Temp:Abs-Feuchte:Windchill:Wind:
Aussen-T/F 1626 07-01-2018 17:00:00 4.81667 C 5.9 g/m*3 3.05 C 7.50833 km/h
1627 07-01-2018 18:00:00 4.7 C 5.84 g/m*3 2.77 C 8.05 km/h
1628 07-01-2018 19:00:00 4.6 C 5.82 g/m*3 2.65 C 8.05833 km/h
1629 07-01-2018 20:00:00 4.55 C 5.8 g/m*3 2.81 C 7.25 km/h
1630 07-01-2018 21:00:00 4.4 C 5.79 g/m*3 3.12 C 5.75833 km/h
1631 07-01-2018 22:00:00 4.30833 C 5.79 g/m*3 2.74 C 6.575 km/h
1632 07-01-2018 23:00:00 4.26667 C 5.82 g/m*3 3.11 C 5.35 km/h
1633 08-01-2018 00:00:00 4.3 C 5.85 g/m*3 2.56 C 7.10833 km/h
1634 08-01-2018 01:00:00 4.3 C 5.83 g/m*3 1.75 C 10.33333 km/h
1635 08-01-2018 02:00:00 4.3 C 5.83 g/m*3 1.49 C 11.55833 km/h
1636 08-01-2018 03:00:00 4.3 C 5.84 g/m*3 1.89 C 9.68333 km/h
1637 08-01-2018 04:00:00 4.3 C 5.84 g/m*3 1.47 C 11.69167 km/h
1638 08-01-2018 05:00:00 4.3 C 5.85 g/m*3 1.75 C 10.35 km/h
1639 08-01-2018 06:00:00 4.3 C 5.9 g/m*3 2.65 C 6.84167 km/h
1640 08-01-2018 07:00:00 4.225 C 5.87 g/m*3 2.91 C 5.76667 km/h
1641 08-01-2018 08:00:00 4.26667 C 5.89 g/m*3 3.16 C 5.225 km/h
1642 08-01-2018 09:00:00 4.10833 C 5.81 g/m*3 2.11 C 7.93333 km/h
1643 08-01-2018 10:00:00 4.18333 C 5.79 g/m*3 2.55 C 6.70833 km/h
1644 08-01-2018 11:00:00 4.425 C 5.84 g/m*3 2.83 C 6.71667 km/h
1645 08-01-2018 12:00:00 4.90833 C 5.95 g/m*3 3.23 C 7.25833 km/h
1646 08-01-2018 13:00:00 5.23333 C 6.04 g/m*3 3.33 C 8.325 km/h
1647 08-01-2018 14:00:00 5.56667 C 6.13 g/m*3 4.04 C 7.11667 km/h
1648 08-01-2018 15:00:00 5.69167 C 6.15 g/m*3 4.3 C 6.7 km/h
1649 08-01-2018 16:00:00 5.55 C 6.13 g/m*3 5.55 C 2.93333 km/h
1650 08-01-2018 17:00:00 5.33333 C 6.05 g/m*3 4.28 C 5.49167 km/h
Sensor: Nr:Datum:Temp:Abs-Feuchte:Windchill:Wind:
Aussen-T/F 1651 08-01-2018 18:00:00 5.11667 C 5.98 g/m*3 3.9 C 5.88333 km/h
1652 08-01-2018 19:00:00 4.69167 C 5.86 g/m*3 2.65 C 8.46667 km/h
1653 08-01-2018 20:00:00 4.35 C 5.79 g/m*3 1.66 C 11.025 km/h
1654 08-01-2018 21:00:00 4.36667 C 5.8 g/m*3 2.64 C 7.11667 km/h
1655 08-01-2018 22:00:00 4.36667 C 5.8 g/m*3 3.18 C 5.49167 km/h
1656 08-01-2018 23:00:00 4.3 C 5.83 g/m*3 3.1 C 5.5 km/h
1657 09-01-2018 00:00:00 4.525 C 5.94 g/m*3 3.45 C 5.23333 km/h
1658 09-01-2018 01:00:00 4.7 C 6 g/m*3 4.7 C 4.14167 km/h
1659 09-01-2018 02:00:00 4.8 C 6.04 g/m*3 4.8 C 4.025 km/h
1660 09-01-2018 03:00:00 4.64167 C 6.01 g/m*3 4.64 C 2 km/h
1661 09-01-2018 04:00:00 4.18333 C 5.92 g/m*3 4.18 C 1.46667 km/h
1662 09-01-2018 05:00:00 3.70833 C 5.81 g/m*3 3.71 C 2.4 km/h
1663 09-01-2018 06:00:00 3.41667 C 5.75 g/m*3 3.42 C 2 km/h
1664 09-01-2018 07:00:00 3.55 C 5.86 g/m*3 3.55 C 0.66667 km/h
1665 09-01-2018 08:00:00 4.1 C 6.04 g/m*3 4.1 C 2.93333 km/h
1666 09-01-2018 09:00:00 3.99167 C 5.95 g/m*3 3.99 C 0.66667 km/h
1667 09-01-2018 10:00:00 4.36667 C 6.12 g/m*3 4.37 C 1.86667 km/h
1668 09-01-2018 11:00:00 4.89167 C 6.34 g/m*3 4.89 C 0 km/h
1669 09-01-2018 12:00:00 5.29167 C 6.44 g/m*3 5.29 C 0 km/h
1670 09-01-2018 13:00:00 5.975 C 6.64 g/m*3 5.98 C 0.13333 km/h
1671 09-01-2018 14:00:00 6.70833 C 6.99 g/m*3 6.71 C 0.66667 km/h
1672 09-01-2018 15:00:00 6.36667 C 6.88 g/m*3 6.37 C 1.86667 km/h
1673 09-01-2018 16:00:00 6.30833 C 6.87 g/m*3 6.31 C 0 km/h
1674 09-01-2018 17:00:00 5.76667 C 6.67 g/m*3 5.77 C 0 km/h
1675 09-01-2018 18:00:00 5.375 C 6.56 g/m*3 5.38 C 0 km/h
Sensor: Nr:Datum:Temp:Abs-Feuchte:Windchill:Wind:
Aussen-T/F 1676 09-01-2018 19:00:00 4.80833 C 6.33 g/m*3 4.81 C 0 km/h
1677 09-01-2018 20:00:00 5.53333 C 6.71 g/m*3 5.53 C 1.46667 km/h
1678 09-01-2018 21:00:00 5.84167 C 6.77 g/m*3 5.84 C 1.33333 km/h
1679 09-01-2018 22:00:00 5.96667 C 6.83 g/m*3 5.97 C 1.2 km/h
1680 09-01-2018 23:00:00 5.64167 C 6.71 g/m*3 5.64 C 1.06667 km/h
1681 10-01-2018 00:00:00 6.03333 C 6.9 g/m*3 6.03 C 0.13333 km/h
1682 10-01-2018 01:00:00 5.675 C 6.76 g/m*3 5.68 C 1.86667 km/h
1683 10-01-2018 02:00:00 6.025 C 6.98 g/m*3 6.03 C 0 km/h
1684 10-01-2018 03:00:00 6.4 C 7.15 g/m*3 6.4 C 0.8 km/h
1685 10-01-2018 04:00:00 6.375 C 7.1 g/m*3 6.38 C 0.53333 km/h
1686 10-01-2018 05:00:00 6.65833 C 7.2 g/m*3 6.66 C 0.4 km/h
1687 10-01-2018 06:00:00 6.7 C 7.22 g/m*3 6.7 C 0.13333 km/h
1688 10-01-2018 07:00:00 6.63333 C 7.16 g/m*3 6.63 C 0.13333 km/h
1689 10-01-2018 08:00:00 6.14167 C 6.9 g/m*3 6.14 C 1.2 km/h
1690 10-01-2018 09:00:00 5.55 C 6.68 g/m*3 5.55 C 1.6 km/h
1691 10-01-2018 10:00:00 6.18333 C 7.03 g/m*3 6.18 C 1.73333 km/h
1692 10-01-2018 11:00:00 7.81667 C 7.39 g/m*3 7.82 C 4.01667 km/h
1693 10-01-2018 12:00:00 9.28333 C 7.42 g/m*3 9.28 C 2 km/h
1694 10-01-2018 13:00:00 9.98333 C 7.34 g/m*3 9.34 C 6.44167 km/h
1695 10-01-2018 14:00:00 8.875 C 7.3 g/m*3 8.88 C 0.8 km/h
1696 10-01-2018 15:00:00 7.625 C 7.12 g/m*3 7.63 C 3.2 km/h
1697 10-01-2018 16:00:00 6.74167 C 6.89 g/m*3 6.74 C 4.53333 km/h
1698 10-01-2018 17:00:00 6.70833 C 6.99 g/m*3 6.71 C 2.4 km/h
1699 10-01-2018 18:00:00 7.04167 C 7.17 g/m*3 7.04 C 2.13333 km/h
1700 10-01-2018 19:00:00 7.2 C 7.2 g/m*3 7.2 C 0 km/h
Sensor: Nr:Datum:Temp:Abs-Feuchte:Windchill:Wind:
Aussen-T/F 1701 10-01-2018 20:00:00 7.00833 C 7.24 g/m*3 7.01 C 0.53333 km/h
1702 10-01-2018 21:00:00 6.8 C 7.26 g/m*3 6.8 C 0.26667 km/h
1703 10-01-2018 22:00:00 6.725 C 7.29 g/m*3 6.73 C 0.13333 km/h
1704 10-01-2018 23:00:00 6.675 C 7.28 g/m*3 6.68 C 0 km/h
1705 11-01-2018 00:00:00 6.6 C 7.25 g/m*3 6.6 C 0.13333 km/h
1706 11-01-2018 01:00:00 6.60833 C 7.25 g/m*3 6.61 C 0.66667 km/h
1707 11-01-2018 02:00:00 6.475 C 7.19 g/m*3 6.48 C 0 km/h
1708 11-01-2018 03:00:00 6.34167 C 7.13 g/m*3 6.34 C 0 km/h
1709 11-01-2018 04:00:00 6.38333 C 7.15 g/m*3 6.38 C 0 km/h
1710 11-01-2018 05:00:00 6.25833 C 7.09 g/m*3 6.26 C 0 km/h
1711 11-01-2018 06:00:00 6.3 C 7.11 g/m*3 6.3 C 0 km/h
1712 11-01-2018 07:00:00 6.25833 C 7.09 g/m*3 6.26 C 0 km/h
1713 11-01-2018 08:00:00 6.275 C 7.09 g/m*3 6.28 C 0 km/h
1714 11-01-2018 09:00:00 6.525 C 7.28 g/m*3 6.53 C 0 km/h
1715 11-01-2018 10:00:00 6.88333 C 7.45 g/m*3 6.88 C 0 km/h
1716 11-01-2018 11:00:00 7.25833 C 7.58 g/m*3 7.26 C 0.26667 km/h
1717 11-01-2018 12:00:00 7.89167 C 7.81 g/m*3 7.89 C 1.6 km/h
1718 11-01-2018 13:00:00 8.38333 C 7.88 g/m*3 8.38 C 2.8 km/h
1719 11-01-2018 14:00:00 8.825 C 7.93 g/m*3 8.82 C 2 km/h
1720 11-01-2018 15:00:00 8.75 C 7.82 g/m*3 8.75 C 3.75 km/h
1721 11-01-2018 16:00:00 8.51667 C 7.77 g/m*3 8.52 C 0 km/h
1722 11-01-2018 17:00:00 7.91667 C 7.72 g/m*3 7.92 C 0 km/h
1723 11-01-2018 18:00:00 7.30833 C 7.51 g/m*3 7.31 C 1.73333 km/h
1724 11-01-2018 19:00:00 6.59167 C 7.17 g/m*3 6.59 C 1.06667 km/h
1725 11-01-2018 20:00:00 6.35833 C 7.1 g/m*3 6.36 C 0 km/h
Sensor: Nr:Datum:Temp:Abs-Feuchte:Windchill:Wind:
Aussen-T/F 1726 11-01-2018 21:00:00 6.39167 C 7.15 g/m*3 6.39 C 0 km/h
1727 11-01-2018 22:00:00 6.4 C 7.15 g/m*3 6.4 C 0 km/h
1728 11-01-2018 23:00:00 6.41667 C 7.16 g/m*3 6.42 C 0 km/h
1729 12-01-2018 00:00:00 6.65833 C 7.27 g/m*3 6.66 C 0.13333 km/h
1730 12-01-2018 01:00:00 6.80833 C 7.35 g/m*3 6.81 C 1.2 km/h
1731 12-01-2018 02:00:00 6.80833 C 7.35 g/m*3 6.81 C 1.6 km/h
1732 12-01-2018 03:00:00 6.725 C 7.27 g/m*3 6.73 C 0 km/h
1733 12-01-2018 04:00:00 6.73333 C 7.31 g/m*3 6.73 C 0 km/h
1734 12-01-2018 05:00:00 6.71667 C 7.29 g/m*3 6.72 C 0.66667 km/h
1735 12-01-2018 06:00:00 6.53333 C 7.18 g/m*3 6.53 C 0 km/h
1736 12-01-2018 07:00:00 6.66667 C 7.28 g/m*3 6.67 C 0.13333 km/h
1737 12-01-2018 08:00:00 6.65 C 7.27 g/m*3 6.65 C 0 km/h
1738 12-01-2018 09:00:00 6.69167 C 7.29 g/m*3 6.69 C 1.06667 km/h
1739 12-01-2018 10:00:00 6.63333 C 7.26 g/m*3 5.64 C 5.88333 km/h
1740 12-01-2018 11:00:00 6.5 C 7.2 g/m*3 6.5 C 2.66667 km/h
1741 12-01-2018 12:00:00 6.60833 C 7.21 g/m*3 6.61 C 0.93333 km/h
1742 12-01-2018 13:00:00 6.78333 C 7.26 g/m*3 6.78 C 0.26667 km/h
1743 12-01-2018 14:00:00 6.90833 C 7.27 g/m*3 6.91 C 0.26667 km/h
1744 12-01-2018 15:00:00 7.03333 C 7.29 g/m*3 7.03 C 0 km/h
1745 12-01-2018 16:00:00 6.85 C 7.23 g/m*3 6.85 C 0 km/h
1746 12-01-2018 17:00:00 6.55833 C 7.15 g/m*3 6.56 C 0 km/h
1747 12-01-2018 18:00:00 6.26667 C 7.08 g/m*3 6.27 C 0 km/h
1748 12-01-2018 19:00:00 6.175 C 7.05 g/m*3 6.18 C 0 km/h
1749 12-01-2018 20:00:00 6.1 C 7.08 g/m*3 6.1 C 0 km/h
1750 12-01-2018 21:00:00 6.1 C 7.09 g/m*3 6.1 C 0 km/h
Sensor: Nr:Datum:Temp:Abs-Feuchte:Windchill:Wind:
Aussen-T/F 1751 12-01-2018 22:00:00 6.18333 C 7.13 g/m*3 6.18 C 0 km/h
1752 12-01-2018 23:00:00 6.15833 C 7.11 g/m*3 6.16 C 0 km/h
1753 13-01-2018 00:00:00 6.075 C 7.08 g/m*3 6.08 C 0 km/h
1754 13-01-2018 01:00:00 5.81667 C 6.96 g/m*3 5.82 C 0 km/h
1755 13-01-2018 02:00:00 5.9 C 6.99 g/m*3 5.9 C 0 km/h
1756 13-01-2018 03:00:00 5.775 C 6.94 g/m*3 5.78 C 0 km/h
1757 13-01-2018 04:00:00 5.575 C 6.85 g/m*3 5.58 C 0 km/h
1758 13-01-2018 05:00:00 5.35833 C 6.75 g/m*3 5.36 C 0 km/h
1759 13-01-2018 06:00:00 5.05 C 6.61 g/m*3 5.05 C 1.6 km/h
1760 13-01-2018 07:00:00 4.54167 C 6.39 g/m*3 4.54 C 1.46667 km/h
1761 13-01-2018 08:00:00 4.23333 C 6.2 g/m*3 4.23 C 2.675 km/h
1762 13-01-2018 09:00:00 4.06667 C 6.05 g/m*3 4.07 C 0.93333 km/h
1763 13-01-2018 10:00:00 4.5 C 6.12 g/m*3 4.5 C 1.46667 km/h
1764 13-01-2018 11:00:00 5.33333 C 6.19 g/m*3 4.14 C 5.89167 km/h
1765 13-01-2018 12:00:00 5.675 C 6.2 g/m*3 5.68 C 3.875 km/h
1766 13-01-2018 13:00:00 5.91667 C 6.22 g/m*3 5.92 C 1.6 km/h
1767 13-01-2018 14:00:00 6.28333 C 6.01 g/m*3 6.28 C 4.01667 km/h
1768 13-01-2018 15:00:00 6.38333 C 5.87 g/m*3 6.38 C 2.93333 km/h
1769 13-01-2018 16:00:00 6.10833 C 5.8 g/m*3 6.11 C 4.55 km/h
1770 13-01-2018 17:00:00 5.69167 C 5.71 g/m*3 5.69 C 3.34167 km/h
1771 13-01-2018 18:00:00 5.45 C 5.83 g/m*3 5.45 C 1.33333 km/h
1772 13-01-2018 19:00:00 5.15 C 5.95 g/m*3 5.15 C 0 km/h
1773 13-01-2018 20:00:00 5.14167 C 5.92 g/m*3 5.14 C 1.60833 km/h
1774 13-01-2018 21:00:00 5.09167 C 5.91 g/m*3 5.09 C 1.46667 km/h
1775 13-01-2018 22:00:00 5.175 C 5.83 g/m*3 5.18 C 2.14167 km/h
Sensor: Nr:Datum:Temp:Abs-Feuchte:Windchill:Wind:
Aussen-T/F 1776 13-01-2018 23:00:00 5.08333 C 5.8 g/m*3 5.08 C 2.26667 km/h
1777 14-01-2018 00:00:00 4.95 C 5.73 g/m*3 4.95 C 2.13333 km/h
1778 14-01-2018 01:00:00 4.8 C 5.58 g/m*3 4.8 C 4.55 km/h
1779 14-01-2018 02:00:00 4.675 C 5.56 g/m*3 4.68 C 3.86667 km/h
1780 14-01-2018 03:00:00 4.31667 C 5.54 g/m*3 4.32 C 1.74167 km/h
1781 14-01-2018 04:00:00 4.1 C 5.5 g/m*3 4.1 C 2.53333 km/h
1782 14-01-2018 05:00:00 3.875 C 5.38 g/m*3 3.88 C 2.13333 km/h
1783 14-01-2018 06:00:00 3.55833 C 5.25 g/m*3 3.56 C 2.8 km/h
1784 14-01-2018 07:00:00 2.76667 C 5.07 g/m*3 2.77 C 0.66667 km/h
1785 14-01-2018 08:00:00 2.01667 C 5.02 g/m*3 2.02 C 0.53333 km/h
1786 14-01-2018 09:00:00 2.9 C 5.14 g/m*3 2.9 C 3.74167 km/h
1787 14-01-2018 10:00:00 3.56667 C 5.12 g/m*3 2.27 C 5.46667 km/h
1788 14-01-2018 11:00:00 3.85 C 5.11 g/m*3 2.26 C 6.425 km/h
1789 14-01-2018 12:00:00 4.175 C 5.12 g/m*3 2.91 C 5.61667 km/h
1790 14-01-2018 13:00:00 4.48333 C 5.14 g/m*3 4.48 C 4.80833 km/h
1791 14-01-2018 14:00:00 4.58333 C 5.17 g/m*3 4.58 C 4.40833 km/h
1792 14-01-2018 15:00:00 4.58333 C 5.18 g/m*3 4.58 C 4.68333 km/h
1793 14-01-2018 16:00:00 4.04167 C 5.19 g/m*3 4.04 C 0.13333 km/h
1794 14-01-2018 17:00:00 3.05833 C 5.08 g/m*3 3.06 C 0.26667 km/h
1795 14-01-2018 18:00:00 1.68333 C 4.81 g/m*3 1.68 C 4.13333 km/h
1796 14-01-2018 19:00:00 0.94167 C 4.67 g/m*3 0.94 C 3.73333 km/h
1797 14-01-2018 20:00:00 0.21667 C 4.5 g/m*3 0.22 C 0.93333 km/h
1798 14-01-2018 21:00:00 -0.425 C 4.36 g/m*3 -0.43 C 0 km/h
1799 14-01-2018 22:00:00 -0.74167 C 4.31 g/m*3 -0.74 C 0 km/h
1800 14-01-2018 23:00:00 -1.13333 C 4.21 g/m*3 -1.13 C 0 km/h
Sensor: Nr:Datum:Temp:Abs-Feuchte:Windchill:Wind:
Aussen-T/F 1801 15-01-2018 00:00:00 -0.725 C 4.38 g/m*3 -0.73 C 0 km/h
1802 15-01-2018 01:00:00 -0.93333 C 4.31 g/m*3 -0.93 C 0 km/h
1803 15-01-2018 02:00:00 -0.575 C 4.43 g/m*3 -0.57 C 0 km/h
1804 15-01-2018 03:00:00 0.25833 C 4.73 g/m*3 0.26 C 0 km/h
1805 15-01-2018 04:00:00 0.69167 C 4.86 g/m*3 0.69 C 0 km/h
1806 15-01-2018 05:00:00 0.98333 C 4.93 g/m*3 0.98 C 0 km/h
1807 15-01-2018 06:00:00 0.775 C 4.83 g/m*3 0.78 C 0.4 km/h
1808 15-01-2018 07:00:00 0.94167 C 4.89 g/m*3 0.94 C 0.26667 km/h
1809 15-01-2018 08:00:00 1.58333 C 5.08 g/m*3 1.58 C 0.13333 km/h
1810 15-01-2018 09:00:00 2.425 C 5.35 g/m*3 2.42 C 1.2 km/h
1811 15-01-2018 10:00:00 3.80833 C 5.6 g/m*3 3.81 C 3.20833 km/h
1812 15-01-2018 11:00:00 4.28333 C 5.73 g/m*3 4.28 C 2.93333 km/h
1813 15-01-2018 12:00:00 5.33333 C 5.98 g/m*3 5.33 C 4.68333 km/h
1814 15-01-2018 13:00:00 6.13333 C 6.19 g/m*3 5.15 C 5.625 km/h
1815 15-01-2018 14:00:00 6.34167 C 6.32 g/m*3 4.83 C 7.51667 km/h
1816 15-01-2018 15:00:00 6.575 C 6.34 g/m*3 5.21 C 7.11667 km/h
1817 15-01-2018 16:00:00 6.275 C 6.53 g/m*3 5.22 C 5.9 km/h
1818 15-01-2018 17:00:00 6.35 C 6.5 g/m*3 4.62 C 8.425 km/h
1819 15-01-2018 18:00:00 6.4 C 6.66 g/m*3 5.16 C 6.575 km/h
1820 15-01-2018 19:00:00 5.93333 C 6.67 g/m*3 5.06 C 5.21667 km/h
1821 15-01-2018 20:00:00 5.64167 C 6.55 g/m*3 3.33 C 10.46667 km/h
1822 15-01-2018 21:00:00 5.75833 C 6.44 g/m*3 2.36 C 17.3 km/h
1823 15-01-2018 22:00:00 6.38333 C 6.69 g/m*3 3.06 C 17.96667 km/h
1824 15-01-2018 23:00:00 7.15833 C 7.12 g/m*3 4.46 C 14.63333 km/h
1825 16-01-2018 00:00:00 7.64167 C 7.24 g/m*3 5.29 C 13.03333 km/h
Sensor: Nr:Datum:Temp:Abs-Feuchte:Windchill:Wind:
Aussen-T/F 1826 16-01-2018 01:00:00 7.29167 C 7.22 g/m*3 4.95 C 12.49167 km/h
1827 16-01-2018 02:00:00 7.20833 C 7 g/m*3 5.25 C 10.21667 km/h
1828 16-01-2018 03:00:00 6.96667 C 6.76 g/m*3 4.67 C 11.825 km/h
1829 16-01-2018 04:00:00 6.90833 C 6.65 g/m*3 5 C 9.675 km/h
1830 16-01-2018 05:00:00 6.59167 C 6.8 g/m*3 4.34 C 11.15 km/h
1831 16-01-2018 06:00:00 5.99167 C 6.76 g/m*3 4.16 C 8.58333 km/h
1832 16-01-2018 07:00:00 5.59167 C 6.55 g/m*3 3.89 C 7.78333 km/h
1833 16-01-2018 08:00:00 6.03333 C 6.65 g/m*3 3.88 C 10.075 km/h
1834 16-01-2018 09:00:00 6.7 C 6.71 g/m*3 3.69 C 16.08333 km/h
1835 16-01-2018 10:00:00 6.86667 C 6.61 g/m*3 4.1 C 14.63333 km/h
1836 16-01-2018 11:00:00 7.14167 C 6.72 g/m*3 4.37 C 15.15 km/h
1837 16-01-2018 12:00:00 7.73333 C 6.16 g/m*3 4.03 C 24.95 km/h
1838 16-01-2018 13:00:00 7.88333 C 5.84 g/m*3 4.54 C 21.56667 km/h
1839 16-01-2018 14:00:00 7.775 C 5.68 g/m*3 4.22 C 23.45833 km/h
1840 16-01-2018 15:00:00 7.68333 C 5.67 g/m*3 4.75 C 17.43333 km/h
1841 16-01-2018 16:00:00 6.4 C 5.77 g/m*3 3.2 C 17.025 km/h
1842 16-01-2018 17:00:00 4.74167 C 6.03 g/m*3 4.74 C 3.20833 km/h
1843 16-01-2018 18:00:00 3.99167 C 5.91 g/m*3 2.65 C 5.76667 km/h
1844 16-01-2018 19:00:00 4.05833 C 5.65 g/m*3 2.13 C 7.64167 km/h
1845 16-01-2018 20:00:00 4.78333 C 5.74 g/m*3 2.94 C 7.78333 km/h
1846 16-01-2018 21:00:00 3.73333 C 5.53 g/m*3 3.73 C 0.93333 km/h
1847 16-01-2018 22:00:00 3.55 C 5.52 g/m*3 1.2 C 8.86667 km/h
1848 16-01-2018 23:00:00 4.24167 C 5.62 g/m*3 1.86 C 9.54167 km/h
1849 17-01-2018 00:00:00 4.48333 C 5.71 g/m*3 2.78 C 7.1 km/h
1850 17-01-2018 01:00:00 4.025 C 5.78 g/m*3 1.31 C 10.85833 km/h
Sensor: Nr:Datum:Temp:Abs-Feuchte:Windchill:Wind:
Aussen-T/F 1851 17-01-2018 02:00:00 3.64167 C 5.77 g/m*3 1.79 C 7.125 km/h
1852 17-01-2018 03:00:00 3.45833 C 5.69 g/m*3 1.99 C 5.9 km/h
1853 17-01-2018 04:00:00 2.83333 C 5.49 g/m*3 2.83 C 2.53333 km/h
1854 17-01-2018 05:00:00 2.81667 C 5.45 g/m*3 2.82 C 3.74167 km/h
1855 17-01-2018 06:00:00 2.8 C 5.3 g/m*3 2.8 C 3.33333 km/h
1856 17-01-2018 07:00:00 2.94167 C 5.25 g/m*3 -0.63 C 14.09167 km/h
1857 17-01-2018 08:00:00 1.58333 C 5.01 g/m*3 1.58 C 3.6 km/h
1858 17-01-2018 09:00:00 1.96667 C 5.13 g/m*3 -0.19 C 7.24167 km/h
1859 17-01-2018 10:00:00 2.51667 C 5.18 g/m*3 1.01 C 5.625 km/h
1860 17-01-2018 11:00:00 3.525 C 5.16 g/m*3 -0.41 C 17.16667 km/h
1861 17-01-2018 12:00:00 3.50833 C 5.25 g/m*3 -0.83 C 20.11667 km/h
1862 17-01-2018 13:00:00 3.425 C 5.4 g/m*3 0.08 C 13.43333 km/h
1863 17-01-2018 14:00:00 4.18333 C 5.44 g/m*3 0.47 C 16.76667 km/h
1864 17-01-2018 15:00:00 4.14167 C 5.48 g/m*3 0.54 C 15.96667 km/h
1865 17-01-2018 16:00:00 3.99167 C 5.47 g/m*3 0.35 C 15.96667 km/h
1866 17-01-2018 17:00:00 3.975 C 5.28 g/m*3 0.4 C 15.56667 km/h
1867 17-01-2018 18:00:00 4.35833 C 5.11 g/m*3 1.44 C 12.23333 km/h
1868 17-01-2018 19:00:00 3.975 C 4.97 g/m*3 1.48 C 9.79167 km/h
1869 17-01-2018 20:00:00 3.88333 C 4.97 g/m*3 1.13 C 10.9 km/h
1870 17-01-2018 21:00:00 3.675 C 4.98 g/m*3 1.38 C 8.73333 km/h
1871 17-01-2018 22:00:00 3.88333 C 5.09 g/m*3 1.1 C 11.025 km/h
1872 17-01-2018 23:00:00 3.41667 C 5.2 g/m*3 1.58 C 6.95833 km/h
1873 18-01-2018 00:00:00 3.40833 C 5.34 g/m*3 0.8 C 9.80833 km/h
1874 18-01-2018 01:00:00 3.825 C 5.46 g/m*3 1.26 C 9.96667 km/h
1875 18-01-2018 02:00:00 4.05833 C 5.59 g/m*3 1.6 C 9.69167 km/h
Sensor: Nr:Datum:Temp:Abs-Feuchte:Windchill:Wind:
Aussen-T/F 1876 18-01-2018 03:00:00 4.2 C 5.7 g/m*3 1.93 C 9.01667 km/h
1877 18-01-2018 04:00:00 4.91667 C 5.91 g/m*3 2.06 C 12.5 km/h
1878 18-01-2018 05:00:00 4.66667 C 5.97 g/m*3 3.57 C 5.35833 km/h
1879 18-01-2018 06:00:00 4.29167 C 5.96 g/m*3 0.23 C 19.56667 km/h
1880 18-01-2018 07:00:00 4.70833 C 6.05 g/m*3 0.03 C 26.15 km/h
1881 18-01-2018 08:00:00 5.36667 C 6.33 g/m*3 2.18 C 15.16667 km/h
1882 18-01-2018 09:00:00 6.73333 C 6.97 g/m*3 3.9 C 14.9 km/h
1883 18-01-2018 10:00:00 8.55 C 7.67 g/m*3 5.34 C 22.11667 km/h
1884 18-01-2018 11:00:00 9.825 C 7.6 g/m*3 6.58 C 26.81667 km/h
1885 18-01-2018 12:00:00 10.96667 C 6.46 g/m*3 7.58 C 34.2 km/h
1886 18-01-2018 13:00:00 9.29167 C 5.91 g/m*3 5.58 C 30.96667 km/h
1887 18-01-2018 14:00:00 7.975 C 5.67 g/m*3 4.67 C 21.45 km/h
1888 18-01-2018 15:00:00 8.25 C 5.45 g/m*3 5.2 C 19.70833 km/h
1889 18-01-2018 16:00:00 7.84167 C 5.26 g/m*3 4.73 C 19.3 km/h
1890 18-01-2018 17:00:00 6.88333 C 5.2 g/m*3 4.71 C 11.03333 km/h
1891 18-01-2018 18:00:00 5.96667 C 5.26 g/m*3 4.58 C 6.83333 km/h
1892 18-01-2018 19:00:00 4.575 C 5.32 g/m*3 4.58 C 4.26667 km/h
1893 18-01-2018 20:00:00 3.75 C 5.34 g/m*3 3.75 C 4 km/h
1894 18-01-2018 21:00:00 4.175 C 5.58 g/m*3 4.18 C 1.46667 km/h
1895 18-01-2018 22:00:00 4.01667 C 5.63 g/m*3 4.02 C 1.74167 km/h
1896 18-01-2018 23:00:00 4.35833 C 6.04 g/m*3 4.36 C 2.66667 km/h
1897 19-01-2018 00:00:00 4.26667 C 6.07 g/m*3 2.82 C 6.175 km/h
1898 19-01-2018 01:00:00 4.24167 C 5.97 g/m*3 1.68 C 10.34167 km/h
1899 19-01-2018 02:00:00 3.75 C 5.78 g/m*3 3.75 C 1.33333 km/h
1900 19-01-2018 03:00:00 3.55 C 5.77 g/m*3 3.55 C 3.34167 km/h
Sensor: Nr:Datum:Temp:Abs-Feuchte:Windchill:Wind:
Aussen-T/F 1901 19-01-2018 04:00:00 3.38333 C 5.64 g/m*3 2.21 C 5.08333 km/h
1902 19-01-2018 05:00:00 3.75 C 5.64 g/m*3 1.37 C 9.125 km/h
1903 19-01-2018 06:00:00 3.70833 C 5.55 g/m*3 1.45 C 8.60833 km/h
1904 19-01-2018 07:00:00 3.66667 C 5.45 g/m*3 0.73 C 11.56667 km/h
1905 19-01-2018 08:00:00 3.7 C 5.56 g/m*3 1.28 C 9.26667 km/h
1906 19-01-2018 09:00:00 3.825 C 5.63 g/m*3 1.33 C 9.65833 km/h
1907 19-01-2018 10:00:00 4 C 5.43 g/m*3 1.18 C 11.3 km/h
1908 19-01-2018 11:00:00 4.45 C 5.45 g/m*3 1.52 C 12.35833 km/h
1909 19-01-2018 12:00:00 4.675 C 5.36 g/m*3 1.56 C 13.7 km/h
1910 19-01-2018 13:00:00 5.30833 C 5.55 g/m*3 3.25 C 9.01667 km/h
1911 19-01-2018 14:00:00 5.625 C 5.56 g/m*3 5.63 C 4.95833 km/h
1912 19-01-2018 15:00:00 6.04167 C 5.4 g/m*3 4.75 C 6.56667 km/h
1913 19-01-2018 16:00:00 5.40833 C 5.22 g/m*3 5.41 C 4.15 km/h
1914 19-01-2018 17:00:00 4.175 C 5.41 g/m*3 4.18 C 1.6 km/h
1915 19-01-2018 18:00:00 3.85 C 5.44 g/m*3 3.85 C 2.40833 km/h
1916 19-01-2018 19:00:00 2.66667 C 5.15 g/m*3 2.67 C 2 km/h
1917 19-01-2018 20:00:00 2.24167 C 5.11 g/m*3 2.24 C 3.74167 km/h
1918 19-01-2018 21:00:00 2.40833 C 5.14 g/m*3 0.54 C 6.55833 km/h
1919 19-01-2018 22:00:00 3.24167 C 5.23 g/m*3 0.42 C 10.625 km/h
1920 19-01-2018 23:00:00 3.14167 C 5.21 g/m*3 0.48 C 9.81667 km/h
1921 20-01-2018 00:00:00 3.075 C 5.2 g/m*3 0.6 C 9.01667 km/h
1922 20-01-2018 01:00:00 3.29167 C 5.26 g/m*3 1.19 C 7.79167 km/h
1923 20-01-2018 02:00:00 3.56667 C 5.37 g/m*3 1.59 C 7.51667 km/h
1924 20-01-2018 03:00:00 3.49167 C 5.32 g/m*3 0.72 C 10.625 km/h
1925 20-01-2018 04:00:00 3.26667 C 5.27 g/m*3 0.9 C 8.74167 km/h
Sensor: Nr:Datum:Temp:Abs-Feuchte:Windchill:Wind:
Aussen-T/F 1926 20-01-2018 05:00:00 2.525 C 5.15 g/m*3 0.68 C 6.56667 km/h
1927 20-01-2018 06:00:00 2.375 C 5.13 g/m*3 2.38 C 4.14167 km/h
1928 20-01-2018 07:00:00 2.41667 C 5.15 g/m*3 0.96 C 5.475 km/h
1929 20-01-2018 08:00:00 2.7 C 5.21 g/m*3 2.7 C 4.15 km/h
1930 20-01-2018 09:00:00 3.30833 C 5.4 g/m*3 2.02 C 5.35 km/h
1931 20-01-2018 10:00:00 4.275 C 5.66 g/m*3 2.41 C 7.525 km/h
1932 20-01-2018 11:00:00 4.85 C 5.8 g/m*3 3.36 C 6.58333 km/h
1933 20-01-2018 12:00:00 4.99167 C 6.01 g/m*3 4.99 C 0.93333 km/h
1934 20-01-2018 13:00:00 4.65 C 6.05 g/m*3 4.65 C 1.6 km/h
1935 20-01-2018 14:00:00 4.1 C 5.92 g/m*3 4.1 C 0.93333 km/h
1936 20-01-2018 15:00:00 3.325 C 5.69 g/m*3 3.33 C 1.33333 km/h
1937 20-01-2018 16:00:00 2.40833 C 5.36 g/m*3 2.41 C 0.13333 km/h
1938 20-01-2018 17:00:00 2.2 C 5.35 g/m*3 2.2 C 0.93333 km/h
1939 20-01-2018 18:00:00 2.14167 C 5.33 g/m*3 2.14 C 0.13333 km/h
1940 20-01-2018 19:00:00 2.10833 C 5.36 g/m*3 2.11 C 0 km/h
1941 20-01-2018 20:00:00 2.13333 C 5.38 g/m*3 2.13 C 0 km/h
1942 20-01-2018 21:00:00 2.2 C 5.41 g/m*3 2.2 C 0 km/h
1943 20-01-2018 22:00:00 2.08333 C 5.36 g/m*3 2.08 C 0 km/h
1944 20-01-2018 23:00:00 1.94167 C 5.31 g/m*3 1.94 C 0 km/h
1945 21-01-2018 00:00:00 2.25833 C 5.43 g/m*3 2.26 C 3.75 km/h
1946 21-01-2018 01:00:00 2.425 C 5.49 g/m*3 1.06 C 5.24167 km/h
1947 21-01-2018 02:00:00 2.58333 C 5.55 g/m*3 1.13 C 5.51667 km/h
1948 21-01-2018 03:00:00 2.6 C 5.56 g/m*3 0.37 C 7.8 km/h
1949 21-01-2018 04:00:00 2.68333 C 5.54 g/m*3 0.68 C 7.11667 km/h
1950 21-01-2018 05:00:00 2.775 C 5.56 g/m*3 0.32 C 8.73333 km/h
Sensor: Nr:Datum:Temp:Abs-Feuchte:Windchill:Wind:
Aussen-T/F 1951 21-01-2018 06:00:00 2.875 C 5.52 g/m*3 0.62 C 8.05833 km/h
1952 21-01-2018 07:00:00 2.8 C 5.46 g/m*3 1.09 C 6.29167 km/h
1953 21-01-2018 08:00:00 2.34167 C 5.32 g/m*3 2.34 C 3.20833 km/h
1954 21-01-2018 09:00:00 2.425 C 5.42 g/m*3 2.42 C 2.40833 km/h
1955 21-01-2018 10:00:00 2.83333 C 5.53 g/m*3 2.83 C 4.95833 km/h
1956 21-01-2018 11:00:00 3.50833 C 5.69 g/m*3 2.36 C 5.075 km/h
1957 21-01-2018 12:00:00 3.83333 C 5.87 g/m*3 3.83 C 2.94167 km/h
1958 21-01-2018 13:00:00 3.85 C 5.69 g/m*3 2.12 C 6.84167 km/h
1959 21-01-2018 14:00:00 4.075 C 5.81 g/m*3 2.22 C 7.38333 km/h
1960 21-01-2018 15:00:00 4.40833 C 5.68 g/m*3 2.25 C 8.74167 km/h
1961 21-01-2018 16:00:00 3.69167 C 5.55 g/m*3 3.69 C 3.875 km/h
1962 21-01-2018 17:00:00 2.64167 C 5.35 g/m*3 2.64 C 2.26667 km/h
1963 21-01-2018 18:00:00 1.94167 C 5.18 g/m*3 1.94 C 2 km/h
1964 21-01-2018 19:00:00 1.60833 C 5.09 g/m*3 1.61 C 0.53333 km/h
1965 21-01-2018 20:00:00 1.51667 C 5.08 g/m*3 1.52 C 1.06667 km/h
1966 21-01-2018 21:00:00 1.7 C 5.17 g/m*3 1.7 C 0 km/h
1967 21-01-2018 22:00:00 1.90833 C 5.23 g/m*3 1.91 C 0 km/h
1968 21-01-2018 23:00:00 2.225 C 5.35 g/m*3 2.23 C 0 km/h
1969 22-01-2018 00:00:00 2 C 5.28 g/m*3 2 C 0 km/h
1970 22-01-2018 01:00:00 1.475 C 5.11 g/m*3 1.48 C 0 km/h
1971 22-01-2018 02:00:00 1.725 C 5.24 g/m*3 1.73 C 0 km/h
1972 22-01-2018 03:00:00 2 C 5.33 g/m*3 2 C 0 km/h
1973 22-01-2018 04:00:00 2.175 C 5.4 g/m*3 2.17 C 0 km/h
1974 22-01-2018 05:00:00 2.28333 C 5.44 g/m*3 2.28 C 0 km/h
1975 22-01-2018 06:00:00 2.33333 C 5.46 g/m*3 2.33 C 0 km/h
Sensor: Nr:Datum:Temp:Abs-Feuchte:Windchill:Wind:
Aussen-T/F 1976 22-01-2018 07:00:00 2.63333 C 5.62 g/m*3 2.63 C 0.26667 km/h
1977 22-01-2018 08:00:00 3.16667 C 5.83 g/m*3 3.17 C 1.6 km/h
1978 22-01-2018 09:00:00 4.3 C 6.29 g/m*3 2.22 C 8.34167 km/h
1979 22-01-2018 10:00:00 5.30833 C 6.73 g/m*3 2.92 C 10.49167 km/h
1980 22-01-2018 11:00:00 6.2 C 7.06 g/m*3 4.19 C 9.54167 km/h
1981 22-01-2018 12:00:00 6.91667 C 7.33 g/m*3 5.54 C 7.38333 km/h
1982 22-01-2018 13:00:00 7.73333 C 7.65 g/m*3 6.74 C 6.425 km/h
1983 22-01-2018 14:00:00 7.94167 C 7.67 g/m*3 7.94 C 4.54167 km/h
1984 22-01-2018 15:00:00 8.05 C 7.71 g/m*3 8.05 C 2.13333 km/h
1985 22-01-2018 16:00:00 7.65 C 7.59 g/m*3 7.65 C 0.66667 km/h
1986 22-01-2018 17:00:00 7.175 C 7.38 g/m*3 7.18 C 1.86667 km/h
1987 22-01-2018 18:00:00 7.125 C 7.3 g/m*3 7.13 C 2.4 km/h
1988 22-01-2018 19:00:00 7.18333 C 7.1 g/m*3 7.18 C 4.68333 km/h
1989 22-01-2018 20:00:00 7.05 C 6.85 g/m*3 7.05 C 4.81667 km/h
1990 22-01-2018 21:00:00 6.90833 C 6.64 g/m*3 5.5 C 7.51667 km/h
1991 22-01-2018 22:00:00 6.85 C 6.56 g/m*3 5.42 C 7.53333 km/h
1992 22-01-2018 23:00:00 6.59167 C 6.72 g/m*3 5.54 C 6.05 km/h
1993 23-01-2018 00:00:00 6.25 C 6.68 g/m*3 5.24 C 5.76667 km/h
1994 23-01-2018 01:00:00 6.075 C 6.69 g/m*3 6.08 C 4.80833 km/h
1995 23-01-2018 02:00:00 5.825 C 6.64 g/m*3 5.83 C 4.95 km/h
1996 23-01-2018 03:00:00 5.81667 C 6.67 g/m*3 4.52 C 6.44167 km/h
1997 23-01-2018 04:00:00 5.86667 C 6.63 g/m*3 5.87 C 4.94167 km/h
1998 23-01-2018 05:00:00 5.8 C 6.58 g/m*3 4.63 C 6.05 km/h
1999 23-01-2018 06:00:00 5.7 C 6.55 g/m*3 5.7 C 3.73333 km/h
2000 23-01-2018 07:00:00 5.8 C 6.65 g/m*3 5.8 C 4.41667 km/h
Sensor: Nr:Datum:Temp:Abs-Feuchte:Windchill:Wind:
Aussen-T/F 2001 23-01-2018 08:00:00 5.89167 C 6.68 g/m*3 5.89 C 3.33333 km/h
2002 23-01-2018 09:00:00 5.94167 C 6.72 g/m*3 5.94 C 2.93333 km/h
2003 23-01-2018 10:00:00 6.35833 C 6.91 g/m*3 6.36 C 2.66667 km/h
2004 23-01-2018 11:00:00 7.05833 C 7.16 g/m*3 7.06 C 0.26667 km/h
2005 23-01-2018 12:00:00 7.70833 C 7.29 g/m*3 7.71 C 1.06667 km/h
2006 23-01-2018 13:00:00 8.48333 C 7.35 g/m*3 7.4 C 7.25833 km/h
2007 23-01-2018 14:00:00 8.91667 C 7.36 g/m*3 7.81 C 7.65 km/h
2008 23-01-2018 15:00:00 9.05 C 7.16 g/m*3 7.53 C 9.80833 km/h
2009 23-01-2018 16:00:00 8.65833 C 7.09 g/m*3 7.39 C 8.2 km/h
2010 23-01-2018 17:00:00 8.225 C 6.96 g/m*3 6.91 C 8.05833 km/h
2011 23-01-2018 18:00:00 8.55 C 7.05 g/m*3 7.72 C 6.31667 km/h
2012 23-01-2018 19:00:00 8.225 C 7.2 g/m*3 8.23 C 4.40833 km/h
2013 23-01-2018 20:00:00 8.66667 C 7.35 g/m*3 7.28 C 8.74167 km/h
2014 23-01-2018 21:00:00 9.15833 C 7.61 g/m*3 7.32 C 11.825 km/h
2015 23-01-2018 22:00:00 9.425 C 7.84 g/m*3 7.25 C 14.63333 km/h
2016 23-01-2018 23:00:00 9.44167 C 8.01 g/m*3 7.86 C 10.63333 km/h
2017 24-01-2018 00:00:00 9.675 C 8.21 g/m*3 7.26 C 17.175 km/h
2018 24-01-2018 01:00:00 9.95 C 8.37 g/m*3 7.6 C 17.16667 km/h
2019 24-01-2018 02:00:00 10.16667 C 8.54 g/m*3 8.41 C 12.75833 km/h
2020 24-01-2018 03:00:00 10.31667 C 8.63 g/m*3 8.47 C 13.7 km/h
2021 24-01-2018 04:00:00 10.59167 C 8.78 g/m*3 9.12 C 11.425 km/h
2022 24-01-2018 05:00:00 10.65 C 8.86 g/m*3 9.63 C 8.73333 km/h
2023 24-01-2018 06:00:00 10.65833 C 8.9 g/m*3 10.66 C 1.6 km/h
2024 24-01-2018 07:00:00 10.91667 C 8.96 g/m*3 10.92 C 4.00833 km/h
2025 24-01-2018 08:00:00 10.875 C 8.94 g/m*3 10.88 C 3.2 km/h
Sensor: Nr:Datum:Temp:Abs-Feuchte:Windchill:Wind:
Aussen-T/F 2026 24-01-2018 09:00:00 11.21667 C 9.11 g/m*3 11.22 C 3.06667 km/h
2027 24-01-2018 10:00:00 11.675 C 9.27 g/m*3 11.68 C 1.73333 km/h
2028 24-01-2018 11:00:00 11.91667 C 9.29 g/m*3 11.92 C 3.46667 km/h
2029 24-01-2018 12:00:00 11.70833 C 9.36 g/m*3 11.71 C 2.53333 km/h
2030 24-01-2018 13:00:00 12.075 C 9.48 g/m*3 12.08 C 3.73333 km/h
2031 24-01-2018 14:00:00 12.83333 C 9.56 g/m*3 12.83 C 7.39167 km/h
2032 24-01-2018 15:00:00 12.74167 C 9.39 g/m*3 12.74 C 10.875 km/h
2033 24-01-2018 16:00:00 12.35833 C 9.26 g/m*3 12.36 C 4.41667 km/h
2034 24-01-2018 17:00:00 12.05 C 9.01 g/m*3 12.05 C 6.04167 km/h
2035 24-01-2018 18:00:00 11.825 C 8.73 g/m*3 11.83 C 8.59167 km/h
2036 24-01-2018 19:00:00 11.91667 C 8.58 g/m*3 11.92 C 6.7 km/h
2037 24-01-2018 20:00:00 11.775 C 8.47 g/m*3 11.78 C 9.95833 km/h
2038 24-01-2018 21:00:00 11.91667 C 8.35 g/m*3 11.92 C 17.56667 km/h
2039 24-01-2018 22:00:00 11.825 C 8.25 g/m*3 11.83 C 17.03333 km/h
2040 24-01-2018 23:00:00 11.49167 C 8.2 g/m*3 11.49 C 14.23333 km/h
2041 25-01-2018 00:00:00 11 C 8.15 g/m*3 10.71 C 5.64167 km/h
2042 25-01-2018 01:00:00 10.81667 C 8.19 g/m*3 10.82 C 3.48333 km/h
2043 25-01-2018 02:00:00 11.71667 C 8.44 g/m*3 11.72 C 9.81667 km/h
2044 25-01-2018 03:00:00 11.65 C 8.75 g/m*3 11.65 C 10.875 km/h
2045 25-01-2018 04:00:00 11.1 C 8.79 g/m*3 11.1 C 8.60833 km/h
2046 25-01-2018 05:00:00 10.93333 C 8.76 g/m*3 10.14 C 7.79167 km/h
2047 25-01-2018 06:00:00 10.96667 C 8.86 g/m*3 10.24 C 7.51667 km/h
2048 25-01-2018 07:00:00 11.13333 C 8.98 g/m*3 11.13 C 9.16667 km/h
2049 25-01-2018 08:00:00 11.025 C 9.04 g/m*3 11.03 C 6.56667 km/h
2050 25-01-2018 09:00:00 10.18333 C 8.91 g/m*3 10.18 C 0.4 km/h
Sensor: Nr:Datum:Temp:Abs-Feuchte:Windchill:Wind:
Aussen-T/F 2051 25-01-2018 10:00:00 9.75833 C 8.78 g/m*3 9.76 C 0.66667 km/h
2052 25-01-2018 11:00:00 9.425 C 8.61 g/m*3 9.43 C 3.60833 km/h
2053 25-01-2018 12:00:00 9.84167 C 8.93 g/m*3 9.84 C 0.4 km/h
2054 25-01-2018 13:00:00 10.18333 C 9.13 g/m*3 10.18 C 0.66667 km/h
2055 25-01-2018 14:00:00 10.35833 C 9.18 g/m*3 10.36 C 0.4 km/h
2056 25-01-2018 15:00:00 9.94167 C 8.91 g/m*3 9.94 C 0 km/h
2057 25-01-2018 16:00:00 9.55833 C 8.77 g/m*3 9.56 C 0 km/h
2058 25-01-2018 17:00:00 9.09167 C 8.51 g/m*3 9.09 C 0 km/h
2059 25-01-2018 18:00:00 8.65 C 8.28 g/m*3 8.65 C 1.46667 km/h
2060 25-01-2018 19:00:00 8.34167 C 8.11 g/m*3 8.34 C 0 km/h
2061 25-01-2018 20:00:00 8.25 C 8.09 g/m*3 8.25 C 0 km/h
2062 25-01-2018 21:00:00 8.025 C 7.99 g/m*3 8.03 C 0.26667 km/h
2063 25-01-2018 22:00:00 7.64167 C 7.82 g/m*3 7.64 C 0 km/h
2064 25-01-2018 23:00:00 7.4 C 7.71 g/m*3 7.4 C 0.4 km/h
2065 26-01-2018 00:00:00 7.16667 C 7.6 g/m*3 7.17 C 1.2 km/h
2066 26-01-2018 01:00:00 6.95833 C 7.5 g/m*3 6.96 C 0.8 km/h
2067 26-01-2018 02:00:00 6.73333 C 7.39 g/m*3 6.73 C 0.13333 km/h
2068 26-01-2018 03:00:00 6.6 C 7.32 g/m*3 6.6 C 0 km/h
2069 26-01-2018 04:00:00 6.34167 C 7.2 g/m*3 6.34 C 0 km/h
2070 26-01-2018 05:00:00 6.61667 C 7.33 g/m*3 6.62 C 1.06667 km/h
2071 26-01-2018 06:00:00 6.54167 C 7.29 g/m*3 6.54 C 0 km/h
2072 26-01-2018 07:00:00 6.36667 C 7.21 g/m*3 6.37 C 0 km/h
2073 26-01-2018 08:00:00 6.34167 C 7.2 g/m*3 6.34 C 0 km/h
2074 26-01-2018 09:00:00 6.68333 C 7.38 g/m*3 6.68 C 0 km/h
2075 26-01-2018 10:00:00 7.31667 C 7.69 g/m*3 7.32 C 2.4 km/h
Sensor: Nr:Datum:Temp:Abs-Feuchte:Windchill:Wind:
Aussen-T/F 2076 26-01-2018 11:00:00 7.56667 C 7.8 g/m*3 7.57 C 3.46667 km/h
2077 26-01-2018 12:00:00 7.73333 C 7.8 g/m*3 7.73 C 3.2 km/h
2078 26-01-2018 13:00:00 8.41667 C 8.03 g/m*3 8.42 C 2.8 km/h
2079 26-01-2018 14:00:00 8.775 C 7.94 g/m*3 8.78 C 2.26667 km/h
2080 26-01-2018 15:00:00 8.725 C 7.83 g/m*3 8.73 C 0.26667 km/h
2081 26-01-2018 16:00:00 8.38333 C 7.82 g/m*3 8.38 C 0.13333 km/h
2082 26-01-2018 17:00:00 7.075 C 7.29 g/m*3 7.08 C 2.53333 km/h
2083 26-01-2018 18:00:00 6.125 C 6.95 g/m*3 6.13 C 0.4 km/h
2084 26-01-2018 19:00:00 5.14167 C 6.53 g/m*3 5.14 C 0 km/h
2085 26-01-2018 20:00:00 4.40833 C 6.24 g/m*3 4.41 C 0 km/h
2086 26-01-2018 21:00:00 4.36667 C 6.25 g/m*3 4.37 C 0 km/h
2087 26-01-2018 22:00:00 4.175 C 6.2 g/m*3 4.18 C 0 km/h
2088 26-01-2018 23:00:00 4.375 C 6.32 g/m*3 4.38 C 0.93333 km/h
2089 27-01-2018 00:00:00 4.36667 C 6.32 g/m*3 4.37 C 0.13333 km/h
2090 27-01-2018 01:00:00 4.175 C 6.24 g/m*3 4.18 C 0.26667 km/h
2091 27-01-2018 02:00:00 4.15833 C 6.23 g/m*3 4.16 C 2 km/h
2092 27-01-2018 03:00:00 4.1 C 6.21 g/m*3 4.1 C 2.8 km/h
2093 27-01-2018 04:00:00 4.08333 C 6.2 g/m*3 4.08 C 3.2 km/h
2094 27-01-2018 05:00:00 4.04167 C 6.18 g/m*3 4.04 C 0.93333 km/h
2095 27-01-2018 06:00:00 4.10833 C 6.21 g/m*3 4.11 C 2 km/h
2096 27-01-2018 07:00:00 4.025 C 6.18 g/m*3 4.03 C 1.2 km/h
2097 27-01-2018 08:00:00 3.83333 C 6.1 g/m*3 3.83 C 1.46667 km/h
2098 27-01-2018 09:00:00 3.56667 C 5.99 g/m*3 3.57 C 4.4 km/h
2099 27-01-2018 10:00:00 3.96667 C 6.15 g/m*3 3.97 C 2.13333 km/h
2100 27-01-2018 11:00:00 4.51667 C 6.38 g/m*3 4.52 C 2.8 km/h
Sensor: Nr:Datum:Temp:Abs-Feuchte:Windchill:Wind:
Aussen-T/F 2101 27-01-2018 12:00:00 4.96667 C 6.58 g/m*3 4.97 C 2.53333 km/h
2102 27-01-2018 13:00:00 5.31667 C 6.67 g/m*3 5.32 C 3.06667 km/h
2103 27-01-2018 14:00:00 5.58333 C 6.67 g/m*3 4.39 C 6.01667 km/h
2104 27-01-2018 15:00:00 5.375 C 6.53 g/m*3 5.38 C 2 km/h
2105 27-01-2018 16:00:00 5.60833 C 6.66 g/m*3 5.61 C 4.83333 km/h
2106 27-01-2018 17:00:00 5.34167 C 6.52 g/m*3 3.94 C 6.55833 km/h
2107 27-01-2018 18:00:00 5.21667 C 6.46 g/m*3 5.22 C 3.20833 km/h
2108 27-01-2018 19:00:00 5.36667 C 6.47 g/m*3 5.37 C 2.80833 km/h
2109 27-01-2018 20:00:00 5.325 C 6.41 g/m*3 5.33 C 2.275 km/h
2110 27-01-2018 21:00:00 5.45 C 6.47 g/m*3 5.45 C 3.61667 km/h
2111 27-01-2018 22:00:00 5.59167 C 6.38 g/m*3 3.65 C 8.73333 km/h
2112 27-01-2018 23:00:00 5.50833 C 6.28 g/m*3 3.93 C 7.25 km/h
2113 28-01-2018 00:00:00 5.61667 C 6.39 g/m*3 4.26 C 6.56667 km/h
2114 28-01-2018 01:00:00 5.11667 C 6.3 g/m*3 3.23 C 8.175 km/h
2115 28-01-2018 02:00:00 5.16667 C 6.22 g/m*3 2.23 C 13.3 km/h
2116 28-01-2018 03:00:00 5.525 C 6.27 g/m*3 2.27 C 15.83333 km/h
2117 28-01-2018 04:00:00 5.725 C 6.37 g/m*3 2.39 C 16.76667 km/h
2118 28-01-2018 05:00:00 5.86667 C 6.41 g/m*3 2.21 C 19.59167 km/h
2119 28-01-2018 06:00:00 5.95 C 6.5 g/m*3 2.29 C 19.83333 km/h
2120 28-01-2018 07:00:00 6.075 C 6.58 g/m*3 2.22 C 21.83333 km/h
2121 28-01-2018 08:00:00 6.125 C 6.71 g/m*3 2.89 C 16.76667 km/h
2122 28-01-2018 09:00:00 6.4 C 6.78 g/m*3 3.69 C 13.56667 km/h
2123 28-01-2018 10:00:00 6.925 C 6.95 g/m*3 3.87 C 16.9 km/h
2124 28-01-2018 11:00:00 7.51667 C 7.16 g/m*3 4.78 C 15.56667 km/h
2125 28-01-2018 12:00:00 7.89167 C 7.29 g/m*3 5.26 C 15.43333 km/h
Sensor: Nr:Datum:Temp:Abs-Feuchte:Windchill:Wind:
Aussen-T/F 2126 28-01-2018 13:00:00 8.075 C 7.37 g/m*3 6.17 C 10.89167 km/h
2127 28-01-2018 14:00:00 8.29167 C 7.5 g/m*3 6.55 C 10.21667 km/h
2128 28-01-2018 15:00:00 8.85833 C 7.63 g/m*3 6.85 C 12.5 km/h
2129 28-01-2018 16:00:00 8.81667 C 7.58 g/m*3 7.04 C 11.025 km/h
2130 28-01-2018 17:00:00 8.71667 C 7.6 g/m*3 7.11 C 9.95 km/h
2131 28-01-2018 18:00:00 8.68333 C 7.69 g/m*3 6.73 C 11.95 km/h
2132 28-01-2018 19:00:00 8.725 C 7.79 g/m*3 6.56 C 13.43333 km/h
2133 28-01-2018 20:00:00 8.675 C 7.77 g/m*3 6.53 C 13.15833 km/h
2134 28-01-2018 21:00:00 8.7 C 7.78 g/m*3 7.19 C 9.39167 km/h
2135 28-01-2018 22:00:00 8.725 C 7.83 g/m*3 6.95 C 10.9 km/h
2136 28-01-2018 23:00:00 8.8 C 7.88 g/m*3 6.8 C 12.36667 km/h
2137 29-01-2018 00:00:00 9.05 C 7.93 g/m*3 7.36 C 10.75833 km/h
2138 29-01-2018 01:00:00 9.23333 C 7.96 g/m*3 7.93 C 8.875 km/h
2139 29-01-2018 02:00:00 9.2 C 8.03 g/m*3 7.91 C 8.75 km/h
2140 29-01-2018 03:00:00 9.225 C 8.14 g/m*3 8.21 C 7.50833 km/h
2141 29-01-2018 04:00:00 9.48333 C 8.14 g/m*3 7.93 C 10.49167 km/h
2142 29-01-2018 05:00:00 9.63333 C 8.21 g/m*3 7.27 C 16.63333 km/h
2143 29-01-2018 06:00:00 9.625 C 8.14 g/m*3 7.87 C 11.95833 km/h
2144 29-01-2018 07:00:00 9.725 C 8.12 g/m*3 8.03 C 11.69167 km/h
2145 29-01-2018 08:00:00 9.8 C 8.07 g/m*3 8.33 C 10.35 km/h
2146 29-01-2018 09:00:00 10.01667 C 8.11 g/m*3 7.85 C 15.7 km/h
2147 29-01-2018 10:00:00 10.275 C 8.1 g/m*3 8.1 C 16.36667 km/h
2148 29-01-2018 11:00:00 10.4 C 8.08 g/m*3 8.19 C 16.9 km/h
2149 29-01-2018 12:00:00 10.41667 C 7.96 g/m*3 8.49 C 14.5 km/h
2150 29-01-2018 13:00:00 10.40833 C 7.91 g/m*3 8.72 C 12.63333 km/h
Sensor: Nr:Datum:Temp:Abs-Feuchte:Windchill:Wind:
Aussen-T/F 2151 29-01-2018 14:00:00 10.60833 C 7.93 g/m*3 9.16 C 11.29167 km/h
2152 29-01-2018 15:00:00 10.75 C 7.78 g/m*3 8.88 C 14.63333 km/h
2153 29-01-2018 16:00:00 10.475 C 7.8 g/m*3 8.79 C 12.75 km/h
2154 29-01-2018 17:00:00 10.31667 C 7.71 g/m*3 8.47 C 13.68333 km/h
2155 29-01-2018 18:00:00 10.3 C 7.53 g/m*3 7.86 C 18.91667 km/h
2156 29-01-2018 19:00:00 10.1 C 7.66 g/m*3 7.65 C 18.50833 km/h
2157 29-01-2018 20:00:00 9.725 C 7.86 g/m*3 6.98 C 20.5 km/h
2158 29-01-2018 21:00:00 9.525 C 8.03 g/m*3 6.96 C 18.23333 km/h
2159 29-01-2018 22:00:00 9.025 C 8.16 g/m*3 7.4 C 10.35 km/h
2160 29-01-2018 23:00:00 8.575 C 7.76 g/m*3 6.73 C 11.15 km/h
2161 30-01-2018 00:00:00 7.73333 C 7.22 g/m*3 6.43 C 7.65 km/h
2162 30-01-2018 01:00:00 6.80833 C 6.75 g/m*3 5.71 C 6.3 km/h
2163 30-01-2018 02:00:00 6.375 C 6.58 g/m*3 6.38 C 3.86667 km/h
2164 30-01-2018 03:00:00 6.39167 C 6.65 g/m*3 6.39 C 1.73333 km/h
2165 30-01-2018 04:00:00 6.225 C 6.6 g/m*3 6.23 C 1.86667 km/h
2166 30-01-2018 05:00:00 5.675 C 6.47 g/m*3 5.68 C 0.4 km/h
2167 30-01-2018 06:00:00 5.175 C 6.36 g/m*3 5.18 C 1.46667 km/h
2168 30-01-2018 07:00:00 4.725 C 6.25 g/m*3 4.72 C 1.33333 km/h
2169 30-01-2018 08:00:00 4.6 C 6.19 g/m*3 4.6 C 1.33333 km/h
2170 30-01-2018 09:00:00 3.825 C 5.89 g/m*3 3.83 C 3.35833 km/h
2171 30-01-2018 10:00:00 3.64167 C 5.87 g/m*3 3.64 C 2.675 km/h
2172 30-01-2018 11:00:00 3.975 C 6.03 g/m*3 3.98 C 1.46667 km/h
2173 30-01-2018 12:00:00 4.85 C 6.36 g/m*3 4.85 C 1.33333 km/h
2174 30-01-2018 13:00:00 5.89167 C 6.62 g/m*3 5.89 C 2.4 km/h
2175 30-01-2018 14:00:00 7.425 C 6.9 g/m*3 7.43 C 4 km/h
Sensor: Nr:Datum:Temp:Abs-Feuchte:Windchill:Wind:
Aussen-T/F 2176 30-01-2018 15:00:00 7.90833 C 6.81 g/m*3 7.91 C 4.53333 km/h
2177 30-01-2018 16:00:00 7.76667 C 6.32 g/m*3 6.47 C 7.63333 km/h
2178 30-01-2018 17:00:00 6.34167 C 6.17 g/m*3 6.34 C 4.8 km/h
2179 30-01-2018 18:00:00 4.71667 C 5.98 g/m*3 4.72 C 3.33333 km/h
2180 30-01-2018 19:00:00 4.225 C 5.92 g/m*3 4.22 C 0.93333 km/h
2181 30-01-2018 20:00:00 3.90833 C 5.88 g/m*3 3.91 C 0 km/h
2182 30-01-2018 21:00:00 4.03333 C 5.98 g/m*3 4.03 C 1.06667 km/h
2183 30-01-2018 22:00:00 3.89167 C 5.93 g/m*3 3.89 C 0.26667 km/h
2184 30-01-2018 23:00:00 3.75833 C 5.93 g/m*3 3.76 C 0.26667 km/h
2185 31-01-2018 00:00:00 3.84167 C 5.98 g/m*3 3.84 C 0.13333 km/h
2186 31-01-2018 01:00:00 3.96667 C 6.07 g/m*3 3.97 C 1.06667 km/h
2187 31-01-2018 02:00:00 4.61667 C 6.36 g/m*3 4.62 C 0.8 km/h
2188 31-01-2018 03:00:00 6.50833 C 7.26 g/m*3 6.51 C 2.8 km/h
2189 31-01-2018 04:00:00 8.40833 C 8.03 g/m*3 7.79 C 5.49167 km/h
2190 31-01-2018 05:00:00 9.40833 C 8.23 g/m*3 8.13 C 8.88333 km/h
2191 31-01-2018 06:00:00 9.625 C 8.26 g/m*3 7.85 C 12.09167 km/h
2192 31-01-2018 07:00:00 9.31667 C 8.18 g/m*3 7.03 C 15.3 km/h
2193 31-01-2018 08:00:00 9.075 C 8.11 g/m*3 6.24 C 19.70833 km/h
2194 31-01-2018 09:00:00 8.875 C 8.04 g/m*3 6.04 C 19.175 km/h
2195 31-01-2018 10:00:00 9.40833 C 7.97 g/m*3 6.23 C 24.39167 km/h
2196 31-01-2018 11:00:00 9.34167 C 7.88 g/m*3 6.73 C 18.23333 km/h
2197 31-01-2018 12:00:00 9.38333 C 7.97 g/m*3 7.13 C 15.16667 km/h
2198 31-01-2018 13:00:00 9.11667 C 7.93 g/m*3 7 C 13.7 km/h
2199 31-01-2018 14:00:00 8.9 C 7.8 g/m*3 6.85 C 12.9 km/h
2200 31-01-2018 15:00:00 8.78333 C 7.7 g/m*3 6.85 C 11.96667 km/h
Sensor: Nr:Datum:Temp:Abs-Feuchte:Windchill:Wind:
Aussen-T/F 2201 31-01-2018 16:00:00 8.30833 C 7.58 g/m*3 5.7 C 15.96667 km/h
2202 31-01-2018 17:00:00 7.56667 C 7.25 g/m*3 4.57 C 17.7 km/h
2203 31-01-2018 18:00:00 7.23333 C 7.13 g/m*3 4.82 C 12.9 km/h
2204 31-01-2018 19:00:00 6.575 C 6.87 g/m*3 4.39 C 10.75833 km/h
2205 31-01-2018 20:00:00 5.83333 C 6.48 g/m*3 3.5 C 10.75 km/h
2206 31-01-2018 21:00:00 5.65833 C 6.39 g/m*3 2.81 C 13.43333 km/h
2207 31-01-2018 22:00:00 5.60833 C 6.38 g/m*3 3.05 C 11.69167 km/h
2208 31-01-2018 23:00:00 5.15833 C 6.17 g/m*3 2.26 C 13.03333 km/h
2209 01-02-2018 00:00:00 3.53333 C 5.76 g/m*3 3.53 C 4.275 km/h
2210 01-02-2018 01:00:00 3.28333 C 5.73 g/m*3 3.28 C 2.8 km/h
2211 01-02-2018 02:00:00 2.8 C 5.57 g/m*3 2.8 C 3.46667 km/h
2212 01-02-2018 03:00:00 2.49167 C 5.46 g/m*3 2.49 C 2.4 km/h
2213 01-02-2018 04:00:00 1.98333 C 5.31 g/m*3 1.98 C 1.73333 km/h
2214 01-02-2018 05:00:00 1.625 C 5.17 g/m*3 1.63 C 1.46667 km/h
2215 01-02-2018 06:00:00 1.54167 C 5.16 g/m*3 1.54 C 2.66667 km/h
2216 01-02-2018 07:00:00 1.25 C 5.02 g/m*3 1.25 C 2.13333 km/h
2217 01-02-2018 08:00:00 1.525 C 5.11 g/m*3 -1.41 C 9.675 km/h
2218 01-02-2018 09:00:00 2.43333 C 5.34 g/m*3 0.35 C 7.25 km/h
2219 01-02-2018 10:00:00 3.10833 C 5.39 g/m*3 -0.13 C 12.49167 km/h
2220 01-02-2018 11:00:00 3.8 C 5.43 g/m*3 0.35 C 14.49167 km/h
2221 01-02-2018 12:00:00 4.74167 C 5.52 g/m*3 2.06 C 11.40833 km/h
2222 01-02-2018 13:00:00 5.275 C 5.6 g/m*3 2.97 C 10.075 km/h
2223 01-02-2018 14:00:00 5.50833 C 5.53 g/m*3 2.95 C 11.56667 km/h
2224 01-02-2018 15:00:00 5.34167 C 5.68 g/m*3 2.83 C 11.15833 km/h
2225 01-02-2018 16:00:00 4.9 C 5.73 g/m*3 2.17 C 11.825 km/h
Sensor: Nr:Datum:Temp:Abs-Feuchte:Windchill:Wind:
Aussen-T/F 2226 01-02-2018 17:00:00 4.225 C 5.62 g/m*3 2.03 C 8.74167 km/h
2227 01-02-2018 18:00:00 3.625 C 5.57 g/m*3 3.63 C 3.73333 km/h
2228 01-02-2018 19:00:00 2.58333 C 5.28 g/m*3 2.58 C 3.06667 km/h
2229 01-02-2018 20:00:00 2.61667 C 5.23 g/m*3 2.62 C 3.46667 km/h
2230 01-02-2018 21:00:00 2.25 C 5.09 g/m*3 0.18 C 7.10833 km/h
2231 01-02-2018 22:00:00 2.175 C 5.1 g/m*3 -0.08 C 7.64167 km/h
2232 01-02-2018 23:00:00 1.84167 C 4.99 g/m*3 1.84 C 4.95833 km/h
2233 02-02-2018 00:00:00 1.5 C 4.95 g/m*3 1.5 C 4.95 km/h
2234 02-02-2018 01:00:00 1.725 C 5.02 g/m*3 -0.39 C 6.975 km/h
2235 02-02-2018 02:00:00 1.60833 C 4.96 g/m*3 1.61 C 3.46667 km/h
2236 02-02-2018 03:00:00 1.86667 C 5.02 g/m*3 -0.97 C 9.525 km/h
2237 02-02-2018 04:00:00 2.28333 C 5.07 g/m*3 0.34 C 6.725 km/h
2238 02-02-2018 05:00:00 2.65 C 5.2 g/m*3 -0.32 C 10.75833 km/h
2239 02-02-2018 06:00:00 3.13333 C 5.36 g/m*3 -0.71 C 15.96667 km/h
2240 02-02-2018 07:00:00 2.825 C 5.36 g/m*3 -0.53 C 12.76667 km/h
2241 02-02-2018 08:00:00 2.65833 C 5.3 g/m*3 0.45 C 7.76667 km/h
2242 02-02-2018 09:00:00 2.98333 C 5.34 g/m*3 -0.18 C 11.96667 km/h
2243 02-02-2018 10:00:00 3.98333 C 5.58 g/m*3 0.43 C 15.43333 km/h
2244 02-02-2018 11:00:00 4.65833 C 5.73 g/m*3 1.39 C 14.63333 km/h
2245 02-02-2018 12:00:00 4.28333 C 5.8 g/m*3 0.92 C 14.63333 km/h
2246 02-02-2018 13:00:00 4.81667 C 5.92 g/m*3 1.58 C 14.63333 km/h
2247 02-02-2018 14:00:00 5.21667 C 5.96 g/m*3 2.34 C 13.03333 km/h
2248 02-02-2018 15:00:00 4.89167 C 6.04 g/m*3 2.89 C 8.46667 km/h
2249 02-02-2018 16:00:00 4.60833 C 6.05 g/m*3 4.61 C 4.69167 km/h
2250 02-02-2018 17:00:00 4.38333 C 6 g/m*3 2.96 C 6.16667 km/h
Sensor: Nr:Datum:Temp:Abs-Feuchte:Windchill:Wind:
Aussen-T/F 2251 02-02-2018 18:00:00 3.575 C 5.72 g/m*3 3.58 C 1.6 km/h
2252 02-02-2018 19:00:00 3.625 C 5.82 g/m*3 3.63 C 2.53333 km/h
2253 02-02-2018 20:00:00 3.75 C 5.81 g/m*3 3.75 C 2.275 km/h
2254 02-02-2018 21:00:00 3.68333 C 5.83 g/m*3 3.68 C 0 km/h
2255 02-02-2018 22:00:00 3.6 C 5.84 g/m*3 3.6 C 0.4 km/h
2256 02-02-2018 23:00:00 3.6 C 5.88 g/m*3 3.6 C 0 km/h
2257 03-02-2018 00:00:00 3.5 C 5.84 g/m*3 3.5 C 0.66667 km/h
2258 03-02-2018 01:00:00 3.35 C 5.78 g/m*3 3.35 C 0.26667 km/h
2259 03-02-2018 02:00:00 3.3 C 5.71 g/m*3 3.3 C 2.53333 km/h
2260 03-02-2018 03:00:00 3.3 C 5.7 g/m*3 3.3 C 2.13333 km/h
2261 03-02-2018 04:00:00 3.24167 C 5.63 g/m*3 3.24 C 3.46667 km/h
2262 03-02-2018 05:00:00 3.26667 C 5.58 g/m*3 1.91 C 5.50833 km/h
2263 03-02-2018 06:00:00 3.3 C 5.45 g/m*3 3.3 C 4.95 km/h
2264 03-02-2018 07:00:00 3.16667 C 5.34 g/m*3 3.17 C 2.66667 km/h
2265 03-02-2018 08:00:00 2.90833 C 5.32 g/m*3 2.91 C 0.13333 km/h
2266 03-02-2018 09:00:00 3.075 C 5.44 g/m*3 3.08 C 0.13333 km/h
2267 03-02-2018 10:00:00 3.75 C 5.43 g/m*3 3.75 C 2.13333 km/h
2268 03-02-2018 11:00:00 4.55 C 5.39 g/m*3 3.54 C 5.08333 km/h
2269 03-02-2018 12:00:00 4.69167 C 5.18 g/m*3 3.14 C 6.71667 km/h
2270 03-02-2018 13:00:00 5.1 C 5.15 g/m*3 5.1 C 3.75833 km/h
2271 03-02-2018 14:00:00 4.93333 C 5.05 g/m*3 4.93 C 1.075 km/h
2272 03-02-2018 15:00:00 4.81667 C 5.15 g/m*3 3.01 C 7.65833 km/h
2273 03-02-2018 16:00:00 4.59167 C 5.2 g/m*3 4.59 C 1.46667 km/h
2274 03-02-2018 17:00:00 3.91667 C 5.33 g/m*3 3.92 C 0.4 km/h
2275 03-02-2018 18:00:00 2.825 C 5.2 g/m*3 2.83 C 0 km/h
Sensor: Nr:Datum:Temp:Abs-Feuchte:Windchill:Wind:
Aussen-T/F 2276 03-02-2018 19:00:00 2.65 C 5.27 g/m*3 2.65 C 0 km/h
2277 03-02-2018 20:00:00 2.44167 C 5.22 g/m*3 2.44 C 0.4 km/h
2278 03-02-2018 21:00:00 2.475 C 5.23 g/m*3 2.48 C 1.73333 km/h
2279 03-02-2018 22:00:00 1.99167 C 5.09 g/m*3 1.99 C 0.13333 km/h
2280 03-02-2018 23:00:00 2.16667 C 5.23 g/m*3 2.17 C 1.6 km/h
2281 04-02-2018 00:00:00 2.41667 C 5.27 g/m*3 2.42 C 4.66667 km/h
2282 04-02-2018 01:00:00 2.54167 C 5.33 g/m*3 2.54 C 1.46667 km/h
2283 04-02-2018 02:00:00 2.45 C 5.33 g/m*3 2.45 C 0.66667 km/h
2284 04-02-2018 03:00:00 2.4 C 5.36 g/m*3 2.4 C 1.46667 km/h
2285 04-02-2018 04:00:00 2.4 C 5.37 g/m*3 2.4 C 2.4 km/h
2286 04-02-2018 05:00:00 2.475 C 5.39 g/m*3 2.48 C 1.73333 km/h
2287 04-02-2018 06:00:00 2.14167 C 5.26 g/m*3 -0.84 C 10.35 km/h
2288 04-02-2018 07:00:00 1.54167 C 4.92 g/m*3 -1.92 C 11.95833 km/h
2289 04-02-2018 08:00:00 0.94167 C 4.51 g/m*3 -3.45 C 16.1 km/h
2290 04-02-2018 09:00:00 0.525 C 4.29 g/m*3 -2.78 C 10.35833 km/h
2291 04-02-2018 10:00:00 0.23333 C 4.29 g/m*3 -2.73 C 8.875 km/h
2292 04-02-2018 11:00:00 0.41667 C 4.18 g/m*3 -3.23 C 11.69167 km/h
2293 04-02-2018 12:00:00 0.65833 C 3.95 g/m*3 -3.2 C 12.9 km/h
2294 04-02-2018 13:00:00 1.04167 C 3.93 g/m*3 -2.53 C 11.96667 km/h
2295 04-02-2018 14:00:00 1.54167 C 3.85 g/m*3 -1.87 C 11.7 km/h
2296 04-02-2018 15:00:00 1.49167 C 3.93 g/m*3 -1.65 C 10.48333 km/h
2297 04-02-2018 16:00:00 1.3 C 4.11 g/m*3 -1.98 C 10.89167 km/h
2298 04-02-2018 17:00:00 0.8 C 4.21 g/m*3 -2.7 C 11.425 km/h
2299 04-02-2018 18:00:00 0.30833 C 4.35 g/m*3 -2.68 C 9.00833 km/h
2300 04-02-2018 19:00:00 -0.05833 C 4.39 g/m*3 -2.56 C 7.24167 km/h
Sensor: Nr:Datum:Temp:Abs-Feuchte:Windchill:Wind:
Aussen-T/F 2301 04-02-2018 20:00:00 -0.05833 C 4.39 g/m*3 -0.06 C 3.35 km/h
2302 04-02-2018 21:00:00 0 C 4.41 g/m*3 0 C 4.40833 km/h
2303 04-02-2018 22:00:00 -0.09167 C 4.37 g/m*3 -0.09 C 0.4 km/h
2304 04-02-2018 23:00:00 0.025 C 4.4 g/m*3 0.03 C 1.06667 km/h
2305 05-02-2018 00:00:00 0.14167 C 4.32 g/m*3 0.14 C 1.73333 km/h
2306 05-02-2018 01:00:00 0.34167 C 4.24 g/m*3 0.34 C 4.55833 km/h
2307 05-02-2018 02:00:00 0.4 C 4.23 g/m*3 0.4 C 2.4 km/h
2308 05-02-2018 03:00:00 0.4 C 4.21 g/m*3 0.4 C 2.675 km/h
2309 05-02-2018 04:00:00 0.4 C 4.23 g/m*3 0.4 C 3.48333 km/h
2310 05-02-2018 05:00:00 0.38333 C 4.23 g/m*3 -1.42 C 5.60833 km/h
2311 05-02-2018 06:00:00 0.3 C 4.25 g/m*3 0.3 C 1.2 km/h
2312 05-02-2018 07:00:00 0.18333 C 4.21 g/m*3 0.18 C 2.40833 km/h
2313 05-02-2018 08:00:00 -0.525 C 4.01 g/m*3 -0.53 C 4.54167 km/h
2314 05-02-2018 09:00:00 -1.04167 C 3.95 g/m*3 -1.04 C 0.66667 km/h
2315 05-02-2018 10:00:00 -0.875 C 4.01 g/m*3 -0.88 C 2.275 km/h
2316 05-02-2018 11:00:00 0.325 C 4.09 g/m*3 -1.83 C 6.45 km/h
2317 05-02-2018 12:00:00 1.19167 C 4.12 g/m*3 -1.05 C 7.10833 km/h
2318 05-02-2018 13:00:00 1.85833 C 4.16 g/m*3 -0.05 C 6.43333 km/h
2319 05-02-2018 14:00:00 2.49167 C 4.21 g/m*3 1.15 C 5.21667 km/h
2320 05-02-2018 15:00:00 2.88333 C 4.21 g/m*3 0.79 C 7.525 km/h
2321 05-02-2018 16:00:00 2.6 C 4.23 g/m*3 0.67 C 6.85 km/h
2322 05-02-2018 17:00:00 1.05 C 4.21 g/m*3 1.05 C 2.4 km/h
2323 05-02-2018 18:00:00 -0.05833 C 4.11 g/m*3 -0.06 C 2 km/h
2324 05-02-2018 19:00:00 -0.225 C 4.03 g/m*3 -2.13 C 5.64167 km/h
2325 05-02-2018 20:00:00 -0.56667 C 3.9 g/m*3 -0.57 C 3.73333 km/h
Sensor: Nr:Datum:Temp:Abs-Feuchte:Windchill:Wind:
Aussen-T/F 2326 05-02-2018 21:00:00 -0.56667 C 3.88 g/m*3 -0.57 C 2.93333 km/h
2327 05-02-2018 22:00:00 -1.45 C 3.75 g/m*3 -1.45 C 1.2 km/h
2328 05-02-2018 23:00:00 -1.85833 C 3.69 g/m*3 -1.86 C 1.2 km/h
2329 06-02-2018 00:00:00 -2.16667 C 3.62 g/m*3 -2.17 C 1.2 km/h
2330 06-02-2018 01:00:00 -2.275 C 3.63 g/m*3 -2.28 C 0.26667 km/h
2331 06-02-2018 02:00:00 -1.775 C 3.69 g/m*3 -1.78 C 2.40833 km/h
2332 06-02-2018 03:00:00 -1.3 C 3.7 g/m*3 -1.3 C 2.53333 km/h
2333 06-02-2018 04:00:00 -1.23333 C 3.68 g/m*3 -1.23 C 2.54167 km/h
2334 06-02-2018 05:00:00 -1.05 C 3.75 g/m*3 -1.05 C 2 km/h
2335 06-02-2018 06:00:00 -0.83333 C 3.78 g/m*3 -0.83 C 4.81667 km/h
2336 06-02-2018 07:00:00 -0.8 C 3.79 g/m*3 -0.8 C 4.28333 km/h
2337 06-02-2018 08:00:00 -0.86667 C 3.89 g/m*3 -0.87 C 4.69167 km/h
2338 06-02-2018 09:00:00 -1.075 C 4.04 g/m*3 -3.38 C 6.3 km/h
2339 06-02-2018 10:00:00 -0.85 C 4.13 g/m*3 -2.71 C 5.34167 km/h
2340 06-02-2018 11:00:00 -0.58333 C 4.22 g/m*3 -2.71 C 6.03333 km/h
2341 06-02-2018 12:00:00 -0.46667 C 4.27 g/m*3 -2.72 C 6.40833 km/h
2342 06-02-2018 13:00:00 -0.55 C 4.31 g/m*3 -2.66 C 6.00833 km/h
2343 06-02-2018 14:00:00 -0.325 C 4.43 g/m*3 -2.18 C 5.48333 km/h
2344 06-02-2018 15:00:00 -0.06667 C 4.47 g/m*3 -0.07 C 4.13333 km/h
2345 06-02-2018 16:00:00 0.15 C 4.43 g/m*3 -1.52 C 5.21667 km/h
2346 06-02-2018 17:00:00 0.13333 C 4.42 g/m*3 0.13 C 0.13333 km/h
2347 06-02-2018 18:00:00 -0.15833 C 4.39 g/m*3 -0.16 C 0 km/h
2348 06-02-2018 19:00:00 -0.075 C 4.43 g/m*3 -0.08 C 0.53333 km/h
2349 06-02-2018 20:00:00 -0.31667 C 4.36 g/m*3 -0.32 C 0.26667 km/h
2350 06-02-2018 21:00:00 -0.45833 C 4.35 g/m*3 -0.46 C 0 km/h
Sensor: Nr:Datum:Temp:Abs-Feuchte:Windchill:Wind:
Aussen-T/F 2351 06-02-2018 22:00:00 -0.54167 C 4.34 g/m*3 -0.54 C 0 km/h
2352 06-02-2018 23:00:00 -1.25 C 4.12 g/m*3 -1.25 C 0.53333 km/h
2353 07-02-2018 00:00:00 -1.28333 C 4.17 g/m*3 -1.28 C 0.26667 km/h
2354 07-02-2018 01:00:00 -0.69167 C 4.35 g/m*3 -0.69 C 0.13333 km/h
2355 07-02-2018 02:00:00 -0.6 C 4.37 g/m*3 -0.6 C 0 km/h
2356 07-02-2018 03:00:00 -0.6 C 4.37 g/m*3 -0.6 C 0 km/h
2357 07-02-2018 04:00:00 -0.68333 C 4.34 g/m*3 -0.68 C 0.4 km/h
2358 07-02-2018 05:00:00 -1.03333 C 4.26 g/m*3 -1.03 C 0.66667 km/h
2359 07-02-2018 06:00:00 -0.76667 C 4.36 g/m*3 -0.77 C 0.13333 km/h
2360 07-02-2018 07:00:00 -0.675 C 4.37 g/m*3 -0.68 C 0.4 km/h
2361 07-02-2018 08:00:00 -0.63333 C 4.37 g/m*3 -0.63 C 0 km/h
2362 07-02-2018 09:00:00 -0.025 C 4.55 g/m*3 -0.03 C 0.4 km/h
2363 07-02-2018 10:00:00 0.48333 C 4.65 g/m*3 0.48 C 1.6 km/h
2364 07-02-2018 11:00:00 0.8 C 4.66 g/m*3 0.8 C 1.86667 km/h
2365 07-02-2018 12:00:00 1.44167 C 4.74 g/m*3 1.44 C 3.73333 km/h
2366 07-02-2018 13:00:00 1.51667 C 4.73 g/m*3 -1.01 C 8.19167 km/h
2367 07-02-2018 14:00:00 1.36667 C 4.68 g/m*3 -1.6 C 9.66667 km/h
2368 07-02-2018 15:00:00 1.11667 C 4.63 g/m*3 -1.28 C 7.51667 km/h
2369 07-02-2018 16:00:00 0.7 C 4.52 g/m*3 -2.54 C 10.225 km/h
2370 07-02-2018 17:00:00 0.44167 C 4.46 g/m*3 0.44 C 4.95833 km/h
2371 07-02-2018 18:00:00 0.40833 C 4.47 g/m*3 0.41 C 2.13333 km/h
2372 07-02-2018 19:00:00 0.05833 C 4.38 g/m*3 0.06 C 0.93333 km/h
2373 07-02-2018 20:00:00 -0.46667 C 4.22 g/m*3 -0.47 C 2.93333 km/h
2374 07-02-2018 21:00:00 -0.9 C 4.13 g/m*3 -0.9 C 2.4 km/h
2375 07-02-2018 22:00:00 -0.74167 C 4.14 g/m*3 -0.74 C 1.20833 km/h
Sensor: Nr:Datum:Temp:Abs-Feuchte:Windchill:Wind:
Aussen-T/F 2376 07-02-2018 23:00:00 -0.7 C 4.15 g/m*3 -0.7 C 0.26667 km/h
2377 08-02-2018 00:00:00 -0.88333 C 4.06 g/m*3 -0.88 C 1.46667 km/h
2378 08-02-2018 01:00:00 -1.03333 C 3.97 g/m*3 -1.03 C 2 km/h
2379 08-02-2018 02:00:00 -1.34167 C 3.89 g/m*3 -1.34 C 0.53333 km/h
2380 08-02-2018 03:00:00 -2.21667 C 3.72 g/m*3 -2.22 C 0.4 km/h
2381 08-02-2018 04:00:00 -2.81667 C 3.59 g/m*3 -2.82 C 1.06667 km/h
2382 08-02-2018 05:00:00 -3.18333 C 3.53 g/m*3 -3.18 C 1.6 km/h
2383 08-02-2018 06:00:00 -3.33333 C 3.47 g/m*3 -3.33 C 4.28333 km/h
2384 08-02-2018 07:00:00 -3.99167 C 3.31 g/m*3 -3.99 C 1.6 km/h
2385 08-02-2018 08:00:00 -4.33333 C 3.29 g/m*3 -4.33 C 0.93333 km/h
2386 08-02-2018 09:00:00 -3.95833 C 3.41 g/m*3 -3.96 C 0.13333 km/h
2387 08-02-2018 10:00:00 -3.18333 C 3.57 g/m*3 -3.18 C 0.4 km/h
2388 08-02-2018 11:00:00 -1.91667 C 3.77 g/m*3 -1.92 C 1.86667 km/h
2389 08-02-2018 12:00:00 -1 C 3.84 g/m*3 -1 C 3.06667 km/h
2390 08-02-2018 13:00:00 -0.45 C 3.94 g/m*3 -0.45 C 0.4 km/h
2391 08-02-2018 14:00:00 0.29167 C 4.03 g/m*3 0.29 C 0.8 km/h
2392 08-02-2018 15:00:00 0.8 C 4.06 g/m*3 0.8 C 1.06667 km/h
2393 08-02-2018 16:00:00 0.56667 C 4.11 g/m*3 0.57 C 0.13333 km/h
2394 08-02-2018 17:00:00 -0.79167 C 4 g/m*3 -0.79 C 4.13333 km/h
2395 08-02-2018 18:00:00 -1.61667 C 3.85 g/m*3 -1.62 C 3.33333 km/h
2396 08-02-2018 19:00:00 -2.39167 C 3.72 g/m*3 -2.39 C 0 km/h
2397 08-02-2018 20:00:00 -3.125 C 3.57 g/m*3 -3.13 C 0 km/h
2398 08-02-2018 21:00:00 -3.79167 C 3.42 g/m*3 -3.79 C 0 km/h
2399 08-02-2018 22:00:00 -4.225 C 3.32 g/m*3 -4.22 C 0 km/h
2400 08-02-2018 23:00:00 -4.59167 C 3.26 g/m*3 -4.59 C 0 km/h
Sensor: Nr:Datum:Temp:Abs-Feuchte:Windchill:Wind:
Aussen-T/F 2401 09-02-2018 00:00:00 -4.90833 C 3.19 g/m*3 -4.91 C 0 km/h
2402 09-02-2018 01:00:00 -5.00833 C 3.2 g/m*3 -5.01 C 0 km/h
2403 09-02-2018 02:00:00 -5.31667 C 3.13 g/m*3 -5.32 C 0 km/h
2404 09-02-2018 03:00:00 -5.54167 C 3.08 g/m*3 -5.54 C 0.4 km/h
2405 09-02-2018 04:00:00 -5.81667 C 3.02 g/m*3 -5.82 C 0 km/h
2406 09-02-2018 05:00:00 -5.55833 C 3.1 g/m*3 -5.56 C 0 km/h
2407 09-02-2018 06:00:00 -5.13333 C 3.2 g/m*3 -5.13 C 0 km/h
2408 09-02-2018 07:00:00 -4.75833 C 3.29 g/m*3 -4.76 C 0.66667 km/h
2409 09-02-2018 08:00:00 -3.79167 C 3.53 g/m*3 -3.79 C 0.13333 km/h
2410 09-02-2018 09:00:00 -2.65 C 3.84 g/m*3 -2.65 C 0 km/h
2411 09-02-2018 10:00:00 -1.625 C 4.11 g/m*3 -1.63 C 0 km/h
2412 09-02-2018 11:00:00 -0.54167 C 4.4 g/m*3 -0.54 C 0.13333 km/h
2413 09-02-2018 12:00:00 0.24167 C 4.42 g/m*3 -1.81 C 6.16667 km/h
2414 09-02-2018 13:00:00 0.675 C 4.41 g/m*3 -1.36 C 6.29167 km/h
2415 09-02-2018 14:00:00 0.8 C 4.43 g/m*3 0.8 C 4.8 km/h
2416 09-02-2018 15:00:00 0.8 C 4.47 g/m*3 0.8 C 2.66667 km/h
2417 09-02-2018 16:00:00 0.78333 C 4.53 g/m*3 0.78 C 2.8 km/h
2418 09-02-2018 17:00:00 0.65 C 4.56 g/m*3 0.65 C 0 km/h
2419 09-02-2018 18:00:00 0.525 C 4.57 g/m*3 0.53 C 0.53333 km/h
2420 09-02-2018 19:00:00 0.16667 C 4.48 g/m*3 0.17 C 1.2 km/h
2421 09-02-2018 20:00:00 -0.50833 C 4.31 g/m*3 -0.51 C 0.93333 km/h
2422 09-02-2018 21:00:00 -0.325 C 4.41 g/m*3 -0.33 C 0 km/h
2423 09-02-2018 22:00:00 -0.175 C 4.46 g/m*3 -0.18 C 0 km/h
2424 09-02-2018 23:00:00 -0.025 C 4.55 g/m*3 -0.03 C 0 km/h
2425 10-02-2018 00:00:00 0.25 C 4.59 g/m*3 0.25 C 0.66667 km/h
Sensor: Nr:Datum:Temp:Abs-Feuchte:Windchill:Wind:
Aussen-T/F 2426 10-02-2018 01:00:00 0.61667 C 4.61 g/m*3 0.62 C 1.86667 km/h
2427 10-02-2018 02:00:00 1.01667 C 4.69 g/m*3 1.02 C 2.8 km/h
2428 10-02-2018 03:00:00 1.14167 C 4.72 g/m*3 1.14 C 2.80833 km/h
2429 10-02-2018 04:00:00 1.275 C 4.81 g/m*3 1.27 C 3.60833 km/h
2430 10-02-2018 05:00:00 1.2 C 4.83 g/m*3 1.2 C 2.00833 km/h
2431 10-02-2018 06:00:00 1.33333 C 4.86 g/m*3 -0.4 C 5.75833 km/h
2432 10-02-2018 07:00:00 1.49167 C 4.88 g/m*3 -0.66 C 6.975 km/h
2433 10-02-2018 08:00:00 1.39167 C 4.85 g/m*3 -0.22 C 5.49167 km/h
2434 10-02-2018 09:00:00 1.55 C 4.9 g/m*3 1.55 C 4.15833 km/h
2435 10-02-2018 10:00:00 2.04167 C 4.95 g/m*3 0.02 C 6.84167 km/h
2436 10-02-2018 11:00:00 2.775 C 5.04 g/m*3 1.26 C 5.75833 km/h
2437 10-02-2018 12:00:00 3.4 C 5.15 g/m*3 0.67 C 10.35833 km/h
2438 10-02-2018 13:00:00 3.85833 C 5.24 g/m*3 0.68 C 13.03333 km/h
2439 10-02-2018 14:00:00 4.31667 C 5.36 g/m*3 1.17 C 13.43333 km/h
2440 10-02-2018 15:00:00 4.26667 C 5.4 g/m*3 2.37 C 7.65833 km/h
2441 10-02-2018 16:00:00 3.96667 C 5.39 g/m*3 2.26 C 6.84167 km/h
2442 10-02-2018 17:00:00 3.35 C 5.33 g/m*3 1.18 C 8.05833 km/h
2443 10-02-2018 18:00:00 3.025 C 5.3 g/m*3 1.59 C 5.625 km/h
2444 10-02-2018 19:00:00 3.10833 C 5.29 g/m*3 0.97 C 7.79167 km/h
2445 10-02-2018 20:00:00 2.83333 C 5.09 g/m*3 0.98 C 6.71667 km/h
2446 10-02-2018 21:00:00 1.9 C 4.77 g/m*3 1.9 C 3.2 km/h
2447 10-02-2018 22:00:00 1.51667 C 4.62 g/m*3 1.52 C 4.41667 km/h
2448 10-02-2018 23:00:00 1.71667 C 4.62 g/m*3 -0.74 C 8.05833 km/h
2449 11-02-2018 00:00:00 1.95 C 4.61 g/m*3 0.42 C 5.49167 km/h
2450 11-02-2018 01:00:00 1.98333 C 4.66 g/m*3 1.98 C 4.13333 km/h
Sensor: Nr:Datum:Temp:Abs-Feuchte:Windchill:Wind:
Aussen-T/F 2451 11-02-2018 02:00:00 2.225 C 4.64 g/m*3 2.23 C 4.55 km/h
2452 11-02-2018 03:00:00 2.35 C 4.59 g/m*3 0.62 C 6.16667 km/h
2453 11-02-2018 04:00:00 2.525 C 4.64 g/m*3 0.92 C 5.88333 km/h
2454 11-02-2018 05:00:00 2.63333 C 4.79 g/m*3 0.85 C 6.44167 km/h
2455 11-02-2018 06:00:00 2.08333 C 4.91 g/m*3 2.08 C 3.06667 km/h
2456 11-02-2018 07:00:00 2.24167 C 4.97 g/m*3 2.24 C 3.075 km/h
2457 11-02-2018 08:00:00 2.98333 C 5.16 g/m*3 0.68 C 8.31667 km/h
2458 11-02-2018 09:00:00 3.4 C 5.29 g/m*3 3.4 C 4.68333 km/h
2459 11-02-2018 10:00:00 3.80833 C 5.45 g/m*3 0.07 C 16.35833 km/h
2460 11-02-2018 11:00:00 4.125 C 5.53 g/m*3 -0.38 C 22.90833 km/h
2461 11-02-2018 12:00:00 5.05 C 5.77 g/m*3 2.06 C 13.425 km/h
2462 11-02-2018 13:00:00 5.81667 C 5.81 g/m*3 2.71 C 15.3 km/h
2463 11-02-2018 14:00:00 5.94167 C 5.95 g/m*3 3.43 C 11.83333 km/h
2464 11-02-2018 15:00:00 5.86667 C 6 g/m*3 2.81 C 15.03333 km/h
2465 11-02-2018 16:00:00 5.56667 C 5.97 g/m*3 3 C 11.69167 km/h
2466 11-02-2018 17:00:00 4.94167 C 5.77 g/m*3 2.98 C 8.31667 km/h
2467 11-02-2018 18:00:00 3.8 C 5.49 g/m*3 2.29 C 6.16667 km/h
2468 11-02-2018 19:00:00 2.86667 C 5.37 g/m*3 0.94 C 6.96667 km/h
2469 11-02-2018 20:00:00 2.4 C 5.26 g/m*3 2.4 C 4.825 km/h
2470 11-02-2018 21:00:00 2.00833 C 5.25 g/m*3 2.01 C 2.8 km/h
2471 11-02-2018 22:00:00 1.5 C 5.09 g/m*3 1.5 C 2.4 km/h
2472 11-02-2018 23:00:00 1.74167 C 5.19 g/m*3 1.74 C 3.46667 km/h
2473 12-02-2018 00:00:00 1.78333 C 5.23 g/m*3 -0.78 C 8.46667 km/h
2474 12-02-2018 01:00:00 1.68333 C 5.17 g/m*3 1.68 C 4.425 km/h
2475 12-02-2018 02:00:00 1.475 C 5.12 g/m*3 1.48 C 1.33333 km/h
Sensor: Nr:Datum:Temp:Abs-Feuchte:Windchill:Wind:
Aussen-T/F 2476 12-02-2018 03:00:00 1.35 C 5.09 g/m*3 1.35 C 3.34167 km/h
2477 12-02-2018 04:00:00 1.25 C 5.07 g/m*3 1.25 C 3.46667 km/h
2478 12-02-2018 05:00:00 1.13333 C 5.03 g/m*3 1.13 C 4.41667 km/h
2479 12-02-2018 06:00:00 1.11667 C 5.02 g/m*3 1.12 C 1.46667 km/h
2480 12-02-2018 07:00:00 1.05 C 5 g/m*3 1.05 C 3.34167 km/h
2481 12-02-2018 08:00:00 1.14167 C 5 g/m*3 -0.97 C 6.69167 km/h
2482 12-02-2018 09:00:00 1.725 C 5.14 g/m*3 -0.6 C 7.64167 km/h
2483 12-02-2018 10:00:00 2.44167 C 5.25 g/m*3 -0.01 C 8.48333 km/h
2484 12-02-2018 11:00:00 3.04167 C 5.17 g/m*3 0.03 C 11.3 km/h
2485 12-02-2018 12:00:00 3.59167 C 4.94 g/m*3 0.33 C 13.16667 km/h
2486 12-02-2018 13:00:00 4.71667 C 4.85 g/m*3 1.29 C 15.7 km/h
2487 12-02-2018 14:00:00 4.7 C 4.42 g/m*3 1.5 C 14.23333 km/h
2488 12-02-2018 15:00:00 4.74167 C 4.38 g/m*3 1.34 C 15.56667 km/h
2489 12-02-2018 16:00:00 4.50833 C 4.32 g/m*3 1.8 C 11.3 km/h
2490 12-02-2018 17:00:00 3.43333 C 4.4 g/m*3 1.59 C 6.98333 km/h
2491 12-02-2018 18:00:00 2.20833 C 4.37 g/m*3 0.88 C 5.08333 km/h
2492 12-02-2018 19:00:00 1.69167 C 4.43 g/m*3 1.69 C 3.60833 km/h
2493 12-02-2018 20:00:00 0.90833 C 4.38 g/m*3 0.91 C 2.8 km/h
2494 12-02-2018 21:00:00 0.40833 C 4.36 g/m*3 0.41 C 3.875 km/h
2495 12-02-2018 22:00:00 0.61667 C 4.36 g/m*3 0.62 C 2 km/h
2496 12-02-2018 23:00:00 -0.175 C 4.26 g/m*3 -0.18 C 0 km/h
2497 13-02-2018 00:00:00 -0.81667 C 4.13 g/m*3 -0.82 C 0 km/h
2498 13-02-2018 01:00:00 -1.46667 C 3.98 g/m*3 -1.47 C 0.26667 km/h
2499 13-02-2018 02:00:00 -1.71667 C 3.93 g/m*3 -1.72 C 0.4 km/h
2500 13-02-2018 03:00:00 -1.23333 C 4.1 g/m*3 -1.23 C 2 km/h
Sensor: Nr:Datum:Temp:Abs-Feuchte:Windchill:Wind:
Aussen-T/F 2501 13-02-2018 04:00:00 -1.1 C 4.05 g/m*3 -1.1 C 0.4 km/h
2502 13-02-2018 05:00:00 -2.01667 C 3.83 g/m*3 -2.02 C 0 km/h
2503 13-02-2018 06:00:00 -2.55833 C 3.76 g/m*3 -2.56 C 0 km/h
2504 13-02-2018 07:00:00 -2.94167 C 3.7 g/m*3 -2.94 C 0 km/h
2505 13-02-2018 08:00:00 -3.08333 C 3.67 g/m*3 -3.08 C 0 km/h
2506 13-02-2018 09:00:00 -2.775 C 3.78 g/m*3 -2.78 C 0 km/h
2507 13-02-2018 10:00:00 -2.05 C 3.99 g/m*3 -2.05 C 0.66667 km/h
2508 13-02-2018 11:00:00 0.19167 C 4.6 g/m*3 0.19 C 3.475 km/h
2509 13-02-2018 12:00:00 3.075 C 4.56 g/m*3 1.02 C 7.5 km/h
2510 13-02-2018 13:00:00 4.35833 C 4.31 g/m*3 2.97 C 6.03333 km/h
2511 13-02-2018 14:00:00 4.46667 C 4.17 g/m*3 2.8 C 6.975 km/h
2512 13-02-2018 15:00:00 4.14167 C 4.23 g/m*3 2.87 C 5.63333 km/h
2513 13-02-2018 16:00:00 3.125 C 4.44 g/m*3 3.13 C 2.26667 km/h
2514 13-02-2018 17:00:00 1.81667 C 4.27 g/m*3 1.82 C 2 km/h
2515 13-02-2018 18:00:00 0.14167 C 4.05 g/m*3 0.14 C 1.73333 km/h
2516 13-02-2018 19:00:00 -0.6 C 3.91 g/m*3 -0.6 C 4.26667 km/h
2517 13-02-2018 20:00:00 -1.11667 C 3.8 g/m*3 -1.12 C 0.53333 km/h
2518 13-02-2018 21:00:00 -1.49167 C 3.75 g/m*3 -1.49 C 2.53333 km/h
2519 13-02-2018 22:00:00 -1.76667 C 3.7 g/m*3 -1.77 C 1.86667 km/h
2520 13-02-2018 23:00:00 -2.425 C 3.58 g/m*3 -2.42 C 0.13333 km/h
2521 14-02-2018 00:00:00 -3.00833 C 3.51 g/m*3 -3.01 C 0.66667 km/h
2522 14-02-2018 01:00:00 -3.31667 C 3.46 g/m*3 -3.32 C 0 km/h
2523 14-02-2018 02:00:00 -3.79167 C 3.36 g/m*3 -3.79 C 0 km/h
2524 14-02-2018 03:00:00 -4.10833 C 3.31 g/m*3 -4.11 C 0 km/h
2525 14-02-2018 04:00:00 -4.425 C 3.26 g/m*3 -4.43 C 0 km/h
Sensor: Nr:Datum:Temp:Abs-Feuchte:Windchill:Wind:
Aussen-T/F 2526 14-02-2018 05:00:00 -4.75833 C 3.19 g/m*3 -4.76 C 0 km/h
2527 14-02-2018 06:00:00 -5.15833 C 3.11 g/m*3 -5.16 C 0 km/h
2528 14-02-2018 07:00:00 -5.35833 C 3.09 g/m*3 -5.36 C 0 km/h
2529 14-02-2018 08:00:00 -5.45 C 3.09 g/m*3 -5.45 C 0 km/h
2530 14-02-2018 09:00:00 -5.05833 C 3.19 g/m*3 -5.06 C 0 km/h
2531 14-02-2018 10:00:00 -3.84167 C 3.51 g/m*3 -3.84 C 0.8 km/h
2532 14-02-2018 11:00:00 -1.35833 C 4.07 g/m*3 -1.36 C 1.06667 km/h
2533 14-02-2018 12:00:00 1.69167 C 4.08 g/m*3 -0.6 C 7.51667 km/h
2534 14-02-2018 13:00:00 3.7 C 3.73 g/m*3 1.31 C 9.14167 km/h
2535 14-02-2018 14:00:00 4.15833 C 3.6 g/m*3 2.24 C 7.65 km/h
2536 14-02-2018 15:00:00 4.325 C 3.81 g/m*3 2.89 C 6.175 km/h
2537 14-02-2018 16:00:00 3.625 C 4.02 g/m*3 3.63 C 2.26667 km/h
2538 14-02-2018 17:00:00 1.38333 C 4.06 g/m*3 1.38 C 4.93333 km/h
2539 14-02-2018 18:00:00 -0.25833 C 3.93 g/m*3 -1.91 C 5.06667 km/h
2540 14-02-2018 19:00:00 -0.7 C 3.85 g/m*3 -0.7 C 3.86667 km/h
2541 14-02-2018 20:00:00 -1.05 C 3.81 g/m*3 -1.05 C 0.4 km/h
2542 14-02-2018 21:00:00 -1.2 C 3.8 g/m*3 -1.2 C 1.33333 km/h
2543 14-02-2018 22:00:00 -1.40833 C 3.79 g/m*3 -1.41 C 1.06667 km/h
2544 14-02-2018 23:00:00 -1.16667 C 3.85 g/m*3 -1.17 C 1.33333 km/h
2545 15-02-2018 00:00:00 -0.06667 C 3.92 g/m*3 -0.07 C 3.60833 km/h
2546 15-02-2018 01:00:00 1.10833 C 3.89 g/m*3 -0.49 C 5.35833 km/h
2547 15-02-2018 02:00:00 1.39167 C 3.85 g/m*3 -0.59 C 6.43333 km/h
2548 15-02-2018 03:00:00 1.49167 C 3.82 g/m*3 0.01 C 5.21667 km/h
2549 15-02-2018 04:00:00 1.425 C 3.85 g/m*3 -0.34 C 5.89167 km/h
2550 15-02-2018 05:00:00 1.48333 C 3.97 g/m*3 1.48 C 4.675 km/h
Sensor: Nr:Datum:Temp:Abs-Feuchte:Windchill:Wind:
Aussen-T/F 2551 15-02-2018 06:00:00 0.60833 C 4.4 g/m*3 0.61 C 4.94167 km/h
2552 15-02-2018 07:00:00 0.05 C 4.51 g/m*3 0.05 C 2.80833 km/h
2553 15-02-2018 08:00:00 0.00833 C 4.56 g/m*3 0.01 C 1.6 km/h
2554 15-02-2018 09:00:00 0.375 C 4.67 g/m*3 0.38 C 2.26667 km/h
2555 15-02-2018 10:00:00 1.13333 C 4.87 g/m*3 1.13 C 0.13333 km/h
2556 15-02-2018 11:00:00 1.84167 C 5.07 g/m*3 1.84 C 0.26667 km/h
2557 15-02-2018 12:00:00 2.23333 C 5.25 g/m*3 2.23 C 0.53333 km/h
2558 15-02-2018 13:00:00 2.58333 C 5.42 g/m*3 2.58 C 0 km/h
2559 15-02-2018 14:00:00 2.69167 C 5.48 g/m*3 2.69 C 0.13333 km/h
2560 15-02-2018 15:00:00 2.775 C 5.55 g/m*3 2.78 C 0 km/h
2561 15-02-2018 16:00:00 2.59167 C 5.49 g/m*3 2.59 C 0.13333 km/h
2562 15-02-2018 17:00:00 2.51667 C 5.5 g/m*3 2.52 C 1.73333 km/h
2563 15-02-2018 18:00:00 2.63333 C 5.57 g/m*3 2.63 C 2 km/h
2564 15-02-2018 19:00:00 2.83333 C 5.64 g/m*3 2.83 C 2.26667 km/h
2565 15-02-2018 20:00:00 2.95 C 5.7 g/m*3 2.95 C 3.33333 km/h
2566 15-02-2018 21:00:00 2.99167 C 5.7 g/m*3 2.99 C 2.13333 km/h
2567 15-02-2018 22:00:00 3.31667 C 5.87 g/m*3 3.32 C 3.2 km/h
2568 15-02-2018 23:00:00 3.025 C 5.77 g/m*3 3.03 C 0.93333 km/h
2569 16-02-2018 00:00:00 2.93333 C 5.74 g/m*3 2.93 C 1.86667 km/h
2570 16-02-2018 01:00:00 2.125 C 5.4 g/m*3 2.13 C 0.26667 km/h
2571 16-02-2018 02:00:00 1.63333 C 5.23 g/m*3 1.63 C 0.4 km/h
2572 16-02-2018 03:00:00 1.69167 C 5.28 g/m*3 1.69 C 0.53333 km/h
2573 16-02-2018 04:00:00 1.65833 C 5.27 g/m*3 1.66 C 0 km/h
2574 16-02-2018 05:00:00 1.43333 C 5.19 g/m*3 1.43 C 0 km/h
2575 16-02-2018 06:00:00 1.125 C 5.08 g/m*3 1.13 C 0.93333 km/h
Sensor: Nr:Datum:Temp:Abs-Feuchte:Windchill:Wind:
Aussen-T/F 2576 16-02-2018 07:00:00 0.98333 C 5.03 g/m*3 0.98 C 0.93333 km/h
2577 16-02-2018 08:00:00 1.06667 C 5.06 g/m*3 1.07 C 1.86667 km/h
2578 16-02-2018 09:00:00 1.60833 C 5.25 g/m*3 1.61 C 0.8 km/h
2579 16-02-2018 10:00:00 2.60833 C 5.63 g/m*3 2.61 C 0.93333 km/h
2580 16-02-2018 11:00:00 3.05833 C 5.79 g/m*3 3.06 C 3.86667 km/h
2581 16-02-2018 12:00:00 3.55 C 5.98 g/m*3 3.55 C 4 km/h
2582 16-02-2018 13:00:00 4.13333 C 6.22 g/m*3 4.13 C 1.86667 km/h
2583 16-02-2018 14:00:00 4.45 C 6.31 g/m*3 4.45 C 1.86667 km/h
2584 16-02-2018 15:00:00 4.3 C 6.23 g/m*3 4.3 C 3.33333 km/h
2585 16-02-2018 16:00:00 4.33333 C 6.2 g/m*3 4.33 C 4.4 km/h
2586 16-02-2018 17:00:00 3.46667 C 5.8 g/m*3 1.82 C 6.4 km/h
2587 16-02-2018 18:00:00 2.2 C 5.3 g/m*3 0.88 C 5.06667 km/h
2588 16-02-2018 19:00:00 1.31667 C 5.03 g/m*3 1.32 C 0.93333 km/h
2589 16-02-2018 20:00:00 0.51667 C 4.77 g/m*3 0.52 C 0.13333 km/h
2590 16-02-2018 21:00:00 -0.25833 C 4.52 g/m*3 -0.26 C 0 km/h
2591 16-02-2018 22:00:00 -0.59167 C 4.46 g/m*3 -0.59 C 0 km/h
2592 16-02-2018 23:00:00 -0.95833 C 4.35 g/m*3 -0.96 C 0 km/h
2593 17-02-2018 00:00:00 -1.275 C 4.26 g/m*3 -1.27 C 0 km/h
2594 17-02-2018 01:00:00 -1.59167 C 4.16 g/m*3 -1.59 C 0 km/h
2595 17-02-2018 02:00:00 -1.58333 C 4.17 g/m*3 -1.58 C 0 km/h
2596 17-02-2018 03:00:00 -1.23333 C 4.29 g/m*3 -1.23 C 0.13333 km/h
2597 17-02-2018 04:00:00 -1.15833 C 4.33 g/m*3 -1.16 C 0 km/h
2598 17-02-2018 05:00:00 -0.83333 C 4.44 g/m*3 -0.83 C 0.66667 km/h
2599 17-02-2018 06:00:00 -0.65833 C 4.49 g/m*3 -0.66 C 0.66667 km/h
2600 17-02-2018 07:00:00 -0.50833 C 4.54 g/m*3 -0.51 C 0.53333 km/h
Sensor: Nr:Datum:Temp:Abs-Feuchte:Windchill:Wind:
Aussen-T/F 2601 17-02-2018 08:00:00 -0.275 C 4.61 g/m*3 -0.28 C 0 km/h
2602 17-02-2018 09:00:00 0.38333 C 4.83 g/m*3 0.38 C 0.26667 km/h
2603 17-02-2018 10:00:00 0.875 C 4.99 g/m*3 0.88 C 0.13333 km/h
2604 17-02-2018 11:00:00 1.40833 C 5.18 g/m*3 1.41 C 0.53333 km/h
2605 17-02-2018 12:00:00 1.99167 C 5.31 g/m*3 1.99 C 2.93333 km/h
2606 17-02-2018 13:00:00 2.775 C 5.33 g/m*3 2.78 C 2.93333 km/h
2607 17-02-2018 14:00:00 3.45833 C 5.33 g/m*3 3.46 C 2.8 km/h
2608 17-02-2018 15:00:00 3.84167 C 5.28 g/m*3 3.84 C 4.13333 km/h
2609 17-02-2018 16:00:00 4.04167 C 5.37 g/m*3 4.04 C 0.13333 km/h
2610 17-02-2018 17:00:00 3.05833 C 5.28 g/m*3 3.06 C 3.46667 km/h
2611 17-02-2018 18:00:00 1.49167 C 4.85 g/m*3 1.49 C 4.26667 km/h
2612 17-02-2018 19:00:00 0.40833 C 4.56 g/m*3 0.41 C 1.33333 km/h
2613 17-02-2018 20:00:00 -0.45833 C 4.35 g/m*3 -0.46 C 0 km/h
2614 17-02-2018 21:00:00 -1.05833 C 4.22 g/m*3 -1.06 C 0 km/h
2615 17-02-2018 22:00:00 -1.44167 C 4.12 g/m*3 -1.44 C 0 km/h
2616 17-02-2018 23:00:00 -1.93333 C 3.98 g/m*3 -1.93 C 0.13333 km/h
2617 18-02-2018 00:00:00 -2.13333 C 3.95 g/m*3 -2.13 C 0 km/h
2618 18-02-2018 01:00:00 -2.65 C 3.81 g/m*3 -2.65 C 0 km/h
2619 18-02-2018 02:00:00 -2.94167 C 3.75 g/m*3 -2.94 C 0 km/h
2620 18-02-2018 03:00:00 -3.29167 C 3.66 g/m*3 -3.29 C 0 km/h
2621 18-02-2018 04:00:00 -3.425 C 3.64 g/m*3 -3.43 C 0 km/h
2622 18-02-2018 05:00:00 -3.59167 C 3.59 g/m*3 -3.59 C 0.13333 km/h
2623 18-02-2018 06:00:00 -3.675 C 3.59 g/m*3 -3.68 C 0.26667 km/h
2624 18-02-2018 07:00:00 -3.69167 C 3.59 g/m*3 -3.69 C 0.53333 km/h
2625 18-02-2018 08:00:00 -3.71667 C 3.58 g/m*3 -3.72 C 1.46667 km/h
Sensor: Nr:Datum:Temp:Abs-Feuchte:Windchill:Wind:
Aussen-T/F 2626 18-02-2018 09:00:00 -3.45833 C 3.65 g/m*3 -3.46 C 2.26667 km/h
2627 18-02-2018 10:00:00 -2.85833 C 3.81 g/m*3 -2.86 C 1.2 km/h
2628 18-02-2018 11:00:00 -1.83333 C 4.11 g/m*3 -1.83 C 0.53333 km/h
2629 18-02-2018 12:00:00 -0.55 C 4.5 g/m*3 -0.55 C 1.46667 km/h
2630 18-02-2018 13:00:00 1.60833 C 5.23 g/m*3 1.61 C 1.6 km/h
2631 18-02-2018 14:00:00 3.275 C 5.48 g/m*3 3.28 C 3.06667 km/h
2632 18-02-2018 15:00:00 4.61667 C 5.19 g/m*3 3.32 C 5.88333 km/h
2633 18-02-2018 16:00:00 4.225 C 5.09 g/m*3 4.22 C 4.53333 km/h
2634 18-02-2018 17:00:00 2.29167 C 4.81 g/m*3 2.29 C 4.53333 km/h
2635 18-02-2018 18:00:00 0.93333 C 4.58 g/m*3 -0.62 C 5.2 km/h
2636 18-02-2018 19:00:00 0.50833 C 4.54 g/m*3 0.51 C 4.53333 km/h
2637 18-02-2018 20:00:00 -0.25833 C 4.37 g/m*3 -0.26 C 0.53333 km/h
2638 18-02-2018 21:00:00 -1.075 C 4.18 g/m*3 -1.08 C 0 km/h
2639 18-02-2018 22:00:00 -1.36667 C 4.14 g/m*3 -1.37 C 0 km/h
2640 18-02-2018 23:00:00 -1.35 C 4.15 g/m*3 -1.35 C 0.66667 km/h
2641 19-02-2018 00:00:00 -0.875 C 4.32 g/m*3 -0.88 C 0 km/h
2642 19-02-2018 01:00:00 -1.675 C 4.06 g/m*3 -1.68 C 0.26667 km/h
2643 19-02-2018 02:00:00 -1.40833 C 4.17 g/m*3 -1.41 C 1.33333 km/h
2644 19-02-2018 03:00:00 -1.04167 C 4.28 g/m*3 -1.04 C 0 km/h
2645 19-02-2018 04:00:00 -0.83333 C 4.34 g/m*3 -0.83 C 0 km/h
2646 19-02-2018 05:00:00 -0.68333 C 4.39 g/m*3 -0.68 C 0 km/h
2647 19-02-2018 06:00:00 -0.56667 C 4.43 g/m*3 -0.57 C 0 km/h
2648 19-02-2018 07:00:00 -0.4 C 4.48 g/m*3 -0.4 C 0 km/h
2649 19-02-2018 08:00:00 -0.10833 C 4.57 g/m*3 -0.11 C 0.13333 km/h
2650 19-02-2018 09:00:00 0.525 C 4.76 g/m*3 0.53 C 0.13333 km/h
Sensor: Nr:Datum:Temp:Abs-Feuchte:Windchill:Wind:
Aussen-T/F 2651 19-02-2018 10:00:00 1.36667 C 4.9 g/m*3 1.37 C 0.66667 km/h
2652 19-02-2018 11:00:00 2.425 C 4.86 g/m*3 2.42 C 3.075 km/h
2653 19-02-2018 12:00:00 2.96667 C 4.85 g/m*3 2.97 C 3.2 km/h
2654 19-02-2018 13:00:00 4.04167 C 4.9 g/m*3 4.04 C 4 km/h
2655 19-02-2018 14:00:00 4.675 C 4.92 g/m*3 4.68 C 3.06667 km/h
2656 19-02-2018 15:00:00 4.5 C 4.91 g/m*3 4.5 C 3.46667 km/h
2657 19-02-2018 16:00:00 4.45 C 4.93 g/m*3 4.45 C 3.2 km/h
2658 19-02-2018 17:00:00 3.375 C 4.94 g/m*3 3.38 C 0.4 km/h
2659 19-02-2018 18:00:00 1.70833 C 4.76 g/m*3 1.71 C 1.86667 km/h
2660 19-02-2018 19:00:00 1.35833 C 4.76 g/m*3 1.36 C 0.66667 km/h
2661 19-02-2018 20:00:00 1.20833 C 4.74 g/m*3 1.21 C 0 km/h
2662 19-02-2018 21:00:00 1.00833 C 4.71 g/m*3 1.01 C 0 km/h
2663 19-02-2018 22:00:00 0.63333 C 4.61 g/m*3 0.63 C 0 km/h
2664 19-02-2018 23:00:00 0.15 C 4.45 g/m*3 0.15 C 0 km/h
2665 20-02-2018 00:00:00 -0.50833 C 4.28 g/m*3 -0.51 C 0 km/h
2666 20-02-2018 01:00:00 -0.74167 C 4.25 g/m*3 -0.74 C 0 km/h
2667 20-02-2018 02:00:00 -0.74167 C 4.27 g/m*3 -0.74 C 0 km/h
2668 20-02-2018 03:00:00 -1.38333 C 4.09 g/m*3 -1.38 C 0 km/h
2669 20-02-2018 04:00:00 -1.825 C 3.98 g/m*3 -1.83 C 0 km/h
2670 20-02-2018 05:00:00 -2.24167 C 3.9 g/m*3 -2.24 C 0 km/h
2671 20-02-2018 06:00:00 -2.19167 C 3.93 g/m*3 -2.19 C 0 km/h
2672 20-02-2018 07:00:00 -1.89167 C 4.03 g/m*3 -1.89 C 0 km/h
2673 20-02-2018 08:00:00 -1.425 C 4.17 g/m*3 -1.43 C 0.4 km/h
2674 20-02-2018 09:00:00 -1.16667 C 4.24 g/m*3 -1.17 C 0 km/h
2675 20-02-2018 10:00:00 -0.81667 C 4.36 g/m*3 -0.82 C 0 km/h
Sensor: Nr:Datum:Temp:Abs-Feuchte:Windchill:Wind:
Aussen-T/F 2676 20-02-2018 11:00:00 0.625 C 4.76 g/m*3 0.63 C 0.13333 km/h
2677 20-02-2018 12:00:00 2.25833 C 5.12 g/m*3 2.26 C 0.4 km/h
2678 20-02-2018 13:00:00 4.10833 C 5.12 g/m*3 4.11 C 1.73333 km/h
2679 20-02-2018 14:00:00 4.85833 C 4.74 g/m*3 4.86 C 3.6 km/h
2680 20-02-2018 15:00:00 5.36667 C 4.83 g/m*3 5.37 C 3.34167 km/h
2681 20-02-2018 16:00:00 5.20833 C 4.82 g/m*3 5.21 C 2.675 km/h
2682 20-02-2018 17:00:00 3.54167 C 4.8 g/m*3 3.54 C 3.86667 km/h
2683 20-02-2018 18:00:00 2.54167 C 4.75 g/m*3 2.54 C 2 km/h
2684 20-02-2018 19:00:00 2.225 C 4.61 g/m*3 2.23 C 3.075 km/h
2685 20-02-2018 20:00:00 2.20833 C 4.57 g/m*3 2.21 C 1.33333 km/h
2686 20-02-2018 21:00:00 0.825 C 4.34 g/m*3 0.83 C 4 km/h
2687 20-02-2018 22:00:00 -0.16667 C 4.14 g/m*3 -0.17 C 1.2 km/h
2688 20-02-2018 23:00:00 -0.84167 C 4.06 g/m*3 -0.84 C 0 km/h
2689 21-02-2018 00:00:00 -0.475 C 4.21 g/m*3 -0.48 C 1.73333 km/h
2690 21-02-2018 01:00:00 0.96667 C 4.18 g/m*3 0.97 C 4.69167 km/h
2691 21-02-2018 02:00:00 -0.125 C 3.95 g/m*3 -0.13 C 1.06667 km/h
2692 21-02-2018 03:00:00 -0.575 C 4 g/m*3 -0.57 C 0.26667 km/h
2693 21-02-2018 04:00:00 -0.6 C 3.95 g/m*3 -0.6 C 1.46667 km/h
2694 21-02-2018 05:00:00 -1.39167 C 3.85 g/m*3 -1.39 C 1.6 km/h
2695 21-02-2018 06:00:00 -1.7 C 3.84 g/m*3 -1.7 C 0.66667 km/h
2696 21-02-2018 07:00:00 -1.68333 C 3.88 g/m*3 -1.68 C 0.53333 km/h
2697 21-02-2018 08:00:00 -1.61667 C 3.92 g/m*3 -1.62 C 1.46667 km/h
2698 21-02-2018 09:00:00 -0.95833 C 4.03 g/m*3 -0.96 C 1.06667 km/h
2699 21-02-2018 10:00:00 -0.29167 C 4.23 g/m*3 -0.29 C 0.8 km/h
2700 21-02-2018 11:00:00 1.50833 C 4.51 g/m*3 1.51 C 0.93333 km/h
Sensor: Nr:Datum:Temp:Abs-Feuchte:Windchill:Wind:
Aussen-T/F 2701 21-02-2018 12:00:00 3.275 C 4.2 g/m*3 1.5 C 6.70833 km/h
2702 21-02-2018 13:00:00 4.98333 C 3.88 g/m*3 2.8 C 9.26667 km/h
2703 21-02-2018 14:00:00 5.69167 C 3.72 g/m*3 3.31 C 10.875 km/h
2704 21-02-2018 15:00:00 6.13333 C 3.64 g/m*3 3.37 C 13.56667 km/h
2705 21-02-2018 16:00:00 6.29167 C 3.68 g/m*3 3.9 C 11.55833 km/h
2706 21-02-2018 17:00:00 5.35 C 4.14 g/m*3 5.35 C 4.15833 km/h
2707 21-02-2018 18:00:00 2.70833 C 4.19 g/m*3 2.71 C 3.6 km/h
2708 21-02-2018 19:00:00 1.51667 C 4.16 g/m*3 1.52 C 4.13333 km/h
2709 21-02-2018 20:00:00 0.775 C 4.07 g/m*3 0.78 C 1.86667 km/h
2710 21-02-2018 21:00:00 0.10833 C 4.01 g/m*3 0.11 C 1.475 km/h
2711 21-02-2018 22:00:00 -0.30833 C 3.85 g/m*3 -0.31 C 2.53333 km/h
2712 21-02-2018 23:00:00 -0.5 C 3.7 g/m*3 -0.5 C 4.15833 km/h
2713 22-02-2018 00:00:00 -1.15 C 3.67 g/m*3 -1.15 C 1.2 km/h
2714 22-02-2018 01:00:00 -1.63333 C 3.65 g/m*3 -1.63 C 0.4 km/h
2715 22-02-2018 02:00:00 -1.90833 C 3.63 g/m*3 -1.91 C 0 km/h
2716 22-02-2018 03:00:00 -1.975 C 3.65 g/m*3 -1.98 C 0.66667 km/h
2717 22-02-2018 04:00:00 -2.125 C 3.64 g/m*3 -2.13 C 1.33333 km/h
2718 22-02-2018 05:00:00 -2.025 C 3.68 g/m*3 -2.03 C 1.2 km/h
2719 22-02-2018 06:00:00 -2.16667 C 3.67 g/m*3 -2.17 C 1.06667 km/h
2720 22-02-2018 07:00:00 -2.25833 C 3.64 g/m*3 -2.26 C 1.6 km/h
2721 22-02-2018 08:00:00 -1.825 C 3.69 g/m*3 -1.83 C 1.46667 km/h
2722 22-02-2018 09:00:00 -1.04167 C 3.76 g/m*3 -2.82 C 5.1 km/h
2723 22-02-2018 10:00:00 0.75 C 3.77 g/m*3 -2.47 C 10.20833 km/h
2724 22-02-2018 11:00:00 1.76667 C 3.64 g/m*3 -2.36 C 15.7 km/h
2725 22-02-2018 12:00:00 2.46667 C 3.57 g/m*3 -1.8 C 17.7 km/h
Sensor: Nr:Datum:Temp:Abs-Feuchte:Windchill:Wind:
Aussen-T/F 2726 22-02-2018 13:00:00 3.40833 C 3.49 g/m*3 -1.04 C 20.775 km/h
2727 22-02-2018 14:00:00 3.15833 C 3.4 g/m*3 -1.09 C 18.76667 km/h
2728 22-02-2018 15:00:00 3.38333 C 3.28 g/m*3 -1.17 C 21.56667 km/h
2729 22-02-2018 16:00:00 3.475 C 3.34 g/m*3 0.11 C 13.56667 km/h
2730 22-02-2018 17:00:00 2.94167 C 3.41 g/m*3 0.28 C 9.66667 km/h
2731 22-02-2018 18:00:00 0.96667 C 3.37 g/m*3 0.97 C 4.43333 km/h
2732 22-02-2018 19:00:00 -0.45 C 3.44 g/m*3 -0.45 C 1.73333 km/h
2733 22-02-2018 20:00:00 -0.98333 C 3.41 g/m*3 -0.98 C 1.33333 km/h
2734 22-02-2018 21:00:00 -1.14167 C 3.35 g/m*3 -1.14 C 3.74167 km/h
2735 22-02-2018 22:00:00 -1.175 C 3.33 g/m*3 -1.18 C 4.68333 km/h
2736 22-02-2018 23:00:00 -1.3 C 3.29 g/m*3 -1.3 C 3.06667 km/h
2737 23-02-2018 00:00:00 -1.59167 C 3.27 g/m*3 -1.59 C 2.54167 km/h
2738 23-02-2018 01:00:00 -2.08333 C 3.24 g/m*3 -2.08 C 2.93333 km/h
2739 23-02-2018 02:00:00 -2.10833 C 3.19 g/m*3 -2.11 C 3.35 km/h
2740 23-02-2018 03:00:00 -2.15 C 3.11 g/m*3 -4.51 C 6.025 km/h
2741 23-02-2018 04:00:00 -1.96667 C 3.06 g/m*3 -4.06 C 5.5 km/h
2742 23-02-2018 05:00:00 -2.33333 C 2.99 g/m*3 -2.33 C 4.28333 km/h
2743 23-02-2018 06:00:00 -2.85833 C 2.9 g/m*3 -2.86 C 2.93333 km/h
2744 23-02-2018 07:00:00 -3.275 C 2.8 g/m*3 -3.28 C 3.075 km/h
2745 23-02-2018 08:00:00 -3.05833 C 2.81 g/m*3 -3.06 C 4.83333 km/h
2746 23-02-2018 09:00:00 -2.225 C 2.78 g/m*3 -5.64 C 8.86667 km/h
2747 23-02-2018 10:00:00 -1.3 C 2.81 g/m*3 -4.74 C 9.53333 km/h
2748 23-02-2018 11:00:00 0.05833 C 2.81 g/m*3 -3.04 C 9.25833 km/h
2749 23-02-2018 12:00:00 0.83333 C 2.75 g/m*3 -3.51 C 15.7 km/h
2750 23-02-2018 13:00:00 1.875 C 2.73 g/m*3 -2.36 C 16.5 km/h
Sensor: Nr:Datum:Temp:Abs-Feuchte:Windchill:Wind:
Aussen-T/F 2751 23-02-2018 14:00:00 2.26667 C 2.62 g/m*3 -1.93 C 16.89167 km/h
2752 23-02-2018 15:00:00 2.875 C 2.62 g/m*3 -0.69 C 13.95833 km/h
2753 23-02-2018 16:00:00 3.15833 C 2.61 g/m*3 -0.27 C 13.56667 km/h
2754 23-02-2018 17:00:00 2.68333 C 2.63 g/m*3 0.36 C 8.19167 km/h
2755 23-02-2018 18:00:00 0.11667 C 2.91 g/m*3 0.12 C 0.4 km/h
2756 23-02-2018 19:00:00 -0.80833 C 2.73 g/m*3 -0.81 C 3.33333 km/h
2757 23-02-2018 20:00:00 -1.15833 C 2.65 g/m*3 -1.16 C 4.01667 km/h
2758 23-02-2018 21:00:00 -1.23333 C 2.55 g/m*3 -3.77 C 6.83333 km/h
2759 23-02-2018 22:00:00 -1.26667 C 2.62 g/m*3 -4.33 C 8.325 km/h
2760 23-02-2018 23:00:00 -1.85 C 2.68 g/m*3 -3.86 C 5.35833 km/h
2761 24-02-2018 00:00:00 -3.09167 C 2.72 g/m*3 -3.09 C 3.33333 km/h
2762 24-02-2018 01:00:00 -3.5 C 2.68 g/m*3 -3.5 C 3.6 km/h
2763 24-02-2018 02:00:00 -4.21667 C 2.64 g/m*3 -4.22 C 2 km/h
2764 24-02-2018 03:00:00 -5.16667 C 2.57 g/m*3 -5.17 C 0.13333 km/h
2765 24-02-2018 04:00:00 -5.26667 C 2.55 g/m*3 -5.27 C 2.53333 km/h
2766 24-02-2018 05:00:00 -4.875 C 2.49 g/m*3 -4.88 C 3.88333 km/h
2767 24-02-2018 06:00:00 -5.34167 C 2.47 g/m*3 -5.34 C 2.8 km/h
2768 24-02-2018 07:00:00 -5.98333 C 2.45 g/m*3 -5.98 C 1.06667 km/h
2769 24-02-2018 08:00:00 -5.49167 C 2.49 g/m*3 -5.49 C 1.88333 km/h
2770 24-02-2018 09:00:00 -4.24167 C 2.59 g/m*3 -4.24 C 0.8 km/h
2771 24-02-2018 10:00:00 -2.30833 C 2.61 g/m*3 -2.31 C 4.55 km/h
2772 24-02-2018 11:00:00 0.51667 C 2.64 g/m*3 -1.97 C 7.5 km/h
2773 24-02-2018 12:00:00 2.38333 C 2.72 g/m*3 -1.04 C 12.63333 km/h
2774 24-02-2018 13:00:00 3.2 C 2.82 g/m*3 -1.06 C 18.9 km/h
2775 24-02-2018 14:00:00 3.275 C 3.08 g/m*3 -0.93 C 18.63333 km/h
Sensor: Nr:Datum:Temp:Abs-Feuchte:Windchill:Wind:
Aussen-T/F 2776 24-02-2018 15:00:00 3.2 C 3.34 g/m*3 -1.13 C 19.43333 km/h
2777 24-02-2018 16:00:00 2.45833 C 3.05 g/m*3 -2.35 C 21.575 km/h
2778 24-02-2018 17:00:00 1.63333 C 2.9 g/m*3 -2.55 C 15.83333 km/h
2779 24-02-2018 18:00:00 -0.03333 C 2.88 g/m*3 -3.58 C 10.88333 km/h
2780 24-02-2018 19:00:00 -0.45 C 2.88 g/m*3 -3.41 C 8.45 km/h
2781 24-02-2018 20:00:00 -0.71667 C 2.79 g/m*3 -3.73 C 8.45833 km/h
2782 24-02-2018 21:00:00 -0.825 C 2.58 g/m*3 -5.03 C 13.025 km/h
2783 24-02-2018 22:00:00 -1.23333 C 2.55 g/m*3 -5.41 C 12.48333 km/h
2784 24-02-2018 23:00:00 -1.61667 C 2.46 g/m*3 -5.07 C 9.4 km/h
2785 25-02-2018 00:00:00 -2.14167 C 2.48 g/m*3 -6.12 C 10.89167 km/h
2786 25-02-2018 01:00:00 -2.6 C 2.45 g/m*3 -6.12 C 9.00833 km/h
2787 25-02-2018 02:00:00 -3.075 C 2.4 g/m*3 -7.2 C 10.74167 km/h
2788 25-02-2018 03:00:00 -3.71667 C 2.36 g/m*3 -7.08 C 7.94167 km/h
2789 25-02-2018 04:00:00 -4.39167 C 2.35 g/m*3 -4.39 C 4.00833 km/h
2790 25-02-2018 05:00:00 -4.95833 C 2.33 g/m*3 -7.61 C 5.76667 km/h
2791 25-02-2018 06:00:00 -5.38333 C 2.26 g/m*3 -8.65 C 6.975 km/h
2792 25-02-2018 07:00:00 -5.78333 C 2.23 g/m*3 -8.2 C 5.09167 km/h
2793 25-02-2018 08:00:00 -5.875 C 2.24 g/m*3 -5.88 C 3.60833 km/h
2794 25-02-2018 09:00:00 -5.03333 C 2.22 g/m*3 -9.23 C 9.68333 km/h
2795 25-02-2018 10:00:00 -4.00833 C 2.18 g/m*3 -8.24 C 10.45833 km/h
2796 25-02-2018 11:00:00 -2.63333 C 2.09 g/m*3 -6.52 C 10.20833 km/h
2797 25-02-2018 12:00:00 -1.61667 C 1.94 g/m*3 -5.65 C 11.55833 km/h
2798 25-02-2018 13:00:00 -0.7 C 1.82 g/m*3 -5.93 C 18.76667 km/h
2799 25-02-2018 14:00:00 -0.38333 C 1.64 g/m*3 -4.63 C 13.68333 km/h
2800 25-02-2018 15:00:00 0.18333 C 1.65 g/m*3 -4.39 C 16.1 km/h
Sensor: Nr:Datum:Temp:Abs-Feuchte:Windchill:Wind:
Aussen-T/F 2801 25-02-2018 16:00:00 0.28333 C 1.76 g/m*3 -4.31 C 16.36667 km/h
2802 25-02-2018 17:00:00 0.01667 C 1.78 g/m*3 -3.83 C 12.225 km/h
2803 25-02-2018 18:00:00 -1.46667 C 1.82 g/m*3 -3.78 C 6.15833 km/h
2804 25-02-2018 19:00:00 -1.74167 C 1.73 g/m*3 -4.67 C 7.66667 km/h
2805 25-02-2018 20:00:00 -1.98333 C 1.75 g/m*3 -5.77 C 10.325 km/h
2806 25-02-2018 21:00:00 -2.45 C 1.95 g/m*3 -5.85 C 8.71667 km/h
2807 25-02-2018 22:00:00 -2.66667 C 2.08 g/m*3 -6.71 C 10.74167 km/h
2808 25-02-2018 23:00:00 -2.85 C 2.12 g/m*3 -7.04 C 11.15 km/h
2809 26-02-2018 00:00:00 -3.28333 C 2.17 g/m*3 -7.44 C 10.71667 km/h
2810 26-02-2018 01:00:00 -4.4 C 2.2 g/m*3 -4.4 C 4.28333 km/h
2811 26-02-2018 02:00:00 -5.19167 C 2.25 g/m*3 -5.19 C 2 km/h
2812 26-02-2018 03:00:00 -6.08333 C 2.32 g/m*3 -6.08 C 2 km/h
2813 26-02-2018 04:00:00 -6.19167 C 2.33 g/m*3 -6.19 C 3.08333 km/h
2814 26-02-2018 05:00:00 -6.60833 C 2.26 g/m*3 -6.61 C 0.93333 km/h
2815 26-02-2018 06:00:00 -7.16667 C 2.24 g/m*3 -7.17 C 0.66667 km/h
2816 26-02-2018 07:00:00 -7.375 C 2.24 g/m*3 -7.38 C 0.13333 km/h
2817 26-02-2018 08:00:00 -7.3 C 2.31 g/m*3 -7.3 C 0.13333 km/h
2818 26-02-2018 09:00:00 -5.40833 C 2.47 g/m*3 -9.31 C 8.6 km/h
2819 26-02-2018 10:00:00 -4.03333 C 2.53 g/m*3 -8.68 C 11.95833 km/h
2820 26-02-2018 11:00:00 -3.025 C 2.44 g/m*3 -9.12 C 20.375 km/h
2821 26-02-2018 12:00:00 -2.74167 C 2.45 g/m*3 -8.48 C 18.64167 km/h
2822 26-02-2018 13:00:00 -2.025 C 2.44 g/m*3 -7.62 C 18.9 km/h
2823 26-02-2018 14:00:00 -1.63333 C 2.34 g/m*3 -7 C 18.10833 km/h
2824 26-02-2018 15:00:00 -1.825 C 2.34 g/m*3 -7.44 C 19.30833 km/h
2825 26-02-2018 16:00:00 -2.15 C 2.22 g/m*3 -8.22 C 21.71667 km/h
Sensor: Nr:Datum:Temp:Abs-Feuchte:Windchill:Wind:
Aussen-T/F 2826 26-02-2018 17:00:00 -2.23333 C 2.24 g/m*3 -7.36 C 15.96667 km/h
2827 26-02-2018 18:00:00 -2.89167 C 2.33 g/m*3 -7.02 C 10.88333 km/h
2828 26-02-2018 19:00:00 -3.64167 C 2.51 g/m*3 -3.64 C 4.55833 km/h
2829 26-02-2018 20:00:00 -4.01667 C 2.65 g/m*3 -4.02 C 3.075 km/h
2830 26-02-2018 21:00:00 -3.73333 C 2.63 g/m*3 -7 C 7.66667 km/h
2831 26-02-2018 22:00:00 -3.54167 C 2.67 g/m*3 -7.41 C 9.55 km/h
2832 26-02-2018 23:00:00 -4.025 C 3 g/m*3 -6.21 C 5.10833 km/h
2833 27-02-2018 00:00:00 -4.4 C 3.11 g/m*3 -4.4 C 1.06667 km/h
2834 27-02-2018 01:00:00 -4.9 C 3.07 g/m*3 -4.9 C 0 km/h
2835 27-02-2018 02:00:00 -4.99167 C 3.07 g/m*3 -4.99 C 2.54167 km/h
2836 27-02-2018 03:00:00 -5.275 C 2.93 g/m*3 -9.76 C 10.475 km/h
2837 27-02-2018 04:00:00 -7.025 C 2.49 g/m*3 -7.03 C 2.94167 km/h
2838 27-02-2018 05:00:00 -8.7 C 2.22 g/m*3 -8.7 C 1.46667 km/h
2839 27-02-2018 06:00:00 -9.55 C 2.08 g/m*3 -9.55 C 0.66667 km/h
2840 27-02-2018 07:00:00 -10.16667 C 2.01 g/m*3 -10.17 C 0 km/h
2841 27-02-2018 08:00:00 -9.41667 C 2.12 g/m*3 -9.42 C 1.73333 km/h
2842 27-02-2018 09:00:00 -8.53333 C 2.17 g/m*3 -11.78 C 5.9 km/h
2843 27-02-2018 10:00:00 -7.16667 C 2.06 g/m*3 -12.07 C 10.60833 km/h
2844 27-02-2018 11:00:00 -5.90833 C 1.99 g/m*3 -11.36 C 13.55 km/h
2845 27-02-2018 12:00:00 -4.80833 C 1.97 g/m*3 -9.69 C 12.225 km/h
2846 27-02-2018 13:00:00 -3.73333 C 1.92 g/m*3 -8.58 C 13.03333 km/h
2847 27-02-2018 14:00:00 -3.08333 C 1.83 g/m*3 -7.72 C 12.75833 km/h
2848 27-02-2018 15:00:00 -2.80833 C 1.82 g/m*3 -8.47 C 18.10833 km/h
2849 27-02-2018 16:00:00 -2.38333 C 1.86 g/m*3 -7.36 C 15.03333 km/h
2850 27-02-2018 17:00:00 -2.20833 C 1.92 g/m*3 -6.37 C 11.55 km/h
Sensor: Nr:Datum:Temp:Abs-Feuchte:Windchill:Wind:
Aussen-T/F 2851 27-02-2018 18:00:00 -4.15833 C 2.13 g/m*3 -4.16 C 3.20833 km/h
2852 27-02-2018 19:00:00 -5.775 C 2.25 g/m*3 -5.78 C 1.33333 km/h
2853 27-02-2018 20:00:00 -6.39167 C 2.14 g/m*3 -6.39 C 3.86667 km/h
2854 27-02-2018 21:00:00 -7.05 C 2.01 g/m*3 -7.05 C 4.93333 km/h
2855 27-02-2018 22:00:00 -7.48333 C 1.98 g/m*3 -7.48 C 2.53333 km/h
2856 27-02-2018 23:00:00 -8.18333 C 1.94 g/m*3 -8.18 C 2 km/h
2857 28-02-2018 00:00:00 -8.35 C 1.96 g/m*3 -8.35 C 2.53333 km/h
2858 28-02-2018 01:00:00 -8.575 C 1.93 g/m*3 -8.57 C 3.06667 km/h
2859 28-02-2018 02:00:00 -8.98333 C 1.89 g/m*3 -8.98 C 4.26667 km/h
2860 28-02-2018 03:00:00 -9.23333 C 1.88 g/m*3 -9.23 C 4.26667 km/h
2861 28-02-2018 04:00:00 -9.425 C 1.87 g/m*3 -9.43 C 3.86667 km/h
2862 28-02-2018 05:00:00 -9.625 C 1.88 g/m*3 -9.63 C 1.73333 km/h
2863 28-02-2018 06:00:00 -9.975 C 1.86 g/m*3 -9.98 C 1.2 km/h
2864 28-02-2018 07:00:00 -10.09167 C 1.85 g/m*3 -10.09 C 0.8 km/h
2865 28-02-2018 08:00:00 -9.41667 C 1.91 g/m*3 -9.42 C 3.21667 km/h
2866 28-02-2018 09:00:00 -8.15833 C 1.96 g/m*3 -11.28 C 5.76667 km/h
2867 28-02-2018 10:00:00 -7.025 C 1.97 g/m*3 -11.6 C 9.66667 km/h
2868 28-02-2018 11:00:00 -5.78333 C 1.99 g/m*3 -10.58 C 11.16667 km/h
2869 28-02-2018 12:00:00 -4.65833 C 2 g/m*3 -9.74 C 13.16667 km/h
2870 28-02-2018 13:00:00 -3.59167 C 1.96 g/m*3 -8.68 C 14.23333 km/h
2871 28-02-2018 14:00:00 -3.21667 C 1.89 g/m*3 -8.28 C 14.5 km/h
2872 28-02-2018 15:00:00 -2.78333 C 1.99 g/m*3 -7.54 C 13.56667 km/h
2873 28-02-2018 16:00:00 -2.63333 C 2.03 g/m*3 -7.24 C 13.025 km/h
2874 28-02-2018 17:00:00 -3.44167 C 2.01 g/m*3 -6.7 C 7.78333 km/h
2875 28-02-2018 18:00:00 -4.73333 C 2 g/m*3 -8.26 C 7.90833 km/h
Sensor: Nr:Datum:Temp:Abs-Feuchte:Windchill:Wind:
Aussen-T/F 2876 28-02-2018 19:00:00 -5.71667 C 2.02 g/m*3 -10.12 C 9.93333 km/h
2877 28-02-2018 20:00:00 -6.19167 C 2.03 g/m*3 -9.98 C 7.925 km/h
2878 28-02-2018 21:00:00 -6.33333 C 2.04 g/m*3 -10.1 C 7.8 km/h
2879 28-02-2018 22:00:00 -6.51667 C 2.03 g/m*3 -9.86 C 6.71667 km/h
2880 28-02-2018 23:00:00 -6.5 C 2.04 g/m*3 -9.16 C 5.35 km/h
2881 01-03-2018 00:00:00 -6.60833 C 2.01 g/m*3 -9.14 C 5.1 km/h
2882 01-03-2018 01:00:00 -6.10833 C 2 g/m*3 -10.92 C 11 km/h
2883 01-03-2018 02:00:00 -5.80833 C 2 g/m*3 -9.68 C 8.325 km/h
2884 01-03-2018 03:00:00 -5.78333 C 2.01 g/m*3 -9.8 C 8.725 km/h
2885 01-03-2018 04:00:00 -5.79167 C 2 g/m*3 -9.95 C 9.125 km/h
2886 01-03-2018 05:00:00 -5.86667 C 2.01 g/m*3 -9.85 C 8.58333 km/h
2887 01-03-2018 06:00:00 -5.775 C 2.03 g/m*3 -9.83 C 8.85 km/h
2888 01-03-2018 07:00:00 -5.73333 C 2.05 g/m*3 -10.14 C 9.925 km/h
2889 01-03-2018 08:00:00 -5.84167 C 2.05 g/m*3 -10.87 C 11.96667 km/h
2890 01-03-2018 09:00:00 -5.71667 C 2.04 g/m*3 -10.79 C 12.21667 km/h
2891 01-03-2018 10:00:00 -5 C 2.07 g/m*3 -10.25 C 13.55833 km/h
2892 01-03-2018 11:00:00 -3.38333 C 2.12 g/m*3 -8.05 C 12.625 km/h
2893 01-03-2018 12:00:00 -1.75 C 2.12 g/m*3 -6.36 C 13.96667 km/h
2894 01-03-2018 13:00:00 -0.10833 C 2.12 g/m*3 -4.35 C 13.96667 km/h
2895 01-03-2018 14:00:00 1.20833 C 2.05 g/m*3 -2.91 C 14.9 km/h
2896 01-03-2018 15:00:00 1.71667 C 2.02 g/m*3 -1.99 C 13.3 km/h
2897 01-03-2018 16:00:00 1.65 C 2.07 g/m*3 -1.65 C 11.29167 km/h
2898 01-03-2018 17:00:00 1.075 C 2.26 g/m*3 -1.46 C 7.93333 km/h
2899 01-03-2018 18:00:00 0.15833 C 2.34 g/m*3 -2.7 C 8.46667 km/h
2900 01-03-2018 19:00:00 -0.34167 C 2.34 g/m*3 -3.45 C 9.01667 km/h
Sensor: Nr:Datum:Temp:Abs-Feuchte:Windchill:Wind:
Aussen-T/F 2901 01-03-2018 20:00:00 -0.73333 C 2.32 g/m*3 -3.91 C 9 km/h
2902 01-03-2018 21:00:00 -1.24167 C 2.29 g/m*3 -5.54 C 13.01667 km/h
2903 01-03-2018 22:00:00 -1.80833 C 2.27 g/m*3 -5.53 C 10.21667 km/h
2904 01-03-2018 23:00:00 -2.35 C 2.24 g/m*3 -5.57 C 8.2 km/h
2905 02-03-2018 00:00:00 -2.675 C 2.25 g/m*3 -4.99 C 5.75 km/h
2906 02-03-2018 01:00:00 -2.84167 C 2.25 g/m*3 -5.91 C 7.525 km/h
2907 02-03-2018 02:00:00 -3.00833 C 2.25 g/m*3 -6.73 C 9.4 km/h
2908 02-03-2018 03:00:00 -3.38333 C 2.24 g/m*3 -7.22 C 9.54167 km/h
2909 02-03-2018 04:00:00 -3.76667 C 2.24 g/m*3 -7.32 C 8.45 km/h
2910 02-03-2018 05:00:00 -4.125 C 2.24 g/m*3 -7.8 C 8.60833 km/h
2911 02-03-2018 06:00:00 -4.30833 C 2.25 g/m*3 -7.97 C 8.475 km/h
2912 02-03-2018 07:00:00 -4.45833 C 2.25 g/m*3 -8.75 C 10.35833 km/h
2913 02-03-2018 08:00:00 -4.55 C 2.25 g/m*3 -9.41 C 12.36667 km/h
2914 02-03-2018 09:00:00 -4.09167 C 2.29 g/m*3 -9.02 C 13.03333 km/h
2915 02-03-2018 10:00:00 -3.525 C 2.33 g/m*3 -7.63 C 10.36667 km/h
2916 02-03-2018 11:00:00 -2.94167 C 2.37 g/m*3 -7.46 C 12.36667 km/h
2917 02-03-2018 12:00:00 -1.99167 C 2.43 g/m*3 -6.66 C 13.96667 km/h
2918 02-03-2018 13:00:00 -1.55833 C 2.42 g/m*3 -5.38 C 10.75833 km/h
2919 02-03-2018 14:00:00 -1.15 C 2.43 g/m*3 -5.4 C 12.9 km/h
2920 02-03-2018 15:00:00 -0.775 C 2.48 g/m*3 -4.73 C 11.95 km/h
2921 02-03-2018 16:00:00 -0.25833 C 2.52 g/m*3 -3.61 C 9.95 km/h
2922 02-03-2018 17:00:00 -0.05 C 2.57 g/m*3 -0.05 C 4.00833 km/h
2923 02-03-2018 18:00:00 -0.075 C 2.67 g/m*3 -0.08 C 2 km/h
2924 02-03-2018 19:00:00 -0.31667 C 2.83 g/m*3 -2.34 C 5.88333 km/h
2925 02-03-2018 20:00:00 -1.29167 C 3.41 g/m*3 -1.29 C 3.875 km/h
Sensor: Nr:Datum:Temp:Abs-Feuchte:Windchill:Wind:
Aussen-T/F 2926 02-03-2018 21:00:00 -2.025 C 3.64 g/m*3 -2.03 C 0.26667 km/h
2927 02-03-2018 22:00:00 -2.19167 C 3.7 g/m*3 -2.19 C 0 km/h
2928 02-03-2018 23:00:00 -2.29167 C 3.75 g/m*3 -2.29 C 0 km/h
2929 03-03-2018 00:00:00 -2.3 C 3.78 g/m*3 -2.3 C 0 km/h
2930 03-03-2018 01:00:00 -2.21667 C 3.82 g/m*3 -2.22 C 0 km/h
2931 03-03-2018 02:00:00 -2.16667 C 3.85 g/m*3 -2.17 C 0 km/h
2932 03-03-2018 03:00:00 -2.1 C 3.89 g/m*3 -2.1 C 0 km/h
2933 03-03-2018 04:00:00 -2.11667 C 3.89 g/m*3 -2.12 C 0.13333 km/h
2934 03-03-2018 05:00:00 -2.26667 C 3.85 g/m*3 -2.27 C 0 km/h
2935 03-03-2018 06:00:00 -2.33333 C 3.83 g/m*3 -2.33 C 0.13333 km/h
2936 03-03-2018 07:00:00 -2.26667 C 3.84 g/m*3 -2.27 C 0.13333 km/h
2937 03-03-2018 08:00:00 -1.85 C 3.88 g/m*3 -1.85 C 3.73333 km/h
2938 03-03-2018 09:00:00 -1.65 C 3.89 g/m*3 -3.93 C 6.00833 km/h
2939 03-03-2018 10:00:00 -1.03333 C 4.01 g/m*3 -2.79 C 5.06667 km/h
2940 03-03-2018 11:00:00 -0.28333 C 4.17 g/m*3 -2.01 C 5.20833 km/h
2941 03-03-2018 12:00:00 0.26667 C 4.28 g/m*3 -2.53 C 8.34167 km/h
2942 03-03-2018 13:00:00 1.13333 C 4.45 g/m*3 -1.47 C 8.2 km/h
2943 03-03-2018 14:00:00 1.60833 C 4.57 g/m*3 -0.91 C 8.2 km/h
2944 03-03-2018 15:00:00 1.85 C 4.64 g/m*3 -0.38 C 7.38333 km/h
2945 03-03-2018 16:00:00 1.63333 C 4.6 g/m*3 -0.31 C 6.44167 km/h
2946 03-03-2018 17:00:00 1.33333 C 4.53 g/m*3 1.33 C 4.01667 km/h
2947 03-03-2018 18:00:00 1.075 C 4.56 g/m*3 1.08 C 0.13333 km/h
2948 03-03-2018 19:00:00 0.85 C 4.6 g/m*3 0.85 C 0.13333 km/h
2949 03-03-2018 20:00:00 0.75833 C 4.64 g/m*3 0.76 C 0.13333 km/h
2950 03-03-2018 21:00:00 0.78333 C 4.65 g/m*3 0.78 C 0.13333 km/h
Sensor: Nr:Datum:Temp:Abs-Feuchte:Windchill:Wind:
Aussen-T/F 2951 03-03-2018 22:00:00 0.71667 C 4.67 g/m*3 0.72 C 0.13333 km/h
2952 03-03-2018 23:00:00 0.75 C 4.72 g/m*3 0.75 C 0 km/h
2953 04-03-2018 00:00:00 0.70833 C 4.73 g/m*3 0.71 C 0 km/h
2954 04-03-2018 01:00:00 0.63333 C 4.76 g/m*3 0.63 C 0 km/h
2955 04-03-2018 02:00:00 0.76667 C 4.84 g/m*3 0.77 C 1.06667 km/h
2956 04-03-2018 03:00:00 1.075 C 4.96 g/m*3 1.08 C 1.46667 km/h
2957 04-03-2018 04:00:00 0.975 C 4.92 g/m*3 0.98 C 0.4 km/h
2958 04-03-2018 05:00:00 0.83333 C 4.87 g/m*3 0.83 C 0 km/h
2959 04-03-2018 06:00:00 1.09167 C 4.96 g/m*3 1.09 C 0.13333 km/h
2960 04-03-2018 07:00:00 1.16667 C 4.99 g/m*3 1.17 C 0 km/h
2961 04-03-2018 08:00:00 1.59167 C 5.17 g/m*3 1.59 C 0 km/h
2962 04-03-2018 09:00:00 2.49167 C 5.48 g/m*3 2.49 C 1.73333 km/h
2963 04-03-2018 10:00:00 3.375 C 5.7 g/m*3 3.38 C 3.06667 km/h
2964 04-03-2018 11:00:00 4.59167 C 6.01 g/m*3 3.24 C 6.03333 km/h
2965 04-03-2018 12:00:00 5.34167 C 6.12 g/m*3 3.82 C 6.975 km/h
2966 04-03-2018 13:00:00 7.40833 C 6.67 g/m*3 7.41 C 4.54167 km/h
2967 04-03-2018 14:00:00 9.59167 C 7 g/m*3 9.59 C 4.3 km/h
2968 04-03-2018 15:00:00 9.125 C 6.79 g/m*3 8.21 C 6.975 km/h
2969 04-03-2018 16:00:00 8.125 C 6.82 g/m*3 8.13 C 2.93333 km/h
2970 04-03-2018 17:00:00 6.425 C 6.44 g/m*3 6.43 C 3.86667 km/h
2971 04-03-2018 18:00:00 5.375 C 6.23 g/m*3 5.38 C 4.8 km/h
2972 04-03-2018 19:00:00 5.10833 C 6.28 g/m*3 5.11 C 4.93333 km/h
2973 04-03-2018 20:00:00 4.9 C 6.26 g/m*3 4.9 C 4.26667 km/h
2974 04-03-2018 21:00:00 5.25 C 6.49 g/m*3 5.25 C 4.4 km/h
2975 04-03-2018 22:00:00 5.125 C 6.5 g/m*3 5.13 C 3.2 km/h
Sensor: Nr:Datum:Temp:Abs-Feuchte:Windchill:Wind:
Aussen-T/F 2976 04-03-2018 23:00:00 5.64167 C 6.79 g/m*3 5.64 C 4.13333 km/h
2977 05-03-2018 00:00:00 5.81667 C 6.84 g/m*3 5.82 C 3.74167 km/h
2978 05-03-2018 01:00:00 5.80833 C 6.77 g/m*3 5.81 C 4.28333 km/h
2979 05-03-2018 02:00:00 5.475 C 6.53 g/m*3 5.48 C 2.66667 km/h
2980 05-03-2018 03:00:00 4.4 C 6.12 g/m*3 4.4 C 2.93333 km/h
2981 05-03-2018 04:00:00 3.59167 C 5.84 g/m*3 3.59 C 2.93333 km/h
2982 05-03-2018 05:00:00 2.71667 C 5.53 g/m*3 2.72 C 1.6 km/h
2983 05-03-2018 06:00:00 2.05 C 5.3 g/m*3 2.05 C 1.33333 km/h
2984 05-03-2018 07:00:00 1.975 C 5.31 g/m*3 1.98 C 0 km/h
2985 05-03-2018 08:00:00 3.05 C 5.73 g/m*3 3.05 C 0.53333 km/h
2986 05-03-2018 09:00:00 4.71667 C 6.45 g/m*3 4.72 C 0.53333 km/h
2987 05-03-2018 10:00:00 6.60833 C 7.11 g/m*3 6.61 C 0.8 km/h
2988 05-03-2018 11:00:00 9.025 C 7.42 g/m*3 9.03 C 3.06667 km/h
2989 05-03-2018 12:00:00 10.675 C 7.49 g/m*3 10.31 C 5.74167 km/h
2990 05-03-2018 13:00:00 11.69167 C 7.36 g/m*3 11.69 C 7.23333 km/h
2991 05-03-2018 14:00:00 12.025 C 6.95 g/m*3 12.03 C 9.14167 km/h
2992 05-03-2018 15:00:00 12.01667 C 6.76 g/m*3 12.02 C 8.48333 km/h
2993 05-03-2018 16:00:00 11.95833 C 6.83 g/m*3 11.96 C 6.05 km/h
2994 05-03-2018 17:00:00 10.73333 C 6.63 g/m*3 10.73 C 2.13333 km/h
2995 05-03-2018 18:00:00 6.525 C 6.03 g/m*3 5.23 C 6.825 km/h
2996 05-03-2018 19:00:00 4.89167 C 5.73 g/m*3 4.89 C 4.13333 km/h
2997 05-03-2018 20:00:00 3.41667 C 5.4 g/m*3 3.42 C 0.4 km/h
2998 05-03-2018 21:00:00 2.275 C 5.11 g/m*3 2.28 C 0.26667 km/h
2999 05-03-2018 22:00:00 1.19167 C 4.84 g/m*3 1.19 C 0 km/h
3000 05-03-2018 23:00:00 0.64167 C 4.74 g/m*3 0.64 C 0 km/h
Sensor: Nr:Datum:Temp:Abs-Feuchte:Windchill:Wind:
Aussen-T/F 3001 06-03-2018 00:00:00 0.225 C 4.64 g/m*3 0.23 C 0 km/h
3002 06-03-2018 01:00:00 0.1 C 4.63 g/m*3 0.1 C 0 km/h
3003 06-03-2018 02:00:00 -0.39167 C 4.48 g/m*3 -0.39 C 0 km/h
3004 06-03-2018 03:00:00 -0.85833 C 4.34 g/m*3 -0.86 C 0 km/h
3005 06-03-2018 04:00:00 -1.20833 C 4.23 g/m*3 -1.21 C 0 km/h
3006 06-03-2018 05:00:00 -1.125 C 4.29 g/m*3 -1.13 C 0 km/h
3007 06-03-2018 06:00:00 -1.00833 C 4.34 g/m*3 -1.01 C 0.13333 km/h
3008 06-03-2018 07:00:00 -0.71667 C 4.43 g/m*3 -0.72 C 0.13333 km/h
3009 06-03-2018 08:00:00 -0.03333 C 4.64 g/m*3 -0.03 C 0.13333 km/h
3010 06-03-2018 09:00:00 1.01667 C 5 g/m*3 1.02 C 0 km/h
3011 06-03-2018 10:00:00 2.75833 C 5.66 g/m*3 2.76 C 0.8 km/h
3012 06-03-2018 11:00:00 5.33333 C 6.32 g/m*3 5.33 C 0.53333 km/h
3013 06-03-2018 12:00:00 8.00833 C 6.45 g/m*3 8.01 C 2.26667 km/h
3014 06-03-2018 13:00:00 10.275 C 6.76 g/m*3 10.28 C 1.46667 km/h
3015 06-03-2018 14:00:00 12.01667 C 7.24 g/m*3 12.02 C 6.15833 km/h
3016 06-03-2018 15:00:00 13.18333 C 7.43 g/m*3 13.18 C 6.43333 km/h
3017 06-03-2018 16:00:00 13.475 C 7.52 g/m*3 13.48 C 0.8 km/h
3018 06-03-2018 17:00:00 11.15833 C 7.3 g/m*3 11.16 C 0 km/h
3019 06-03-2018 18:00:00 8.79167 C 6.93 g/m*3 8.79 C 1.06667 km/h
3020 06-03-2018 19:00:00 7.86667 C 6.86 g/m*3 7.87 C 3.6 km/h
3021 06-03-2018 20:00:00 7.76667 C 6.94 g/m*3 7.77 C 2.66667 km/h
3022 06-03-2018 21:00:00 7.35833 C 7.22 g/m*3 7.36 C 1.46667 km/h
3023 06-03-2018 22:00:00 6.88333 C 7.18 g/m*3 6.88 C 0 km/h
3024 06-03-2018 23:00:00 6.89167 C 7.25 g/m*3 6.89 C 0 km/h
3025 07-03-2018 00:00:00 6.35 C 7.06 g/m*3 6.35 C 0 km/h
Sensor: Nr:Datum:Temp:Abs-Feuchte:Windchill:Wind:
Aussen-T/F 3026 07-03-2018 01:00:00 5.79167 C 6.8 g/m*3 5.79 C 0 km/h
3027 07-03-2018 02:00:00 5.275 C 6.61 g/m*3 5.28 C 0 km/h
3028 07-03-2018 03:00:00 4.05 C 6.07 g/m*3 4.05 C 0 km/h
3029 07-03-2018 04:00:00 2.4 C 5.43 g/m*3 2.4 C 0 km/h
3030 07-03-2018 05:00:00 1.75833 C 5.24 g/m*3 1.76 C 0 km/h
3031 07-03-2018 06:00:00 1.43333 C 5.13 g/m*3 1.43 C 0 km/h
3032 07-03-2018 07:00:00 1.48333 C 5.15 g/m*3 1.48 C 0 km/h
3033 07-03-2018 08:00:00 2.225 C 5.47 g/m*3 2.23 C 0 km/h
3034 07-03-2018 09:00:00 2.85 C 5.71 g/m*3 2.85 C 0 km/h
3035 07-03-2018 10:00:00 3.79167 C 6.08 g/m*3 3.79 C 0 km/h
3036 07-03-2018 11:00:00 5.41667 C 6.78 g/m*3 5.42 C 1.875 km/h
3037 07-03-2018 12:00:00 7.36667 C 7.4 g/m*3 5.75 C 8.74167 km/h
3038 07-03-2018 13:00:00 8.5 C 7.15 g/m*3 6.34 C 13.03333 km/h
3039 07-03-2018 14:00:00 8.86667 C 7.12 g/m*3 6.93 C 12.1 km/h
3040 07-03-2018 15:00:00 8.73333 C 6.83 g/m*3 6.37 C 14.9 km/h
3041 07-03-2018 16:00:00 8.39167 C 6.78 g/m*3 6.25 C 12.75833 km/h
3042 07-03-2018 17:00:00 7.5 C 6.54 g/m*3 5.12 C 13.03333 km/h
3043 07-03-2018 18:00:00 6.725 C 6.32 g/m*3 4.79 C 9.66667 km/h
3044 07-03-2018 19:00:00 6.38333 C 6.38 g/m*3 4.52 C 9 km/h
3045 07-03-2018 20:00:00 6.2 C 6.39 g/m*3 3.58 C 12.76667 km/h
3046 07-03-2018 21:00:00 6.10833 C 6.25 g/m*3 3.38 C 13.3 km/h
3047 07-03-2018 22:00:00 6.10833 C 6.16 g/m*3 3.56 C 12.23333 km/h
3048 07-03-2018 23:00:00 5.84167 C 6.13 g/m*3 3.85 C 9.14167 km/h
3049 08-03-2018 00:00:00 5.875 C 6.15 g/m*3 3.37 C 11.7 km/h
3050 08-03-2018 01:00:00 5.725 C 6.03 g/m*3 3.51 C 10.09167 km/h
Sensor: Nr:Datum:Temp:Abs-Feuchte:Windchill:Wind:
Aussen-T/F 3051 08-03-2018 02:00:00 5.08333 C 5.8 g/m*3 3.18 C 8.21667 km/h
3052 08-03-2018 03:00:00 3.95 C 5.5 g/m*3 2.7 C 5.48333 km/h
3053 08-03-2018 04:00:00 2.8 C 5.33 g/m*3 2.8 C 3.46667 km/h
3054 08-03-2018 05:00:00 2.5 C 5.32 g/m*3 2.5 C 3.08333 km/h
3055 08-03-2018 06:00:00 3.575 C 5.66 g/m*3 2.12 C 5.9 km/h
3056 08-03-2018 07:00:00 4.325 C 5.78 g/m*3 3.28 C 5.1 km/h
3057 08-03-2018 08:00:00 5.16667 C 5.99 g/m*3 5.17 C 3.2 km/h
3058 08-03-2018 09:00:00 6.15833 C 6.2 g/m*3 6.16 C 3.6 km/h
3059 08-03-2018 10:00:00 7.61667 C 6.54 g/m*3 6.65 C 6.28333 km/h
3060 08-03-2018 11:00:00 9.04167 C 6.76 g/m*3 6.37 C 18.10833 km/h
3061 08-03-2018 12:00:00 9.73333 C 6.78 g/m*3 7.75 C 13.7 km/h
3062 08-03-2018 13:00:00 9.56667 C 6.83 g/m*3 8.38 C 8.59167 km/h
3063 08-03-2018 14:00:00 9.75833 C 6.57 g/m*3 9.34 C 5.48333 km/h
3064 08-03-2018 15:00:00 10.66667 C 6.53 g/m*3 9.29 C 10.89167 km/h
3065 08-03-2018 16:00:00 10.59167 C 6.64 g/m*3 9.06 C 11.80833 km/h
3066 08-03-2018 17:00:00 8.825 C 7.2 g/m*3 7.12 C 10.61667 km/h
3067 08-03-2018 18:00:00 6.675 C 6.76 g/m*3 3.59 C 16.64167 km/h
3068 08-03-2018 19:00:00 4.93333 C 6.15 g/m*3 2.74 C 9.275 km/h
3069 08-03-2018 20:00:00 4.8 C 5.99 g/m*3 2.15 C 11.29167 km/h
3070 08-03-2018 21:00:00 4.7 C 5.87 g/m*3 1.85 C 12.23333 km/h
3071 08-03-2018 22:00:00 3.66667 C 5.63 g/m*3 3.67 C 4.66667 km/h
3072 08-03-2018 23:00:00 2.98333 C 5.49 g/m*3 2.98 C 4.69167 km/h
3073 09-03-2018 00:00:00 3.55 C 5.69 g/m*3 2 C 6.16667 km/h
3074 09-03-2018 01:00:00 3.20833 C 5.54 g/m*3 3.21 C 3.61667 km/h
3075 09-03-2018 02:00:00 2.35833 C 5.31 g/m*3 2.36 C 0.53333 km/h
Sensor: Nr:Datum:Temp:Abs-Feuchte:Windchill:Wind:
Aussen-T/F 3076 09-03-2018 03:00:00 2.54167 C 5.43 g/m*3 2.54 C 3.06667 km/h
3077 09-03-2018 04:00:00 2.63333 C 5.46 g/m*3 2.63 C 0.4 km/h
3078 09-03-2018 05:00:00 2.39167 C 5.41 g/m*3 2.39 C 0.13333 km/h
3079 09-03-2018 06:00:00 2.775 C 5.56 g/m*3 2.78 C 0 km/h
3080 09-03-2018 07:00:00 3.01667 C 5.66 g/m*3 3.02 C 0 km/h
3081 09-03-2018 08:00:00 3.5 C 5.9 g/m*3 3.5 C 0 km/h
3082 09-03-2018 09:00:00 4.00833 C 6.11 g/m*3 4.01 C 0 km/h
3083 09-03-2018 10:00:00 4.59167 C 6.35 g/m*3 4.59 C 0.13333 km/h
3084 09-03-2018 11:00:00 5.675 C 6.76 g/m*3 5.68 C 0.93333 km/h
3085 09-03-2018 12:00:00 7.15 C 7.12 g/m*3 7.15 C 1.06667 km/h
3086 09-03-2018 13:00:00 8.33333 C 7.37 g/m*3 8.33 C 0.26667 km/h
3087 09-03-2018 14:00:00 8.70833 C 7.69 g/m*3 8.71 C 0.13333 km/h
3088 09-03-2018 15:00:00 9.15833 C 8.15 g/m*3 9.16 C 0.26667 km/h
3089 09-03-2018 16:00:00 8.69167 C 8.03 g/m*3 8.69 C 0.26667 km/h
3090 09-03-2018 17:00:00 8.09167 C 7.83 g/m*3 8.09 C 0.26667 km/h
3091 09-03-2018 18:00:00 7.53333 C 7.62 g/m*3 7.53 C 0 km/h
3092 09-03-2018 19:00:00 7.09167 C 7.42 g/m*3 7.09 C 0.26667 km/h
3093 09-03-2018 20:00:00 7.275 C 7.57 g/m*3 7.28 C 0.13333 km/h
3094 09-03-2018 21:00:00 7.16667 C 7.52 g/m*3 7.17 C 0 km/h
3095 09-03-2018 22:00:00 7.075 C 7.49 g/m*3 7.08 C 0 km/h
3096 09-03-2018 23:00:00 7.04167 C 7.54 g/m*3 7.04 C 0 km/h
3097 10-03-2018 00:00:00 6.875 C 7.44 g/m*3 6.88 C 0 km/h
3098 10-03-2018 01:00:00 7.05 C 7.54 g/m*3 7.05 C 0 km/h
3099 10-03-2018 02:00:00 7.16667 C 7.6 g/m*3 7.17 C 0 km/h
3100 10-03-2018 03:00:00 7.08333 C 7.56 g/m*3 7.08 C 0 km/h
Sensor: Nr:Datum:Temp:Abs-Feuchte:Windchill:Wind:
Aussen-T/F 3101 10-03-2018 04:00:00 7.225 C 7.63 g/m*3 7.23 C 0 km/h
3102 10-03-2018 05:00:00 6.80833 C 7.42 g/m*3 6.81 C 0 km/h
3103 10-03-2018 06:00:00 6.19167 C 7.13 g/m*3 6.19 C 0 km/h
3104 10-03-2018 07:00:00 6.625 C 7.33 g/m*3 6.63 C 0 km/h
3105 10-03-2018 08:00:00 7.46667 C 7.77 g/m*3 7.47 C 0 km/h
3106 10-03-2018 09:00:00 8.375 C 8.28 g/m*3 8.38 C 0 km/h
3107 10-03-2018 10:00:00 9.61667 C 8.99 g/m*3 9.62 C 0 km/h
3108 10-03-2018 11:00:00 11.91667 C 10.23 g/m*3 11.92 C 1.60833 km/h
3109 10-03-2018 12:00:00 14.26667 C 10.48 g/m*3 14.27 C 6.43333 km/h
3110 10-03-2018 13:00:00 14.73333 C 10.33 g/m*3 14.73 C 6.03333 km/h
3111 10-03-2018 14:00:00 14.45 C 10.03 g/m*3 14.45 C 4.95 km/h
3112 10-03-2018 15:00:00 13.88333 C 9.84 g/m*3 13.88 C 2.66667 km/h
3113 10-03-2018 16:00:00 13.375 C 9.67 g/m*3 13.38 C 2.8 km/h
3114 10-03-2018 17:00:00 12.99167 C 9.87 g/m*3 12.99 C 0 km/h
3115 10-03-2018 18:00:00 11.83333 C 9.48 g/m*3 11.83 C 0.4 km/h
3116 10-03-2018 19:00:00 11.28333 C 9.31 g/m*3 11.28 C 0.13333 km/h
3117 10-03-2018 20:00:00 11.1 C 9.28 g/m*3 11.1 C 0 km/h
3118 10-03-2018 21:00:00 11.04167 C 9.26 g/m*3 11.04 C 1.60833 km/h
3119 10-03-2018 22:00:00 10.18333 C 8.85 g/m*3 10.18 C 1.6 km/h
3120 10-03-2018 23:00:00 9.20833 C 8.44 g/m*3 9.21 C 2.8 km/h
3121 11-03-2018 00:00:00 8.70833 C 8.21 g/m*3 8.71 C 2.4 km/h
3122 11-03-2018 01:00:00 7.64167 C 7.68 g/m*3 7.64 C 0.53333 km/h
3123 11-03-2018 02:00:00 6.875 C 7.36 g/m*3 6.88 C 0 km/h
3124 11-03-2018 03:00:00 6.5 C 7.2 g/m*3 6.5 C 0.66667 km/h
3125 11-03-2018 04:00:00 6.825 C 7.41 g/m*3 6.83 C 0.13333 km/h
Sensor: Nr:Datum:Temp:Abs-Feuchte:Windchill:Wind:
Aussen-T/F 3126 11-03-2018 05:00:00 7.475 C 7.75 g/m*3 7.48 C 0.4 km/h
3127 11-03-2018 06:00:00 7.475 C 7.75 g/m*3 7.48 C 1.2 km/h
3128 11-03-2018 07:00:00 7.975 C 8.01 g/m*3 7.98 C 1.86667 km/h
3129 11-03-2018 08:00:00 9.56667 C 8.94 g/m*3 9.57 C 3.46667 km/h
3130 11-03-2018 09:00:00 10.25833 C 9.26 g/m*3 10.26 C 2.675 km/h
3131 11-03-2018 10:00:00 12.93333 C 10.1 g/m*3 12.93 C 6.56667 km/h
3132 11-03-2018 11:00:00 14.21667 C 10.04 g/m*3 14.22 C 11.43333 km/h
3133 11-03-2018 12:00:00 14.33333 C 10.21 g/m*3 14.33 C 7.125 km/h
3134 11-03-2018 13:00:00 13.91667 C 10.54 g/m*3 13.92 C 1.33333 km/h
3135 11-03-2018 14:00:00 14.10833 C 10.59 g/m*3 14.11 C 6.03333 km/h
3136 11-03-2018 15:00:00 14.78333 C 10.49 g/m*3 14.78 C 6.04167 km/h
3137 11-03-2018 16:00:00 14.8 C 10.32 g/m*3 14.8 C 3.74167 km/h
3138 11-03-2018 17:00:00 14.35 C 10.14 g/m*3 14.35 C 0 km/h
3139 11-03-2018 18:00:00 12.675 C 9.54 g/m*3 12.68 C 0.93333 km/h
3140 11-03-2018 19:00:00 10.73333 C 8.95 g/m*3 10.73 C 0.4 km/h
3141 11-03-2018 20:00:00 9.69167 C 8.56 g/m*3 9.69 C 0 km/h
3142 11-03-2018 21:00:00 9.24167 C 8.41 g/m*3 9.24 C 0 km/h
3143 11-03-2018 22:00:00 8.88333 C 8.26 g/m*3 8.88 C 0 km/h
3144 11-03-2018 23:00:00 8.39167 C 8.03 g/m*3 8.39 C 0 km/h
3145 12-03-2018 00:00:00 8.075 C 7.91 g/m*3 8.07 C 0 km/h
3146 12-03-2018 01:00:00 7.69167 C 7.76 g/m*3 7.69 C 0 km/h
3147 12-03-2018 02:00:00 7.60833 C 7.74 g/m*3 7.61 C 0 km/h
3148 12-03-2018 03:00:00 7.81667 C 7.85 g/m*3 7.82 C 0 km/h
3149 12-03-2018 04:00:00 7.875 C 7.87 g/m*3 7.88 C 0 km/h
3150 12-03-2018 05:00:00 7.8 C 7.87 g/m*3 7.8 C 0 km/h
Sensor: